GFSSE_500_spd_000.txt.gz
Wind_Speed
19 20 20 22 23 24 28 28 23 18 12 8 8 6 6 7 7 7 8 10 11 12 13 14 14 14 15 15 15 16 16 14 13 12 14 16 15 16 17 15 14 19 24
18 21 21 24 26 29 28 23 18 13 9 8 5 1 2 3 4 6 7 9 10 11 13 15 16 16 16 15 15 14 13 13 12 11 12 14 18 18 18 18 18 16 18
19 22 22 28 29 26 24 19 14 10 9 7 4 3 2 3 5 6 8 10 12 13 15 16 17 18 19 20 19 16 16 15 15 13 14 14 15 17 18 19 19 17 18
21 24 28 28 26 23 18 15 12 10 7 5 5 5 6 7 9 10 13 14 15 17 18 19 21 21 22 22 22 20 18 19 19 19 18 18 17 16 18 17 19 20 20
26 28 25 22 19 16 13 11 9 6 5 6 6 7 9 12 13 16 18 19 20 22 23 24 25 26 26 27 26 25 22 22 23 24 23 23 23 21 18 19 19 20 22
28 27 22 20 17 11 11 9 6 4 5 6 8 11 13 16 18 20 22 23 24 25 26 28 30 30 30 29 29 28 27 27 29 30 28 27 26 25 22 22 20 20 20
28 25 20 18 10 10 8 6 6 6 8 10 11 13 15 18 21 22 24 25 26 28 29 30 30 29 29 28 28 26 24 23 25 28 29 28 29 29 26 25 23 22 22
22 19 16 11 9 10 8 8 8 10 11 12 13 15 17 20 22 24 27 28 30 31 31 29 26 25 26 27 27 27 27 27 28 27 27 27 28 30 28 28 27 24 24
14 14 11 9 12 10 9 10 12 13 14 14 17 19 21 22 25 29 30 30 31 30 28 28 27 27 29 29 31 32 32 32 30 30 28 27 28 28 29 28 28 28 26
11 10 10 11 11 10 11 13 14 16 17 19 20 21 23 26 30 31 32 32 30 31 32 33 31 32 33 33 33 32 32 31 29 28 29 29 28 29 29 29 27 28 28
9 9 9 9 10 11 12 15 18 18 19 19 21 23 26 29 31 33 33 32 30 29 32 33 33 34 35 35 35 33 30 29 29 29 28 26 26 27 29 30 30 28 29
7 7 7 8 10 12 15 17 18 18 20 20 21 23 25 27 31 34 34 33 30 35 33 34 35 35 34 32 30 30 30 28 27 28 28 25 23 23 25 26 27 27 28
4 5 8 9 11 14 16 18 21 22 22 22 25 25 27 32 33 33 36 35 32 36 36 35 34 33 30 26 25 26 28 29 28 27 27 28 29 26 26 26 26 27 26
5 6 7 10 14 18 21 20 24 23 26 27 26 27 33 34 34 33 36 36 37 38 34 30 28 29 27 27 26 27 27 28 29 30 30 30 32 32 32 31 31 31 31
7 8 13 18 21 22 22 19 17 20 23 23 24 28 31 32 33 36 36 37 36 36 31 28 27 28 29 30 31 31 31 32 32 33 33 35 36 38 37 38 38 37 36
10 14 17 20 23 26 26 27 25 27 25 22 24 26 30 33 35 31 36 37 37 36 34 32 31 33 35 37 37 37 38 39 39 40 40 40 41 41 42 41 42 43 43
15 18 21 24 26 30 31 24 26 28 19 22 27 31 28 29 31 36 38 41 40 38 37 35 35 36 39 40 41 42 42 44 45 46 48 49 49 49 49 49 49 50 48
16 20 23 25 22 22 23 22 25 25 24 30 35 28 24 36 38 41 44 41 40 38 37 39 41 43 45 48 49 49 50 51 52 54 55 56 57 57 56 56 56 56 57
18 20 23 18 19 24 26 37 28 35 34 30 28 28 41 43 43 46 42 42 42 43 45 47 49 51 54 55 56 59 61 62 63 64 64 64 64 65 65 65 65 65 64
20 24 23 21 23 29 32 40 45 41 40 34 35 40 43 48 50 49 47 47 50 52 53 55 57 59 61 63 65 67 68 70 71 72 73 74 72 71 71 71 72 72 72
19 22 25 25 30 38 47 53 52 51 43 41 42 46 51 49 46 47 49 53 56 58 60 63 66 69 70 72 74 74 75 76 76 75 75 76 78 79 77 77 77 76 77
24 25 30 36 42 46 50 52 52 50 48 48 45 44 44 45 46 51 54 58 60 63 66 70 74 76 78 79 80 80 81 80 79 79 79 79 79 79 81 81 82 81 81
33 37 37 41 44 46 50 50 44 42 41 42 42 43 43 48 53 57 61 63 65 68 70 75 77 79 83 84 84 85 88 91 92 89 87 85 83 81 80 82 84 85 85
37 37 40 42 49 50 49 47 45 42 42 42 43 46 50 54 59 62 62 63 68 74 78 80 83 88 91 94 94 95 96 95 95 95 94 91 90 90 91 91 91 92 92
33 39 42 52 52 49 47 45 43 42 44 47 49 52 55 57 59 61 66 71 78 82 85 87 92 95 97 96 94 94 93 93 95 97 96 93 92 91 92 94 98 97 97
40 44 48 41 42 43 41 40 42 44 46 47 51 55 59 62 65 71 76 83 88 89 91 93 96 97 96 95 96 94 90 87 83 80 79 76 72 71 75 77 81 85 89

GFSSE_500_spd_003.txt.gz
Wind_Speed
20 16 17 16 17 19 23 27 27 25 19 10 4 5 4 2 4 6 9 10 11 12 12 13 14 15 14 15 16 16 15 13 13 13 12 12 13 16 18 18 18 18 17
16 14 16 18 18 19 26 24 23 19 14 7 6 5 3 1 2 5 7 9 11 14 16 17 19 20 19 17 15 16 16 15 14 14 15 16 14 13 17 17 19 19 20
11 14 17 17 21 20 23 22 18 14 10 8 7 6 4 1 4 7 8 10 12 15 17 20 21 22 22 21 19 18 17 18 19 19 19 19 20 19 19 18 17 18 19
10 15 17 18 17 17 17 16 14 12 10 8 8 6 5 5 8 11 12 14 16 18 20 22 24 24 25 25 24 22 21 20 20 21 22 23 22 23 25 23 19 18 19
13 16 14 17 16 15 14 12 12 12 9 8 8 8 9 10 12 15 17 19 21 22 23 25 26 28 28 26 24 24 23 22 23 24 25 24 25 25 27 27 25 23 19
15 16 16 16 16 14 12 13 12 8 7 9 10 10 11 13 16 18 20 21 23 25 28 30 31 31 29 26 25 23 20 21 20 21 21 23 24 26 28 29 28 25 25
15 17 17 18 13 11 11 10 8 8 9 10 11 11 14 16 19 21 23 24 27 30 30 32 30 29 25 25 26 25 24 23 24 25 26 26 25 24 26 28 30 29 29
15 17 19 15 9 10 11 10 10 8 10 11 13 15 18 19 22 23 25 28 29 30 31 32 30 29 29 27 28 29 29 30 30 30 30 29 28 27 26 26 28 30 30
9 14 13 11 11 12 12 12 9 10 13 15 17 19 21 23 25 26 28 29 30 33 33 32 30 31 31 30 31 31 30 29 31 32 29 28 27 28 29 29 28 29 28
9 9 10 10 10 12 10 9 11 15 18 19 20 22 25 26 28 28 27 29 32 32 34 32 31 35 33 32 31 32 30 27 26 27 26 26 29 29 28 30 31 29 30
10 9 10 10 10 9 10 12 15 17 18 20 22 26 27 28 28 26 29 34 35 33 34 33 36 37 36 34 32 31 31 30 26 25 26 26 25 27 27 27 29 29 29
9 9 7 7 9 11 12 15 15 18 20 24 28 29 27 27 30 29 32 36 34 35 35 36 39 40 36 34 32 29 25 25 26 25 24 24 26 26 25 25 24 24 26
9 9 9 9 10 11 14 16 18 21 24 27 30 29 29 30 31 34 34 35 33 34 33 35 36 35 32 29 26 26 24 24 24 25 25 24 25 27 29 28 27 25 25
10 9 8 8 13 17 18 19 22 27 31 33 36 31 28 31 33 34 33 34 33 31 34 34 33 32 31 28 27 27 28 28 28 27 27 27 27 27 30 32 33 32 30
4 7 10 13 14 18 20 22 25 27 30 28 29 27 27 30 30 32 31 33 29 30 34 37 36 34 34 33 33 33 33 33 32 32 33 33 34 34 33 34 36 37 38
8 9 12 16 18 21 24 25 30 33 34 34 31 27 22 24 25 31 31 33 34 37 40 40 38 36 35 34 34 36 36 37 38 39 39 40 40 40 41 41 42 42 43
11 15 20 20 20 26 22 24 25 31 36 39 27 25 23 32 26 33 30 37 37 40 40 39 38 36 37 39 41 43 45 45 46 46 47 48 48 49 49 49 49 50 50
15 20 21 22 23 18 20 20 27 28 26 26 39 31 27 44 50 35 43 39 43 41 42 42 41 41 45 48 49 50 53 54 54 55 57 58 58 59 59 59 59 58 58
17 21 22 22 18 19 23 30 26 38 41 44 44 38 35 36 40 45 46 47 43 41 43 45 47 49 51 53 56 59 61 63 64 65 66 67 69 70 70 69 68 68 68
17 20 19 20 18 29 33 35 40 45 46 48 50 44 40 43 43 42 42 42 42 45 49 51 53 55 58 62 64 67 69 69 70 71 72 73 75 76 77 78 78 77 76
18 20 21 25 34 39 43 44 45 47 52 53 48 40 37 38 39 40 41 44 47 51 55 57 59 62 65 68 72 73 71 71 74 77 80 81 81 82 84 85 87 88 87
21 25 29 34 39 40 44 46 51 55 53 49 43 40 39 39 40 43 47 51 56 59 59 60 63 66 70 72 74 77 80 81 83 86 88 90 90 89 89 88 89 91 93
26 31 35 41 35 39 44 48 51 47 45 42 41 42 44 46 48 51 56 59 60 58 61 66 70 72 77 80 85 90 93 95 97 98 98 99 98 96 94 93 89 88 90
34 35 38 42 43 47 50 48 50 50 47 46 47 48 49 50 52 55 58 60 61 65 70 74 78 82 88 91 95 98 100 105 108 107 103 100 98 97 97 97 96 95 94
30 34 36 42 42 44 45 46 44 42 43 45 47 49 51 54 56 59 62 65 70 75 78 82 86 90 93 96 98 101 103 102 101 99 97 89 82 80 81 82 81 82 87
32 36 35 39 43 45 48 48 48 49 51 53 54 54 54 57 61 63 67 72 76 79 83 87 91 95 98 100 102 104 100 96 91 84 77 67 58 51 53 56 56 59 64

GFSSE_500_spd_006.txt.gz
Wind_Speed
29 24 21 20 17 17 15 17 22 22 22 16 7 9 8 5 2 1 2 3 4 5 8 11 13 14 14 14 14 14 14 14 13 13 13 13 14 17 16 15 16 19 18
31 28 23 16 15 15 16 20 20 19 16 12 9 11 9 5 3 3 4 5 8 11 14 16 18 19 19 20 19 17 16 16 17 17 16 15 15 17 18 18 15 16 20
35 32 15 15 13 16 15 16 17 16 12 9 12 13 10 7 6 6 7 9 12 15 17 19 21 23 24 24 24 22 20 20 19 19 21 21 19 19 21 20 19 17 16
36 29 13 14 16 15 12 13 15 12 9 8 11 12 10 9 9 9 11 12 15 18 20 21 23 25 26 26 24 22 21 21 22 21 22 22 22 22 23 22 21 19 19
32 26 14 17 12 13 13 13 12 10 9 8 10 11 11 11 11 12 14 16 19 21 22 24 25 25 25 22 21 20 20 20 20 20 20 22 21 23 25 24 22 22 20
16 20 19 14 13 12 10 11 11 10 8 8 10 11 11 11 14 16 17 19 20 23 25 25 24 24 22 21 21 22 21 21 21 22 23 25 25 26 27 27 24 24 23
24 11 14 13 10 10 10 10 10 9 8 8 9 10 12 14 17 19 20 21 23 25 25 26 28 29 27 26 26 26 27 27 27 27 27 29 30 30 28 27 26 25 25
20 11 9 12 8 9 10 11 12 9 9 8 10 14 16 18 20 22 23 25 25 25 25 30 30 31 28 27 30 31 30 30 31 30 28 28 28 28 29 29 28 28 27
9 6 13 10 10 10 13 14 13 11 11 10 15 17 19 21 24 25 26 28 28 26 28 32 30 29 24 30 29 29 30 31 31 29 27 26 26 27 28 29 30 29 30
4 6 10 11 14 15 15 13 12 12 13 15 18 22 24 24 24 27 29 30 31 30 30 30 30 25 30 33 33 32 32 30 29 29 27 24 23 25 27 29 29 29 30
7 10 13 14 12 12 12 12 13 15 17 20 22 23 24 27 27 30 31 33 33 33 32 29 30 32 34 35 34 32 30 29 29 29 30 27 25 25 25 26 27 26 27
12 11 12 12 10 11 10 13 15 19 19 21 25 28 30 32 30 32 33 36 34 34 32 31 30 32 34 36 34 31 28 26 27 29 28 28 27 26 26 26 26 27 27
11 11 9 8 9 11 13 15 16 17 21 25 29 31 35 37 36 34 35 37 34 34 33 33 31 31 35 36 32 30 28 28 27 28 28 29 28 27 27 27 27 28 29
9 9 8 9 12 13 13 14 17 20 24 29 33 35 36 33 36 36 34 36 35 34 34 34 32 33 36 37 35 32 32 32 32 32 33 31 32 32 31 31 31 31 31
7 7 10 12 13 13 15 18 22 25 27 30 34 36 36 35 40 36 26 30 34 34 34 36 38 39 39 40 39 37 35 34 33 34 37 35 37 37 38 38 37 37 37
6 9 11 11 12 16 20 23 23 24 26 34 35 30 38 37 38 23 29 27 45 40 38 42 40 41 41 40 41 38 38 38 38 40 42 44 43 43 43 44 45 45 44
9 10 13 12 15 19 22 23 21 25 35 31 30 31 33 36 44 45 41 52 50 43 42 43 44 40 40 40 44 43 43 45 47 47 48 51 53 53 53 52 53 53 53
9 12 13 15 18 22 20 20 29 19 33 34 34 36 36 43 44 45 44 45 46 45 50 45 40 40 40 42 44 47 48 51 53 56 57 58 60 62 64 62 64 64 63
12 13 12 17 18 21 22 30 41 40 37 41 41 45 42 39 39 37 39 42 46 46 44 43 42 43 45 47 50 52 54 57 60 63 65 67 69 70 72 73 72 74 73
16 18 18 19 21 24 30 38 42 44 45 46 47 44 40 40 39 38 38 41 43 44 45 46 49 52 56 56 57 59 60 63 65 66 68 69 72 74 75 76 78 79 78
20 19 17 20 25 30 36 36 37 39 46 48 44 38 35 35 36 39 41 45 47 50 51 54 58 61 61 61 61 64 66 69 71 73 74 76 79 81 83 86 87 88 89
20 20 23 28 33 34 37 40 41 45 48 47 45 44 44 45 47 49 50 52 53 55 57 58 58 59 64 68 69 70 73 75 78 81 84 86 89 91 93 95 97 100 101
22 22 26 32 30 32 35 38 41 42 43 46 48 49 48 48 49 51 52 53 54 56 58 61 64 67 70 73 76 78 80 84 88 91 95 97 99 100 100 102 103 103 105
20 21 23 23 26 31 34 35 38 42 45 47 49 50 52 53 52 52 54 56 59 60 62 66 69 72 74 79 84 88 91 94 98 100 101 103 104 105 103 100 98 94 93
16 17 19 22 27 30 33 37 40 44 46 48 50 52 52 53 55 57 57 58 60 64 67 70 73 78 82 86 89 93 97 100 102 105 107 104 96 89 84 79 75 71 70
16 19 22 25 29 34 38 42 45 48 51 52 53 55 56 56 57 58 59 61 64 67 71 76 81 85 89 93 95 99 102 105 107 100 86 76 66 59 59 59 58 57 57

GFSSE_500_spd_009.txt.gz
Wind_Speed
34 35 33 31 30 27 22 20 19 22 22 17 13 10 12 10 6 4 2 2 2 5 8 10 12 14 15 16 16 16 16 16 14 15 16 17 17 18 18 18 17 17 17
35 35 34 34 29 27 22 21 21 20 20 17 14 11 14 11 8 5 5 5 6 8 10 12 14 17 19 19 19 18 18 18 18 18 17 19 17 19 20 21 21 21 18
35 38 38 36 31 20 19 22 22 18 18 15 12 13 15 12 9 8 7 8 10 12 14 16 17 18 20 21 22 20 19 18 19 20 21 22 16 21 22 22 22 22 21
35 43 44 39 33 19 21 21 18 17 14 11 10 13 14 12 11 10 10 12 13 15 18 19 20 20 20 21 19 18 18 19 19 18 18 20 17 20 20 19 21 23 22
38 47 48 48 29 22 20 20 15 14 13 11 11 14 15 14 13 10 13 14 17 18 19 20 21 21 22 21 19 18 18 19 20 19 21 22 23 24 25 24 22 23 23
39 44 41 35 25 20 22 20 14 12 12 11 11 14 15 13 11 14 16 18 20 20 22 22 21 23 23 24 22 20 21 22 23 23 24 25 27 27 28 28 26 24 24
39 52 49 21 17 18 20 18 10 10 10 9 10 12 13 13 15 17 18 20 23 24 25 24 22 26 26 28 24 21 25 26 27 26 27 28 30 30 29 29 27 27 25
30 37 26 21 25 23 20 12 8 8 8 7 8 11 13 16 18 20 23 24 27 29 28 27 26 27 28 28 22 26 29 27 27 29 31 30 32 31 29 29 29 28 27
17 26 15 17 22 16 12 6 7 7 8 7 9 14 16 20 21 24 26 30 30 32 31 31 29 28 27 24 27 28 27 28 29 30 30 30 30 30 29 28 28 30 31
21 9 18 15 18 9 8 7 6 8 8 11 15 18 21 23 25 28 32 36 34 33 31 31 30 29 31 28 28 29 30 31 32 32 29 30 29 28 28 27 27 28 30
26 11 8 9 5 6 2 4 7 9 12 15 16 18 20 24 29 31 35 38 38 36 35 33 29 29 32 31 30 33 34 35 35 35 32 30 29 28 27 28 28 28 28
7 6 5 3 4 2 4 7 9 12 13 15 18 22 25 28 30 33 36 37 39 36 38 36 35 35 33 34 34 32 35 36 35 35 30 32 29 30 31 29 29 29 28
4 5 5 4 4 5 7 9 11 12 15 18 22 25 27 29 30 31 34 40 40 35 40 39 35 36 33 36 36 34 34 35 35 37 33 35 34 33 33 33 31 30 29
3 4 4 6 8 9 9 11 13 16 19 24 25 28 32 28 31 31 33 33 39 38 36 32 33 36 38 43 44 41 37 35 36 40 41 36 38 36 36 36 35 34 34
4 6 9 10 9 10 11 14 17 22 23 25 28 29 25 22 28 31 35 42 22 34 36 38 42 45 43 44 43 42 41 38 38 38 41 37 37 39 39 38 39 39 40
6 8 8 8 9 13 16 17 20 21 20 26 28 24 29 29 34 36 37 37 43 44 44 46 48 49 46 44 43 47 44 44 44 42 43 47 44 44 45 45 45 45 46
7 7 7 9 12 15 18 21 22 21 23 26 41 38 38 42 40 45 44 43 44 44 48 49 48 49 49 50 46 45 44 45 45 46 47 49 52 53 55 53 53 55 55
6 8 9 12 15 16 17 18 29 24 41 42 38 39 40 40 37 32 33 35 42 44 43 44 46 48 47 47 46 46 48 49 50 51 54 56 60 59 62 63 63 61 64
9 10 11 16 18 17 17 21 25 31 35 38 41 44 46 46 45 42 38 38 39 41 41 42 44 46 47 47 51 53 56 58 60 61 62 65 67 68 69 69 72 72 73
12 13 17 17 15 15 22 28 32 34 37 38 40 44 46 44 42 42 42 41 44 46 49 51 53 54 54 56 57 56 59 62 64 66 68 69 71 73 77 77 78 78 81
16 18 19 18 21 25 30 31 32 31 32 36 39 42 42 41 42 44 47 50 52 52 55 55 55 55 57 58 61 61 60 63 66 69 72 74 75 77 79 80 83 84 84
18 21 22 23 25 28 26 26 28 30 32 34 36 38 43 46 49 50 50 51 53 54 55 56 58 58 58 59 63 67 65 64 68 74 77 80 84 86 87 89 90 92 93
21 23 25 24 25 22 22 25 28 31 35 38 40 42 44 46 48 51 53 54 54 55 55 56 56 57 59 61 64 68 73 77 80 82 84 87 90 93 95 97 98 100 100
24 23 20 17 18 21 24 28 31 35 38 41 45 47 50 51 52 54 56 57 55 54 55 56 57 60 65 69 73 77 81 84 88 92 95 97 98 102 105 105 106 104 102
19 16 16 18 21 24 27 30 33 37 41 44 46 48 51 53 55 57 58 58 57 56 58 59 62 67 72 76 80 83 86 90 94 98 99 104 104 96 85 81 77 72 71
15 16 19 21 23 27 32 35 38 42 46 49 50 51 54 57 58 58 59 59 59 60 62 66 70 73 78 82 84 88 93 98 102 102 96 86 76 63 58 56 55 55 56

GFSSE_500_spd_012.txt.gz
Wind_Speed
37 37 35 34 36 37 36 33 27 30 27 24 21 18 12 14 13 10 7 5 4 4 5 7 9 11 11 12 13 14 14 15 14 16 16 13 16 18 19 21 20 22 20
34 33 37 37 39 40 36 34 33 32 26 25 22 16 13 16 15 11 8 6 5 7 8 10 12 13 14 15 16 15 15 15 14 14 14 14 16 18 19 21 22 23 23
32 35 39 42 39 40 34 38 30 28 28 24 19 14 14 19 15 11 9 7 8 10 12 14 15 16 17 16 16 15 15 15 15 16 16 12 10 17 16 17 19 19 23
37 39 40 40 41 41 43 35 29 28 26 20 15 13 15 18 15 12 10 10 11 13 14 16 18 18 17 17 17 17 15 15 17 15 19 16 12 16 17 19 20 20 20
37 38 41 41 43 45 38 36 30 24 23 16 13 11 15 16 14 11 11 14 15 16 18 19 19 18 18 19 19 21 20 18 18 19 20 21 19 19 20 22 24 24 23
36 39 42 45 45 49 44 39 28 23 16 13 10 10 12 13 12 13 15 16 18 20 22 23 23 21 21 22 20 22 20 19 21 23 21 24 24 24 25 24 24 27 27
34 40 40 37 44 48 46 33 28 16 6 7 6 8 11 11 13 16 17 19 22 24 27 29 30 27 28 27 27 22 19 23 25 25 21 25 24 28 29 30 29 27 28
32 38 32 41 44 35 14 24 17 6 1 2 6 8 9 12 14 16 19 22 25 29 30 32 32 30 32 28 26 23 23 25 22 25 23 28 25 26 28 31 31 30 28
35 38 35 30 21 28 24 14 3 2 3 3 5 7 9 12 15 18 20 23 28 30 31 32 32 31 31 28 26 25 24 26 26 28 29 28 28 28 28 30 31 31 30
18 17 31 18 24 15 13 9 5 2 4 5 8 8 9 13 14 18 23 27 28 26 29 31 32 33 33 29 31 32 28 29 30 31 30 31 31 30 30 30 30 30 30
23 27 19 12 3 6 11 9 4 3 4 6 9 11 13 16 20 24 27 28 26 25 28 32 32 32 33 34 31 32 33 33 34 37 31 34 32 32 31 30 31 30 30
16 3 7 7 13 14 7 4 3 5 5 7 11 16 20 21 22 24 27 29 26 28 29 32 33 31 31 29 32 31 30 37 41 42 39 35 38 36 35 32 34 33 32
10 10 9 5 3 2 1 3 5 6 9 12 16 18 21 23 27 27 27 29 29 29 34 34 29 27 32 34 34 37 44 42 44 46 44 38 37 40 38 39 38 37 35
6 5 3 4 6 7 5 5 7 9 11 13 14 19 23 26 28 31 33 32 27 31 30 44 42 42 40 40 39 44 46 46 45 42 45 42 38 40 43 44 41 41 38
3 3 2 2 4 5 5 8 10 13 12 13 14 19 27 38 27 27 33 33 38 39 40 43 47 46 45 43 49 48 46 46 43 45 44 43 44 45 43 45 45 42 41
2 2 3 4 5 8 10 13 14 16 14 17 22 26 34 33 31 32 35 35 32 33 33 35 40 43 41 43 45 47 48 49 47 48 46 45 46 46 47 49 47 47 47
3 4 5 7 9 10 12 15 16 22 22 23 28 29 30 33 33 34 35 32 32 30 28 33 43 43 42 40 41 42 44 46 46 48 49 50 52 52 52 52 52 53 52
6 7 9 12 12 13 14 16 16 22 27 30 30 30 30 31 34 36 37 37 37 37 37 37 40 41 44 45 45 46 49 47 49 52 54 55 58 63 61 61 62 61 62
8 11 12 14 16 16 15 19 22 26 27 26 25 27 30 33 35 38 39 40 42 43 44 44 45 45 46 48 50 51 50 50 51 54 56 57 58 61 65 66 65 66 69
13 15 18 18 19 19 19 21 26 24 21 23 26 30 33 37 38 41 41 41 44 47 50 52 53 53 52 51 53 54 54 52 53 56 59 59 61 63 64 68 70 70 71
16 16 18 18 19 21 21 24 19 19 21 26 30 33 36 38 39 42 45 48 50 51 53 55 56 56 52 50 50 51 53 54 54 58 60 64 68 71 73 76 77 79 81
16 19 22 22 24 24 21 17 19 21 25 29 32 35 38 41 44 46 47 49 51 53 54 56 57 56 52 52 54 54 56 58 62 65 69 72 75 78 81 85 88 89 89
20 23 26 24 20 16 17 20 23 27 31 34 35 37 40 42 45 48 50 52 54 55 56 57 57 55 55 55 58 62 65 68 72 77 81 85 88 89 93 96 99 101 102
23 26 27 16 16 18 20 24 28 32 35 38 41 43 46 49 51 53 54 57 59 60 59 59 57 56 57 61 64 68 73 77 82 84 87 89 93 96 98 97 95 93 91
27 27 17 16 18 21 25 29 33 37 41 44 47 49 51 53 54 56 57 59 60 60 60 60 58 59 62 66 70 74 77 81 86 91 93 95 92 86 84 84 79 74 68
26 19 18 20 23 26 30 34 38 41 46 49 51 53 55 56 56 57 58 60 61 60 61 59 60 64 68 71 74 79 85 91 96 98 92 85 81 75 70 65 57 52 50

GFSSE_500_spd_015.txt.gz
Wind_Speed
34 41 47 38 35 37 40 39 38 36 35 27 33 31 23 17 15 14 12 9 6 4 4 5 7 9 11 12 12 13 12 11 11 11 12 13 17 17 16 17 19 19 19
41 35 39 35 34 36 40 40 40 36 34 32 28 27 22 16 18 15 13 9 7 6 7 8 10 13 14 14 14 14 12 10 10 12 10 9 16 14 14 15 17 19 20
41 21 20 31 33 38 43 42 42 34 35 30 26 27 21 17 20 18 14 10 9 10 10 11 14 15 16 15 14 14 14 14 14 11 12 11 11 13 14 14 14 16 18
44 42 40 35 38 41 40 39 38 37 39 29 26 23 18 15 20 18 13 10 12 13 13 14 17 18 18 16 17 17 16 15 14 17 12 16 14 13 15 15 16 18 20
38 41 41 38 39 39 39 41 40 41 32 28 24 15 12 14 18 15 13 14 15 14 15 18 20 22 21 20 20 20 18 17 13 18 20 18 17 18 18 19 21 21 22
32 35 36 37 35 39 41 42 44 35 30 28 23 9 8 14 17 15 15 15 15 16 18 20 23 25 25 25 27 26 26 23 17 18 17 16 19 22 22 21 23 24 24
28 30 26 35 25 31 39 46 47 32 25 24 10 7 11 12 14 15 14 14 16 18 20 22 25 26 25 25 26 26 25 26 21 19 18 18 22 25 26 25 24 25 27
23 27 34 39 30 36 47 38 25 21 17 6 6 8 9 11 8 10 13 17 19 21 24 26 25 24 23 24 25 21 24 25 21 20 20 22 23 23 25 27 27 28 28
23 18 34 35 28 40 35 29 19 8 9 7 7 4 4 5 7 12 17 19 23 27 28 26 26 27 27 27 26 25 26 27 27 27 26 26 25 26 25 27 28 29 29
23 33 37 28 26 16 22 10 13 12 11 5 2 4 5 11 12 15 18 22 25 28 29 27 28 25 26 23 24 27 29 30 31 29 30 34 33 32 32 30 29 30 31
25 30 17 22 19 21 7 9 18 11 6 3 4 6 8 11 15 19 22 25 26 28 27 27 30 30 28 25 22 23 24 28 33 33 36 40 41 40 36 35 35 31 32
22 25 5 11 3 14 20 20 14 7 4 3 5 8 12 15 16 20 22 28 26 29 32 30 31 29 28 25 31 32 35 33 36 38 42 43 46 45 43 39 37 35 34
17 14 7 19 18 18 12 10 7 6 4 4 7 10 12 16 16 18 26 24 31 29 31 32 31 36 36 33 37 36 35 38 45 46 45 46 47 45 44 41 37 38 36
3 6 10 11 12 10 9 5 4 3 4 7 9 12 13 16 24 24 28 26 24 27 27 28 30 31 35 35 37 37 36 36 39 41 46 44 45 49 44 43 41 39 38
9 6 5 5 8 8 5 5 3 3 7 7 12 16 19 21 23 22 25 23 25 26 26 28 30 30 31 35 38 39 40 40 40 40 42 42 41 45 48 47 43 42 41
2 2 3 5 6 5 4 4 5 4 6 9 15 18 19 20 19 19 21 24 26 28 29 30 31 31 34 37 40 42 44 42 40 41 43 45 46 46 46 47 47 46 44
3 1 2 5 5 5 7 10 12 7 11 16 20 18 15 16 19 22 24 27 30 32 32 32 33 34 35 38 41 43 46 47 46 47 47 47 50 51 52 53 53 52 53
1 3 3 6 9 9 11 13 13 15 18 20 14 13 16 19 23 26 29 32 34 36 37 39 39 40 41 44 45 47 48 44 44 46 47 49 50 50 51 51 54 56 59
4 8 8 11 15 16 17 14 15 18 19 12 13 17 21 24 27 30 33 36 38 40 42 43 45 47 49 49 50 50 51 48 45 47 46 47 50 53 54 56 57 59 59
7 11 14 16 19 18 18 18 18 17 13 16 19 23 26 29 33 35 37 39 41 43 45 47 48 50 51 51 52 50 47 47 46 47 48 51 55 59 63 65 66 67 69
8 14 16 16 17 17 16 14 11 14 17 21 26 29 31 34 37 40 42 44 47 48 49 50 51 52 52 53 54 51 47 48 50 52 54 57 62 65 70 74 77 79 80
14 14 17 19 18 11 8 12 14 18 22 27 31 34 37 41 43 45 47 50 52 52 52 53 54 55 56 56 53 50 49 50 53 57 60 64 69 73 78 82 86 88 90
19 17 19 23 15 11 13 16 18 22 26 30 35 38 42 44 46 49 52 55 56 58 58 58 56 56 55 53 52 54 56 59 61 64 69 74 78 83 88 91 92 93 94
28 23 20 17 18 16 20 23 27 30 33 36 39 42 45 48 51 54 56 58 59 59 58 57 57 57 53 52 56 60 63 68 71 73 78 81 85 92 93 89 90 86 80
29 25 20 11 14 18 23 28 32 36 39 42 45 49 52 54 55 57 59 60 60 57 55 56 58 54 53 56 60 64 67 70 73 77 82 89 94 107 90 81 79 75 72
25 20 14 15 19 24 29 32 35 38 42 46 50 53 55 56 58 60 60 59 57 55 55 58 55 53 55 58 65 65 68 75 81 84 88 95 97 95 74 69 65 64 59

GFSSE_500_spd_018.txt.gz
Wind_Speed
29 32 32 35 40 45 41 37 34 33 31 32 32 27 30 26 22 20 17 15 13 12 9 8 10 11 13 14 14 12 12 13 13 13 14 16 15 14 16 19 20 19 19
33 37 34 29 45 42 47 41 41 35 34 37 31 26 30 25 22 20 18 14 12 11 9 10 12 15 16 17 15 13 12 13 14 14 13 13 14 12 13 12 14 15 15
34 36 34 31 31 31 32 34 35 34 37 37 29 28 28 24 20 21 18 15 12 12 11 13 14 16 19 18 15 14 14 14 15 18 17 15 15 16 16 13 15 16 17
37 36 39 34 40 44 39 37 35 37 36 34 31 34 27 23 16 20 20 16 14 14 13 15 16 18 19 19 18 16 16 17 17 15 16 17 18 19 19 18 18 18 20
38 40 42 38 32 36 39 39 36 36 36 35 35 33 25 18 13 18 20 19 19 14 15 16 18 21 21 20 20 20 18 19 22 21 17 18 17 17 17 19 22 23 24
43 38 36 30 31 33 35 33 34 39 40 39 36 34 21 10 13 20 19 22 16 15 17 19 22 25 27 26 24 21 21 19 21 21 22 20 15 16 17 18 19 22 25
34 35 30 29 22 30 35 34 40 39 37 39 35 21 8 10 17 20 18 16 16 18 20 22 25 29 29 27 30 26 24 19 18 20 22 22 20 20 22 23 22 22 23
31 34 18 21 31 33 37 35 36 37 38 35 12 9 10 13 13 14 14 14 16 20 23 25 29 31 29 26 26 28 27 25 21 19 20 23 24 25 25 25 25 26 25
16 25 23 29 35 42 33 30 31 28 26 13 13 11 11 13 16 12 12 13 20 24 24 26 26 27 28 28 29 30 27 26 25 27 28 28 28 29 30 30 29 29 29
16 23 16 33 38 31 17 22 23 18 14 15 12 9 10 9 8 10 12 22 22 24 23 24 24 28 29 29 25 25 29 24 24 22 24 25 28 31 35 34 37 35 33
21 28 25 30 23 16 14 8 15 13 16 14 8 6 5 6 10 15 21 23 21 23 23 21 25 27 27 29 31 24 27 28 33 34 33 35 36 37 38 37 37 35 34
17 18 26 25 35 18 15 8 18 17 12 9 8 10 11 14 15 15 18 22 21 23 24 26 26 28 31 33 36 36 32 33 35 37 43 44 45 45 43 43 40 37 34
24 6 10 9 5 13 16 19 16 12 8 6 9 11 11 13 13 13 22 21 22 24 21 21 22 23 24 26 26 27 30 32 32 35 39 40 41 43 44 41 39 40 37
8 9 8 13 12 16 13 10 9 5 5 5 4 8 11 14 16 17 18 18 16 17 20 22 25 27 30 30 31 32 33 35 36 37 38 38 40 41 42 43 38 36 39
9 11 12 13 12 12 12 9 7 7 3 3 4 9 11 14 14 11 11 15 18 22 25 28 31 32 33 34 35 36 37 38 40 41 42 43 43 43 44 46 45 43 40
11 11 10 10 10 7 5 3 1 5 2 3 8 13 15 9 9 13 16 20 24 26 28 29 30 32 34 36 37 38 39 41 43 45 45 44 44 44 44 46 48 50 48
9 8 7 6 5 3 1 2 2 4 4 11 10 10 7 10 13 17 21 24 26 28 29 31 33 35 36 36 37 39 41 43 46 47 45 43 42 44 46 47 46 48 51
6 6 4 2 2 4 6 5 5 4 10 13 9 6 10 13 17 20 24 28 30 32 33 34 36 38 39 39 41 42 44 46 48 48 46 46 47 47 46 46 47 49 50
3 4 6 8 8 10 10 9 8 10 12 8 8 11 16 19 22 25 29 33 35 37 39 40 42 43 43 43 45 46 48 50 48 44 43 45 47 49 51 54 56 58 58
4 7 10 13 12 13 14 13 11 8 6 8 12 16 20 23 27 31 34 37 40 41 44 46 47 47 48 48 48 48 49 49 45 43 45 48 51 55 58 61 64 66 68
10 13 13 11 11 11 10 7 6 7 10 14 19 23 27 30 33 36 39 42 44 47 48 50 50 50 49 49 48 50 48 44 44 47 50 52 55 58 61 64 66 68 68
12 13 13 12 11 5 6 8 11 13 17 22 25 29 32 34 38 42 45 48 49 50 52 53 53 51 50 49 50 50 44 42 45 48 52 54 56 59 64 70 75 79 82
12 13 14 13 12 4 7 11 15 18 23 27 31 34 37 40 44 47 50 51 54 54 56 57 54 52 51 51 52 47 47 48 51 55 56 57 60 63 65 72 77 81 87
15 12 12 13 13 9 11 15 19 24 28 31 35 39 42 45 47 49 53 55 56 57 57 54 53 53 53 55 51 49 51 55 58 61 65 67 70 73 77 80 83 90 94
13 10 10 10 12 13 18 22 25 29 33 36 39 42 46 48 51 53 56 57 56 56 54 53 53 54 55 53 53 54 57 60 64 69 73 75 79 81 83 83 88 94 96
10 6 7 6 12 16 21 27 32 36 39 42 46 48 51 54 56 57 57 57 57 55 55 56 56 58 56 55 57 61 63 64 71 71 72 77 82 86 86 87 92 88 79

GFSSE_500_spd_021.txt.gz
Wind_Speed
19 23 26 28 30 31 34 36 37 38 41 43 39 37 32 27 25 22 20 20 18 14 12 12 13 11 14 18 19 19 17 16 16 15 13 14 15 17 18 17 17 17 18
24 25 27 32 36 31 29 34 31 27 29 38 35 35 33 24 24 20 20 19 17 14 12 14 14 14 15 17 19 19 18 16 15 16 18 17 15 15 15 16 14 14 15
29 30 31 33 32 30 29 24 23 33 33 35 32 33 29 23 25 21 19 19 18 14 15 16 14 15 15 18 18 18 19 18 19 16 17 20 20 18 18 17 18 16 16
33 34 36 36 35 34 30 31 39 38 35 34 35 32 29 26 26 19 19 21 17 19 18 17 17 17 19 21 21 21 20 21 22 21 20 20 19 20 22 21 21 18 19
34 38 41 39 36 30 31 31 35 35 36 36 34 32 28 27 19 19 19 21 23 21 20 18 18 20 23 24 26 26 25 24 24 24 23 23 22 21 18 17 19 19 21
41 46 43 38 32 29 31 32 33 36 34 35 35 32 29 25 23 18 20 21 22 23 19 20 23 24 24 28 30 27 26 27 27 27 26 24 24 21 20 19 19 19 20
35 39 38 35 32 31 32 31 37 32 30 33 32 33 31 21 18 16 19 20 20 19 20 22 21 25 28 31 28 25 23 24 26 29 27 27 25 23 23 24 24 22 21
34 30 39 34 33 37 36 39 35 32 35 34 33 34 24 11 13 14 17 16 16 20 19 21 28 30 29 27 27 26 26 25 24 22 25 27 27 27 28 29 29 27 28
29 31 37 31 40 39 37 35 31 36 36 30 31 15 10 9 10 10 10 14 15 15 19 24 27 25 25 26 29 28 29 28 26 24 24 26 28 31 32 31 30 30 32
22 19 22 34 39 37 42 33 32 37 33 33 16 12 10 10 11 12 10 10 14 22 25 25 23 24 27 26 28 30 31 32 32 31 31 32 32 32 33 32 34 36 36
21 20 23 19 34 24 16 20 24 29 25 21 15 11 8 5 4 6 12 16 21 22 20 20 21 25 25 25 27 28 29 31 33 35 37 37 36 34 37 41 41 43 41
15 19 25 19 30 32 27 13 27 25 17 15 13 11 9 10 11 11 16 15 17 17 20 17 17 18 20 23 25 27 29 29 29 32 34 37 39 39 38 37 37 39 40
16 14 16 30 8 8 9 15 21 16 10 7 9 9 8 9 9 9 13 16 13 12 15 18 22 25 25 26 27 29 30 31 32 34 36 37 39 39 39 40 39 40 40
14 7 6 12 12 10 13 14 15 11 12 11 8 4 5 7 10 13 11 8 13 16 20 24 26 27 29 30 32 33 34 35 37 38 39 40 40 42 44 45 45 45 43
5 17 14 13 15 17 14 13 13 11 8 7 7 3 7 10 9 8 10 13 16 21 24 26 30 32 34 34 36 38 39 39 40 40 40 41 42 44 45 46 46 46 45
14 13 13 11 11 11 11 8 6 6 3 3 4 8 7 3 4 8 12 17 22 25 29 32 33 35 37 40 41 42 43 43 43 43 44 44 44 43 43 42 42 43 45
14 13 12 9 8 6 4 3 3 4 7 4 7 6 1 5 9 14 19 23 27 29 32 35 37 38 40 41 43 45 45 45 44 45 45 46 45 44 43 42 42 42 43
8 7 5 3 1 1 1 2 3 4 7 7 5 2 5 9 14 19 23 27 30 33 36 38 39 41 42 44 46 47 47 46 45 45 46 46 44 41 42 43 45 46 47
10 7 4 2 1 2 1 1 3 5 6 4 3 5 9 15 19 24 27 31 33 36 38 40 42 44 45 47 47 47 46 45 44 46 46 43 40 42 44 46 48 49 51
8 5 4 3 2 4 4 3 2 1 3 4 7 12 16 21 24 28 31 35 37 39 42 44 46 46 47 47 46 46 44 44 46 46 42 40 42 44 47 50 54 55 57
7 7 5 3 2 4 1 1 2 2 5 8 13 18 22 25 28 32 35 39 42 44 46 47 48 49 48 46 45 44 44 46 47 42 43 46 49 52 56 58 60 63 65
6 6 4 2 2 2 3 4 4 6 10 14 20 23 27 31 34 37 40 43 45 48 49 51 51 50 48 46 46 47 48 50 47 46 48 50 53 54 57 60 64 67 69
4 4 4 3 3 4 6 7 9 11 17 22 26 30 33 37 40 43 46 48 49 50 51 50 48 51 49 49 51 52 53 51 50 51 53 55 56 58 62 65 64 65 67
7 7 6 5 7 7 9 10 15 20 23 28 33 36 38 40 44 47 50 51 51 51 50 51 52 53 52 54 56 56 57 56 57 59 62 64 65 68 70 70 70 72 73
9 8 9 7 7 9 11 14 21 23 28 33 38 39 41 44 48 51 53 53 53 51 53 51 55 56 56 58 60 59 59 62 65 65 64 66 70 71 76 80 82 76 73
10 9 7 8 10 13 16 20 25 29 34 38 41 42 44 49 53 52 51 51 48 50 58 57 57 57 60 62 62 61 64 67 69 71 71 72 74 78 82 85 78 74 77

GFSSE_500_spd_024.txt.gz
Wind_Speed
21 21 19 21 23 24 29 31 29 23 20 20 22 26 27 28 24 21 17 14 13 13 12 12 12 13 12 13 15 18 18 19 19 18 17 16 17 18 19 18 18 18 18
18 22 24 25 25 26 28 29 25 26 21 23 23 29 28 27 24 18 18 14 12 13 12 12 13 14 14 16 19 21 20 21 21 21 19 18 18 19 21 20 18 18 16
22 27 27 28 30 29 30 26 25 22 25 26 33 28 27 27 23 20 20 16 13 14 14 15 16 16 17 18 20 21 22 22 22 22 22 19 18 18 18 21 21 20 20
27 28 29 32 33 29 29 28 27 26 27 27 31 29 29 28 23 21 21 16 15 17 17 17 18 16 17 20 22 24 27 27 25 24 24 24 22 21 20 20 22 20 19
28 29 31 34 34 35 32 31 30 29 24 31 29 33 30 25 25 25 19 18 17 19 20 20 18 18 20 22 24 27 29 27 25 24 24 27 29 26 24 21 20 18 18
26 28 32 33 34 31 28 29 31 30 26 31 32 34 29 27 26 25 19 20 17 19 20 20 18 19 20 23 26 31 28 25 22 22 22 26 27 26 28 26 24 22 20
26 27 26 32 32 30 27 31 28 24 30 33 36 34 26 28 28 26 14 13 15 17 18 19 19 19 23 27 30 29 26 26 26 23 23 23 24 27 26 26 27 26 27
24 27 33 28 38 28 33 27 22 28 32 34 38 33 33 29 25 13 6 11 14 14 15 17 18 22 26 30 26 25 25 25 26 26 25 23 22 24 29 30 31 32 33
29 30 31 42 44 49 36 31 32 33 31 38 36 34 26 14 7 8 11 12 12 12 14 20 22 27 28 28 26 24 26 25 25 26 26 26 28 29 30 31 32 33 33
29 30 38 32 36 41 38 33 39 38 32 41 37 28 11 11 8 9 8 8 8 12 18 21 24 23 21 22 20 19 22 24 25 26 26 26 27 29 31 33 34 36 38
23 26 33 27 38 41 43 48 43 30 28 31 26 15 11 6 6 5 5 7 11 16 20 19 19 16 15 19 23 24 26 28 30 32 33 33 34 34 34 34 33 34 35
16 23 24 23 26 27 27 20 24 25 30 29 19 15 14 15 9 6 8 13 18 15 14 10 13 17 20 23 25 26 28 29 30 32 33 36 38 38 39 39 39 39 39
17 17 15 12 8 5 27 25 26 21 19 23 18 13 7 5 8 9 10 12 11 7 9 12 17 20 23 26 27 29 30 31 32 33 36 37 38 39 38 38 41 42 41
15 8 14 10 15 14 13 12 19 16 16 13 6 10 9 8 8 9 10 3 6 10 14 18 22 25 29 31 32 33 34 35 35 36 37 39 39 40 40 39 40 41 43
10 10 21 18 18 19 17 15 13 12 12 12 10 7 5 6 6 6 4 5 10 15 20 23 27 30 33 36 36 37 38 40 41 40 40 40 40 40 40 40 41 41 41
19 17 15 13 13 13 11 9 10 10 11 9 9 7 7 5 3 3 7 12 16 19 23 28 32 35 37 39 41 42 43 44 44 43 41 41 41 40 41 41 42 41 40
17 14 13 11 10 9 7 7 7 8 10 9 5 7 5 4 4 8 13 17 21 24 29 32 36 39 41 42 43 45 45 45 44 42 41 41 41 42 44 44 43 40 39
18 15 12 10 8 8 8 7 8 7 11 10 6 7 8 7 9 13 18 22 26 29 33 36 39 42 44 46 47 47 46 45 43 42 42 42 43 46 45 43 41 41 42
14 13 11 9 8 7 6 5 6 7 9 8 8 8 8 10 13 18 22 26 29 33 37 40 43 45 48 47 47 46 45 44 42 42 43 45 48 47 44 43 45 46 48
6 5 4 4 2 1 2 5 7 7 7 7 6 8 11 15 19 23 27 31 34 39 42 43 45 47 47 48 48 46 44 42 42 44 46 48 48 46 47 49 52 54 57
8 8 6 5 4 4 4 5 7 7 7 7 10 12 16 19 23 27 31 34 38 42 44 45 47 48 46 47 45 46 45 45 46 47 49 50 50 49 51 53 57 60 63
7 8 8 10 8 7 8 9 8 9 10 12 15 18 20 24 28 31 34 37 41 43 44 45 46 45 46 47 47 50 50 50 51 53 53 53 54 56 58 61 63 65 67
5 5 8 10 11 11 12 13 12 13 15 17 21 23 25 29 33 36 37 41 42 42 42 43 44 42 46 53 52 51 52 53 55 56 56 58 60 63 65 67 68 69 71
7 8 10 11 13 13 15 17 16 17 18 22 25 28 33 36 38 41 44 46 45 43 40 46 48 48 52 56 56 55 57 59 59 60 62 64 68 71 73 75 77 80 79
13 12 13 14 14 14 13 14 17 19 20 26 30 34 38 40 42 44 46 48 48 45 46 46 45 53 59 61 59 61 62 63 65 68 70 73 76 77 80 82 83 83 77
17 17 15 14 12 11 13 14 16 21 25 29 33 37 41 43 43 45 46 49 48 49 46 55 55 58 60 60 62 63 66 68 70 72 75 77 78 80 82 84 83 78 73

GFSSE_500_spd_027.txt.gz
Wind_Speed
23 20 17 18 20 19 21 22 23 25 26 21 17 13 16 16 19 16 15 12 10 10 12 13 14 12 12 13 13 14 14 14 15 16 18 19 19 19 19 19 19 19 18
20 17 19 20 21 22 23 23 22 22 22 20 16 20 20 17 20 15 15 12 10 12 15 14 14 13 12 12 13 15 16 18 19 18 17 19 20 19 19 20 20 21 19
18 21 21 23 25 26 26 25 22 21 21 21 19 23 22 19 21 15 15 13 11 14 16 15 15 14 13 14 16 16 17 22 23 23 22 23 22 21 23 21 20 20 21
24 27 28 28 28 28 27 25 24 23 23 24 24 22 24 25 20 20 16 14 13 14 17 18 17 15 14 16 17 16 20 23 26 21 21 20 21 23 24 25 25 23 22
28 29 32 31 30 27 26 28 28 28 25 26 25 22 26 25 23 20 18 16 14 16 19 20 17 18 16 18 18 20 24 29 25 24 20 20 20 22 24 25 26 26 25
27 28 29 29 27 28 26 29 30 29 24 25 22 24 30 26 26 20 21 17 16 17 20 18 18 17 16 19 21 26 28 25 24 23 21 21 20 20 21 25 26 27 26
29 25 25 25 22 24 31 28 29 22 23 19 22 27 29 27 26 22 21 20 21 18 18 14 16 16 17 19 23 29 24 24 23 24 24 22 21 20 18 20 24 26 28
26 26 24 21 24 31 36 33 24 23 22 22 24 29 27 30 21 22 25 23 10 6 10 12 12 15 17 21 26 25 22 23 20 20 21 22 23 23 24 24 25 25 27
25 28 28 26 30 37 48 34 34 29 23 31 28 26 32 24 18 20 16 7 6 10 10 9 14 19 21 23 21 18 18 20 22 23 24 26 27 26 26 27 27 27 28
22 26 30 28 30 32 32 46 40 41 28 38 39 25 26 13 11 9 6 6 7 5 9 12 17 20 18 15 15 18 20 22 24 26 25 25 26 29 29 30 30 30 31
19 25 26 39 31 41 42 43 51 45 36 37 36 27 26 13 13 9 8 6 7 10 10 14 13 8 11 15 19 23 26 26 28 29 30 31 31 32 33 34 34 35 35
25 25 29 30 30 35 34 40 40 44 37 38 26 20 15 14 13 12 12 13 13 13 13 7 7 10 14 18 22 23 26 28 29 31 32 34 36 35 37 37 38 38 37
31 26 23 23 20 13 22 34 22 25 32 30 16 14 14 14 11 9 9 13 14 10 7 6 11 14 17 20 24 26 28 30 32 34 36 38 39 40 39 40 40 41 42
21 23 17 12 12 8 6 26 13 16 13 24 21 17 13 12 11 13 16 12 8 7 7 12 15 19 22 25 28 30 32 35 37 38 38 39 40 40 39 39 39 39 41
11 19 14 17 15 15 16 16 22 23 21 17 12 12 11 11 12 13 10 9 7 9 12 16 20 24 27 31 34 36 37 39 41 41 41 40 39 38 37 37 38 38 39
21 25 23 23 25 23 18 15 14 12 10 9 9 10 9 11 12 10 8 9 10 13 17 21 25 29 33 35 38 40 41 42 42 42 41 39 37 37 38 39 40 41 42
20 17 15 14 15 12 10 9 10 11 13 15 14 16 14 14 13 10 8 11 15 18 22 26 30 33 37 39 41 43 43 42 41 40 39 38 39 40 41 42 43 43 42
16 15 13 11 11 10 8 9 11 12 15 16 16 13 15 16 10 8 11 15 19 22 26 30 34 37 40 42 43 43 43 42 40 38 39 39 40 42 44 44 44 44 43
15 12 11 8 7 7 8 11 12 13 15 17 17 14 13 11 10 12 16 20 24 26 29 33 37 41 43 43 44 44 43 40 40 42 42 43 44 45 46 46 46 46 48
12 10 9 10 10 10 10 11 12 12 15 15 13 12 11 12 14 16 21 24 27 29 33 38 42 44 44 44 44 43 41 42 44 45 46 46 46 47 48 49 50 52 55
11 12 12 12 11 10 10 11 13 12 13 13 10 10 13 16 18 21 25 28 30 34 38 42 46 46 45 41 43 46 47 46 48 49 49 49 50 51 52 54 56 58 61
10 11 12 14 12 10 10 14 14 14 13 12 14 15 17 21 23 27 30 31 34 37 41 43 45 46 45 46 48 51 51 52 54 51 52 52 54 56 57 59 61 63 66
6 5 7 9 10 10 10 11 15 15 15 14 16 18 21 25 29 31 32 35 38 42 42 46 49 49 48 52 55 56 56 56 56 55 56 58 60 62 64 67 69 71 72
8 6 8 11 14 14 16 16 17 16 16 18 19 23 26 30 31 33 36 37 41 44 47 49 49 50 50 56 57 55 56 57 58 58 59 63 65 68 71 74 75 76 75
15 13 11 11 16 17 17 18 19 20 21 23 22 26 29 32 35 38 39 41 44 47 52 48 51 56 59 63 61 60 59 59 60 62 65 68 71 75 78 79 79 79 80
19 17 17 16 17 17 16 18 20 24 24 24 25 27 30 32 35 38 39 42 49 52 53 52 56 55 60 65 61 60 60 61 64 68 72 74 76 77 81 80 81 84 86

GFSSE_500_spd_030.txt.gz
Wind_Speed
29 28 26 25 25 26 26 24 23 22 22 22 23 18 18 12 13 13 12 13 11 11 9 9 12 11 12 12 10 10 10 9 10 12 13 13 15 17 17 18 18 20 19
30 27 25 24 24 25 25 23 22 22 22 23 19 16 18 15 16 16 14 12 12 11 10 12 13 13 13 11 10 11 12 12 15 19 19 19 19 20 18 19 20 20 20
33 30 23 24 26 25 24 25 24 22 20 18 15 17 19 18 21 18 15 15 12 12 13 14 15 15 13 10 12 12 12 14 18 23 21 20 20 20 21 22 22 23 23
31 30 24 27 27 28 27 26 25 24 21 16 16 20 21 21 21 21 17 15 13 15 14 15 16 14 13 13 14 14 16 19 23 23 22 19 19 19 20 22 24 25 25
20 21 24 28 30 30 29 28 26 22 23 21 20 21 23 21 21 22 18 17 17 17 14 16 17 13 16 14 16 17 20 21 22 20 20 18 18 19 20 22 21 22 24
21 25 29 31 32 35 33 26 24 23 24 20 18 21 21 21 25 22 22 15 20 20 17 15 17 13 14 14 16 20 23 23 22 21 20 20 19 19 19 19 20 22 23
26 27 28 30 28 27 26 29 29 26 19 17 18 18 20 23 29 23 25 19 19 18 18 15 13 13 13 14 16 20 23 22 20 18 17 17 16 17 17 18 19 21 23
30 30 28 23 20 19 23 24 39 27 18 19 18 19 24 26 28 23 21 17 17 14 9 8 9 10 12 15 19 21 18 14 14 16 18 21 22 22 22 20 22 23 23
28 27 28 26 27 26 28 31 26 35 24 20 20 24 31 28 23 21 17 16 10 9 7 7 9 13 13 16 19 15 13 16 18 20 22 24 25 25 24 26 26 28 28
27 24 21 26 30 30 28 36 47 35 27 30 29 29 34 30 21 19 12 11 10 7 7 7 13 15 17 12 10 13 17 18 20 22 25 26 28 29 29 30 31 32 33
21 24 23 29 32 32 37 36 30 31 35 39 51 38 41 30 21 15 15 11 8 8 8 8 12 11 8 10 15 18 21 23 25 28 29 30 31 33 34 35 36 37 37
27 25 25 26 28 25 33 37 33 35 37 41 55 46 39 27 17 15 14 12 10 9 9 11 8 8 10 14 18 22 24 27 29 31 33 35 37 38 38 37 39 40 40
32 32 33 30 28 36 31 31 35 39 27 35 54 38 32 21 17 14 11 11 10 9 11 10 9 12 14 18 21 25 28 31 33 35 37 38 38 38 38 38 38 38 39
32 33 33 28 28 28 25 20 29 31 19 29 26 29 21 16 15 15 12 11 11 11 10 10 12 15 18 22 26 29 32 35 37 38 38 38 38 38 38 37 36 35 36
26 34 32 30 24 20 17 18 17 22 21 19 22 22 20 18 16 15 14 13 12 9 10 12 16 19 24 28 31 33 36 37 38 39 38 39 39 36 34 35 35 36 36
19 25 20 16 15 14 11 13 14 20 24 22 19 17 15 14 12 11 12 13 10 10 12 15 19 23 27 31 34 37 39 40 40 41 42 40 37 38 40 40 40 39 39
24 23 21 20 19 19 18 17 19 19 16 14 14 13 12 11 12 13 12 11 10 12 16 19 23 27 29 34 37 39 39 41 43 44 43 40 40 41 41 43 43 42 40
22 19 17 17 17 13 9 8 8 8 9 10 12 13 14 12 12 13 12 10 13 17 22 24 28 30 33 37 40 42 41 44 44 42 42 41 41 42 43 43 43 43 42
17 15 13 12 11 10 10 9 9 9 10 12 13 13 12 13 15 14 13 14 18 22 27 30 33 35 40 43 45 44 43 43 42 43 42 42 44 45 46 44 44 43 44
10 11 10 9 9 8 7 7 9 12 13 17 18 14 12 15 15 14 15 18 22 27 31 33 36 39 41 45 47 47 43 43 45 47 47 48 48 48 48 47 48 48 50
5 5 7 9 9 9 10 12 16 16 17 16 19 15 15 15 14 16 21 23 27 31 33 36 37 40 44 47 49 48 43 45 52 54 52 52 52 52 50 50 52 56 59
12 12 12 11 10 8 8 11 13 16 17 17 15 16 15 15 17 23 27 30 32 32 34 34 39 42 47 45 49 51 54 57 55 57 56 56 55 54 53 55 60 62 64
9 8 8 8 10 11 10 11 13 16 17 16 18 18 17 19 22 26 29 33 33 34 36 36 40 43 47 48 49 53 52 59 63 62 60 58 56 57 57 60 63 66 69
10 10 10 9 11 13 13 14 15 19 21 22 22 20 21 23 25 28 31 32 34 36 40 39 44 48 52 52 50 54 58 60 65 65 61 57 59 62 64 68 72 74 75
15 14 13 11 13 14 16 16 18 19 21 21 25 23 24 26 28 31 33 33 34 38 41 46 48 55 60 53 50 64 64 64 63 60 59 64 64 66 69 73 76 80 81
20 19 19 18 17 17 17 16 17 18 21 23 26 26 28 28 30 31 33 36 37 42 43 49 56 56 54 49 60 68 66 64 63 59 62 62 67 71 75 78 81 83 86

GFSSE_500_spd_033.txt.gz
Wind_Speed
35 33 30 29 29 27 27 27 25 25 24 23 23 20 21 19 14 13 13 11 11 11 11 12 11 10 7 7 8 8 9 10 11 12 15 16 15 17 18 18 17 17 17
37 35 32 30 27 26 28 29 29 28 26 24 21 18 19 18 16 15 14 12 12 13 12 13 12 11 9 8 8 8 9 8 11 14 17 17 16 17 16 17 18 18 18
40 35 29 28 30 27 29 29 29 28 24 22 17 16 18 18 18 17 18 15 15 14 12 13 12 13 11 11 10 9 10 11 14 16 17 17 15 15 16 18 18 19 19
44 31 30 28 27 29 29 30 30 27 23 20 15 19 20 22 21 20 18 15 15 13 13 14 14 14 13 12 11 10 13 15 16 19 17 17 16 15 16 17 18 19 18
28 26 31 31 32 29 29 30 30 27 24 19 20 22 24 23 21 20 19 16 16 15 15 15 15 15 12 12 12 13 14 18 20 19 19 17 17 17 17 18 18 19 20
26 29 30 26 22 22 30 32 30 28 24 22 21 23 24 24 22 22 19 20 18 17 16 16 15 14 10 12 11 14 16 19 21 18 17 16 15 14 14 15 16 17 20
27 22 18 21 25 28 30 30 30 28 28 23 20 21 21 22 23 21 19 20 23 19 16 13 14 10 9 10 11 15 18 20 17 16 14 14 15 17 18 19 19 19 20
18 20 24 27 23 22 22 22 23 29 37 30 23 20 19 20 21 20 22 23 19 15 14 10 8 8 9 9 13 16 19 18 15 17 19 19 21 22 21 21 22 23 24
14 22 24 26 24 23 24 21 23 28 28 31 26 21 20 23 27 24 22 20 18 14 9 7 9 8 9 12 14 17 14 14 17 19 20 23 24 24 25 25 26 27 28
14 21 20 24 26 28 28 31 30 32 34 31 27 22 28 30 32 29 26 18 13 12 10 9 9 10 12 14 14 12 13 16 19 21 24 25 28 29 29 31 33 34 35
19 21 23 24 25 24 25 31 33 39 35 52 33 28 27 38 29 29 23 15 14 12 10 8 8 9 11 12 11 13 16 19 22 25 29 31 32 33 34 35 35 35 36
24 28 23 25 27 29 26 35 41 39 30 30 25 30 35 35 38 27 19 16 13 12 10 8 8 9 11 11 13 16 20 23 26 28 32 33 35 36 37 37 39 41 41
28 25 27 28 25 21 28 26 37 34 29 30 36 39 45 37 30 24 16 14 12 10 9 8 12 11 11 13 16 20 24 27 30 33 35 36 37 38 39 39 40 40 40
31 30 29 32 31 30 23 24 29 38 38 41 21 35 39 29 23 17 18 12 11 10 10 11 11 12 14 17 21 25 28 31 32 31 35 37 38 39 39 40 38 36 37
30 30 26 25 29 30 28 37 34 37 30 21 30 26 29 23 17 16 13 12 10 10 12 12 12 13 16 20 24 27 30 33 35 34 38 39 40 40 41 40 41 41 39
28 25 22 24 26 28 30 31 31 25 18 19 24 27 21 19 16 14 13 14 13 13 12 13 13 17 20 23 27 30 35 38 39 39 40 39 39 41 41 43 44 44 44
27 29 31 31 26 24 17 14 11 12 14 20 21 19 17 16 13 11 10 12 12 13 14 14 17 21 25 28 31 35 38 40 39 41 42 41 40 43 44 45 46 46 47
17 15 15 15 15 15 13 14 14 15 16 14 14 12 12 10 8 12 13 13 13 15 16 17 22 25 28 29 32 36 39 37 40 42 42 42 44 43 44 45 46 48 47
12 11 11 11 12 10 8 9 8 6 6 8 10 10 10 9 10 12 13 14 15 16 19 22 26 29 30 31 34 37 39 40 41 40 43 46 47 49 47 46 48 49 47
11 9 8 7 7 5 3 3 4 4 5 8 10 12 9 9 13 16 15 17 17 20 23 26 30 33 32 32 36 39 40 41 43 43 46 48 48 50 51 49 48 46 47
6 6 5 4 4 5 6 7 8 10 11 13 15 15 12 13 15 16 17 18 22 25 28 31 36 35 30 33 39 44 48 46 41 43 52 54 55 55 52 49 48 51 51
5 5 5 4 3 5 6 7 9 11 13 15 15 14 17 18 17 17 18 23 26 31 35 37 39 38 36 36 39 45 52 54 54 52 56 62 61 59 56 52 51 49 52
7 6 5 5 5 6 8 9 9 11 12 14 16 17 18 18 19 20 22 27 28 33 37 38 37 37 39 39 45 52 56 56 58 64 64 69 66 61 57 56 58 58 61
9 8 8 8 9 9 9 11 11 12 14 17 18 20 20 23 25 25 27 30 31 34 34 34 37 39 43 46 47 54 62 56 55 58 74 75 70 62 59 58 58 61 68
12 13 13 13 13 13 13 14 15 15 17 18 22 24 25 28 29 32 32 32 33 36 38 38 39 41 43 44 54 60 60 55 56 64 73 68 70 67 63 59 63 67 72
18 18 18 18 19 18 18 17 18 18 17 16 18 22 28 32 35 38 36 33 36 41 41 47 38 42 49 45 53 56 55 54 73 76 77 68 65 65 64 65 69 74 78

GFSSE_500_spd_036.txt.gz
Wind_Speed
39 42 38 36 34 32 30 28 27 26 26 26 25 24 23 22 20 19 15 15 13 12 12 12 12 12 12 9 8 7 9 9 9 10 11 13 13 12 12 12 12 14 15
34 41 36 33 32 31 30 29 28 28 28 28 27 26 25 23 21 19 18 16 16 13 12 13 13 11 11 10 9 7 9 10 9 10 12 13 13 12 13 13 15 14 15
32 35 39 38 37 31 29 28 29 29 30 29 25 25 22 19 18 17 19 17 15 15 14 12 12 11 12 10 10 11 11 10 10 13 13 13 13 13 13 14 14 15 15
35 39 39 37 36 31 31 30 30 31 30 28 24 20 18 18 19 19 21 20 16 13 13 12 12 13 11 12 13 13 11 12 13 12 13 14 14 14 15 15 16 17 17
33 35 35 36 33 32 32 32 32 31 29 26 24 19 23 21 23 21 23 19 16 14 14 14 13 12 13 14 14 13 11 11 13 15 14 15 16 15 15 15 17 17 18
29 34 38 42 37 33 32 30 31 30 27 25 20 23 25 25 26 24 22 18 16 14 16 15 13 13 15 15 12 9 10 12 15 16 14 13 14 15 17 17 18 19 19
20 31 32 29 35 31 31 28 27 27 26 27 24 25 22 24 23 23 19 17 15 15 16 16 14 14 13 11 8 8 11 12 11 11 12 14 16 17 18 20 21 21 21
36 30 33 29 25 20 17 21 23 25 23 23 24 30 22 24 24 22 16 15 14 14 13 13 15 14 9 6 6 10 12 14 9 13 13 15 18 19 21 22 23 24 24
23 35 34 24 16 13 16 21 20 22 24 23 30 26 30 30 27 23 20 19 13 11 11 12 11 9 6 5 7 10 12 10 12 11 17 19 20 21 22 23 24 26 28
6 12 28 20 18 19 22 22 25 25 25 26 33 30 30 31 31 28 23 22 20 14 12 11 9 7 6 5 8 10 9 11 14 19 20 21 21 23 25 26 27 28 29
17 10 10 11 19 21 21 23 22 35 35 32 32 31 33 26 24 27 29 27 21 16 13 10 8 6 4 6 8 8 10 14 17 19 20 21 24 25 27 29 29 31 33
19 19 14 13 16 16 22 25 21 29 30 38 36 41 35 37 28 34 31 29 20 17 14 9 6 5 4 6 7 9 13 17 19 20 22 23 26 28 31 33 36 37 37
22 20 22 17 19 21 18 24 27 32 32 39 19 23 23 28 36 36 30 25 20 16 12 8 8 6 7 7 10 13 16 18 21 23 25 27 32 35 36 36 36 37 37
22 23 25 27 28 26 19 23 27 30 25 25 30 26 34 41 37 33 26 23 22 14 11 11 9 8 9 10 13 15 18 21 26 30 30 31 31 33 35 36 36 37 39
24 25 26 24 23 21 19 24 27 24 28 32 28 26 28 26 22 22 26 18 15 13 11 10 11 10 10 12 15 18 22 27 27 29 30 31 33 33 35 36 37 38 39
24 25 25 23 21 17 20 26 27 24 26 21 25 24 16 16 19 22 17 14 13 11 11 12 11 11 12 15 18 21 24 28 30 28 32 33 33 34 35 37 38 39 41
19 21 20 19 20 26 26 31 27 23 28 26 13 8 16 21 21 13 11 11 10 11 12 11 12 14 17 18 20 22 27 29 30 33 32 34 34 35 37 39 41 42 43
19 20 20 21 25 20 14 10 11 5 8 12 13 18 19 15 12 10 10 10 11 12 11 12 14 18 20 22 23 25 27 29 31 33 39 39 39 39 41 42 46 46 46
12 16 17 13 12 14 12 12 13 13 13 15 16 13 10 9 8 7 10 12 12 12 13 15 18 22 24 25 27 24 28 33 36 38 43 44 45 46 47 48 55 54 49
11 9 10 7 6 8 7 9 9 7 9 10 11 9 7 7 7 10 13 14 12 14 16 20 23 26 28 33 33 27 30 33 40 43 46 47 47 48 51 56 58 58 53
5 4 3 3 2 2 5 5 5 4 2 1 1 4 9 11 10 10 12 13 16 19 21 25 28 32 35 36 37 35 37 37 40 46 49 53 49 50 51 64 67 63 57
0 1 2 3 4 2 2 4 5 4 5 6 6 11 13 10 13 12 15 19 20 21 24 28 31 35 38 38 40 37 41 42 46 49 51 51 48 52 58 67 69 62 56
2 1 1 2 4 5 5 5 5 5 6 7 7 10 13 15 15 18 21 21 23 27 29 31 34 35 34 36 37 38 42 47 49 51 58 60 57 53 64 72 73 64 56
3 4 5 7 7 8 10 10 9 8 9 10 10 12 13 15 17 20 25 26 30 32 37 35 36 36 36 41 36 41 44 49 52 58 61 62 60 58 72 73 68 61 58
8 9 9 10 11 11 12 13 12 12 12 13 14 16 16 19 21 25 26 30 38 40 39 42 42 32 38 42 47 52 47 51 51 58 57 59 62 67 83 77 68 63 62
10 13 13 14 15 14 14 14 14 15 13 12 13 15 16 18 24 27 25 32 34 39 38 44 42 35 41 44 45 50 57 53 55 66 64 64 73 76 78 74 71 70 70

GFSSE_500_spd_039.txt.gz
Wind_Speed
48 42 50 42 23 28 31 34 31 29 27 26 26 26 26 26 25 24 24 20 16 17 16 17 16 15 14 14 13 13 11 10 9 9 9 11 13 14 13 13 11 12 13
30 35 43 35 25 33 36 36 32 32 30 28 28 28 27 26 26 25 24 20 17 17 17 16 14 14 13 15 14 12 12 11 11 9 10 11 11 11 12 12 12 12 13
39 19 27 29 30 36 40 36 33 32 31 29 28 28 27 27 24 24 20 19 19 16 16 15 12 13 13 13 13 12 11 12 11 11 11 10 11 10 10 10 11 11 13
49 42 20 31 33 37 35 33 34 31 31 30 30 28 24 24 21 18 19 21 19 19 16 13 12 12 13 13 12 12 11 10 10 9 9 7 8 8 9 9 11 12 13
56 56 51 31 36 30 39 37 34 32 33 33 29 27 24 23 21 22 21 22 22 19 15 13 15 13 14 13 13 12 12 7 7 7 7 8 7 8 10 11 12 13 14
64 50 44 47 40 44 41 38 36 35 34 35 31 24 18 21 23 23 26 23 23 18 15 17 17 15 14 13 13 7 8 4 6 8 8 9 10 11 12 13 14 15 16
28 28 35 43 46 46 47 49 43 37 39 34 28 25 22 21 22 22 24 24 22 19 16 15 14 15 13 13 11 4 3 5 8 6 7 9 11 12 14 15 16 17 17
32 33 28 42 46 45 45 36 38 38 35 30 25 25 26 21 23 20 22 21 19 19 18 14 12 14 13 12 7 4 3 5 3 7 9 11 13 13 14 15 15 17 17
26 32 38 38 49 42 34 32 31 19 20 25 27 24 22 26 24 27 25 21 19 13 13 13 12 12 11 8 4 2 1 2 6 7 11 12 13 14 16 18 19 20 21
21 27 28 38 31 33 22 24 16 16 20 23 24 29 25 23 22 24 27 21 20 18 17 15 12 11 9 6 4 1 3 0 4 9 12 14 16 18 18 20 22 22 22
18 16 2 36 27 22 22 23 28 23 20 24 24 25 27 25 27 32 22 21 24 24 22 15 13 11 9 8 4 3 3 5 9 11 12 15 18 21 22 21 22 24 26
16 13 11 9 14 17 33 26 17 23 22 25 19 23 34 36 29 30 31 26 27 25 25 21 14 12 10 7 6 5 5 7 10 11 14 17 20 21 22 24 27 28 29
14 8 5 8 11 4 11 14 20 18 17 18 24 27 13 22 21 23 23 31 24 20 20 17 15 14 10 9 8 5 8 10 9 12 17 18 20 21 23 25 26 27 28
14 13 12 15 10 13 16 19 14 20 15 19 27 17 24 15 16 20 29 24 19 20 21 17 16 13 10 7 8 9 9 10 12 15 17 19 21 24 25 26 26 27 28
14 14 16 17 16 16 14 14 18 19 20 22 22 20 19 16 17 18 17 19 22 24 19 16 15 13 10 10 10 11 11 12 15 18 19 21 23 24 26 28 29 31 32
16 16 19 18 19 17 16 18 21 22 25 24 20 19 17 18 10 12 11 17 24 18 16 16 15 12 10 10 13 13 13 14 15 18 21 22 24 26 29 31 32 34 36
16 16 17 13 16 15 14 17 19 23 21 27 21 19 12 12 14 13 21 20 14 14 16 15 13 12 12 12 15 14 17 20 17 18 21 24 27 31 33 36 37 38 38
10 12 12 11 15 15 15 13 20 24 22 17 22 15 11 13 22 19 15 11 13 15 15 14 14 13 14 16 18 19 19 22 25 26 28 30 35 38 40 42 42 42 43
16 13 10 10 6 5 8 8 12 19 14 13 15 19 22 20 18 16 11 14 16 17 16 16 16 16 19 19 21 24 25 25 29 33 35 38 41 39 39 41 43 47 48
16 15 14 15 14 13 14 12 14 16 14 10 14 13 14 15 13 10 13 16 16 16 18 18 19 18 22 24 27 27 29 30 32 32 36 40 45 44 44 48 51 50 49
11 9 8 8 8 7 11 10 9 12 9 9 11 11 12 12 11 12 14 17 18 20 20 19 21 23 26 26 28 29 25 28 30 32 39 43 48 47 49 51 54 51 49
6 6 6 7 8 9 5 6 7 8 5 2 3 3 6 7 7 8 12 18 20 20 20 23 26 28 30 30 30 29 32 32 30 39 44 47 51 50 56 54 52 51 56
5 6 8 10 10 9 8 7 6 3 2 1 4 4 7 6 8 10 12 16 19 20 24 26 30 33 37 37 34 30 31 32 36 41 46 52 57 58 54 59 57 59 65
3 3 4 5 5 3 3 4 4 4 3 4 6 6 7 7 8 11 14 15 19 24 30 34 37 39 40 42 42 43 41 40 40 42 45 54 52 52 55 61 64 65 69
1 2 3 1 2 2 3 3 3 4 5 7 10 11 11 10 12 14 16 19 20 22 29 31 34 41 35 38 36 35 40 43 42 43 49 54 55 55 62 65 72 67 63
4 5 6 6 6 7 7 7 7 9 8 9 10 13 16 14 12 14 13 15 17 23 27 29 28 28 28 32 33 40 43 47 48 48 53 53 54 60 65 70 69 66 67

GFSSE_500_spd_042.txt.gz
Wind_Speed
42 47 44 44 48 27 31 24 32 25 27 25 26 30 27 26 25 25 24 25 24 23 21 20 19 20 18 16 15 15 17 15 12 12 10 10 11 9 7 8 8 8 8
39 48 47 54 56 48 41 28 22 23 27 30 33 32 30 29 27 26 25 24 24 22 20 19 19 20 17 15 14 15 16 14 12 10 10 11 9 6 5 4 4 5 6
43 46 52 34 35 41 35 32 26 30 33 30 30 30 30 29 27 24 24 23 25 24 24 22 21 17 15 13 15 17 14 13 11 11 11 8 6 4 4 4 5 5 6
42 47 52 33 27 31 34 33 34 36 32 31 30 29 31 30 28 25 20 20 21 23 22 20 19 13 14 14 15 15 13 12 11 9 7 5 6 4 3 4 5 6 8
41 40 48 41 39 31 35 35 42 35 31 33 31 32 31 29 26 24 21 20 21 22 24 22 18 14 13 13 13 13 13 13 9 5 4 4 4 4 5 6 7 8 9
36 43 38 46 47 32 38 50 54 36 35 35 33 32 30 26 21 22 23 24 23 23 23 22 19 17 13 14 14 13 12 9 5 4 3 2 3 6 8 10 10 10 10
39 39 42 36 33 48 40 44 34 39 40 37 35 33 30 24 26 20 22 21 23 23 22 22 21 16 16 16 15 13 11 8 5 4 3 3 4 6 8 9 11 13 14
42 37 40 46 34 41 32 45 35 38 38 40 39 34 29 25 24 25 24 21 19 20 22 24 20 19 16 13 15 12 10 5 6 6 3 4 6 7 9 11 12 14 15
25 24 30 35 53 28 42 42 54 45 42 41 42 36 26 26 26 26 22 25 27 24 21 23 21 19 15 13 15 11 8 9 8 4 3 5 6 8 10 12 13 13 14
16 21 23 33 42 36 35 56 51 41 49 48 40 30 25 25 24 25 20 20 26 25 22 16 18 16 14 18 15 11 9 9 6 4 5 5 8 10 11 11 11 12 13
16 19 14 20 37 27 42 38 37 38 45 38 26 21 23 21 22 20 21 24 31 26 21 23 19 17 18 18 16 11 11 8 6 5 5 8 10 11 11 11 13 15 15
17 16 16 18 39 46 28 26 35 29 20 16 20 20 20 17 22 32 25 27 17 23 24 28 23 20 18 17 15 14 11 8 7 7 8 10 11 11 12 13 15 16 18
18 12 7 19 14 21 17 17 20 20 21 20 24 13 15 7 12 21 22 16 15 22 16 18 23 19 18 17 15 12 9 8 9 9 9 10 11 11 13 15 17 20 23
18 9 7 8 3 2 1 5 11 16 23 14 23 12 16 13 11 15 15 20 17 17 15 21 22 20 17 15 13 12 9 10 11 10 11 10 11 12 15 17 19 22 25
14 11 8 7 6 5 9 9 12 17 21 17 10 15 18 18 17 16 13 17 19 15 18 22 22 20 19 16 11 10 10 11 14 11 11 12 13 13 16 20 21 25 28
13 14 12 9 12 13 11 13 13 17 18 18 19 21 20 20 19 19 16 16 18 15 21 24 21 20 18 16 14 12 11 15 17 15 14 14 16 16 20 23 22 24 29
13 13 14 13 16 13 11 11 14 16 21 24 19 21 20 19 23 18 15 18 16 21 24 19 20 18 18 16 18 16 15 15 18 19 20 22 24 26 27 30 29 30 35
12 17 17 16 18 12 13 14 18 19 22 21 25 24 17 18 21 18 16 17 24 23 19 19 19 20 19 19 18 18 19 19 21 23 25 26 29 30 31 34 38 40 42
13 11 11 11 10 14 16 19 19 15 19 21 18 20 16 19 19 19 21 22 19 18 18 18 22 21 20 20 20 22 23 24 26 26 26 27 28 31 35 40 40 42 47
17 18 19 19 16 14 13 9 10 12 11 9 10 14 17 19 19 17 16 17 18 19 19 21 21 21 21 21 23 23 24 25 25 28 29 29 31 37 40 41 42 48 48
11 13 13 13 12 12 13 13 11 9 8 9 9 8 11 16 15 15 17 21 21 20 21 20 20 21 23 24 24 25 26 27 28 31 32 30 34 39 42 44 46 50 50
7 8 10 11 10 9 11 11 11 8 7 10 11 10 13 12 16 19 20 17 18 19 19 18 21 26 27 27 27 31 33 32 32 31 32 35 39 40 43 42 48 50 51
10 11 10 11 13 12 11 12 11 8 7 8 6 8 7 13 17 16 16 17 19 20 20 23 26 28 28 31 34 37 37 38 36 37 37 40 43 43 44 45 47 50 51
9 10 9 9 10 9 9 8 8 8 7 6 3 3 6 8 13 14 16 19 20 19 20 23 24 26 30 31 33 36 34 30 30 33 37 40 42 45 51 55 56 55 56
2 4 5 5 4 4 4 4 5 6 4 3 3 5 8 10 12 17 19 22 21 18 19 20 23 22 25 26 25 31 33 36 35 38 40 44 46 49 51 50 53 56 57
1 3 2 2 2 3 4 4 3 4 5 8 9 8 10 10 12 16 19 21 19 21 20 19 26 31 26 25 27 32 35 36 37 39 41 43 45 49 51 53 55 58 59

GFSSE_500_spd_045.txt.gz
Wind_Speed
31 29 34 33 40 41 27 34 31 32 24 22 18 19 19 21 21 25 26 25 25 23 23 20 18 16 18 18 16 15 13 13 15 12 12 9 10 10 7 7 5 5 5
34 31 35 34 38 42 42 25 26 26 27 23 20 19 22 25 22 21 26 26 25 22 21 20 19 18 18 18 16 14 15 13 15 13 10 11 9 9 7 6 5 5 7
36 36 37 35 42 45 44 42 34 27 24 19 22 21 23 22 22 25 27 26 26 24 22 24 22 20 18 18 15 15 16 15 14 15 11 10 4 4 5 6 4 4 4
28 32 31 34 40 43 28 39 41 44 28 21 21 20 23 23 26 27 26 25 23 22 22 22 23 21 18 16 15 17 16 16 13 14 9 6 4 5 5 4 4 4 4
28 31 31 33 37 40 45 33 38 44 39 24 25 21 28 25 26 25 25 24 24 21 20 21 24 23 20 19 18 18 15 15 13 12 7 6 6 5 4 4 4 4 5
32 33 32 35 36 38 38 38 36 35 41 28 28 27 30 27 25 25 25 25 23 21 21 25 23 23 21 20 17 15 16 15 13 9 8 8 6 5 4 3 4 5 7
33 33 33 30 31 37 39 40 35 32 33 31 29 31 30 27 26 26 22 22 20 20 21 23 22 22 21 22 19 18 16 13 10 9 9 8 5 5 4 5 5 7 8
33 35 35 37 35 39 34 34 39 29 46 36 31 33 31 30 27 27 27 23 23 22 21 21 22 22 23 22 19 19 14 14 12 11 10 7 5 5 6 7 8 9 9
23 28 34 35 38 29 26 37 40 35 45 45 39 35 32 30 29 28 27 24 22 23 21 23 22 24 26 23 20 16 16 15 14 12 9 7 6 7 8 9 9 9 8
20 21 21 24 29 30 34 39 39 43 40 44 38 34 31 30 30 30 29 25 26 18 21 23 21 28 27 24 16 18 19 18 15 12 10 7 8 9 9 7 6 6 8
21 19 21 23 24 26 28 31 40 47 36 32 36 35 32 28 31 29 25 21 21 18 21 18 20 24 24 20 17 20 19 16 14 13 9 8 9 9 8 6 7 7 9
12 10 16 22 22 23 27 26 41 37 38 40 34 31 30 30 31 24 27 27 21 21 20 16 20 24 24 19 22 21 17 16 16 13 10 10 10 9 8 9 9 10 12
10 13 10 13 15 17 30 31 37 31 32 31 34 34 28 30 26 28 26 25 25 23 19 19 18 22 24 21 23 23 19 16 15 14 12 10 10 10 10 10 10 11 12
10 10 6 10 10 16 25 25 18 25 30 21 21 23 21 21 23 18 17 17 19 19 21 17 18 22 26 27 26 21 18 16 13 15 15 13 11 11 10 10 12 14 14
8 9 8 9 13 17 16 16 16 19 26 26 22 25 23 22 26 22 17 17 24 22 20 19 21 27 27 26 22 16 15 16 15 17 16 16 14 14 14 13 13 16 17
9 12 11 8 7 9 11 7 12 15 19 28 22 24 27 23 24 25 19 20 24 21 19 18 22 29 27 27 20 18 15 15 16 17 20 19 19 20 20 22 23 24 26
10 11 14 12 14 15 15 17 17 19 16 25 28 29 24 20 26 23 22 23 26 21 18 22 27 28 25 23 19 19 14 17 20 19 21 24 25 29 29 27 26 27 32
13 17 16 16 16 17 20 18 16 25 21 23 28 26 25 25 24 26 26 28 26 18 21 26 27 26 23 21 22 18 19 18 21 24 25 27 29 31 32 31 31 33 36
7 13 19 20 19 20 25 20 21 22 20 22 23 25 26 30 25 23 27 24 20 20 26 23 24 24 24 24 21 19 20 21 24 27 30 28 28 29 32 34 34 36 38
10 9 12 19 22 23 26 23 23 24 20 21 23 25 29 23 24 24 21 16 20 22 21 21 23 25 24 21 21 21 22 23 26 28 30 31 31 33 34 35 38 40 40
9 13 12 13 13 19 19 18 17 16 14 10 11 15 12 15 19 20 18 18 19 20 22 24 26 23 23 24 23 24 25 28 29 30 32 34 35 35 33 38 39 41 42
4 7 10 8 10 12 13 15 15 15 15 14 12 11 14 16 18 18 18 19 19 21 23 24 26 28 25 25 26 28 29 31 33 35 34 35 37 37 41 41 42 42 46
5 5 7 8 8 11 13 12 11 8 10 11 11 9 14 14 17 19 18 15 19 23 24 28 29 26 28 29 30 31 32 33 32 31 31 30 32 34 38 38 40 44 48
6 5 7 8 6 7 8 11 13 14 14 12 12 13 15 16 16 19 19 20 25 24 29 30 27 26 29 30 29 31 33 35 32 31 34 35 33 35 37 38 43 47 51
7 7 6 5 6 6 5 6 9 10 12 12 10 10 10 12 11 16 18 21 25 26 29 26 27 28 31 30 28 29 30 30 30 31 33 35 38 39 39 42 47 52 54
6 5 5 6 7 8 7 8 10 11 11 12 11 11 9 10 9 14 17 22 24 28 28 28 26 29 30 35 35 34 33 32 33 34 37 38 38 39 43 47 51 52 52

GFSSE_500_spd_048.txt.gz
Wind_Speed
37 33 35 37 36 29 30 34 23 27 37 37 24 20 19 15 11 11 14 15 16 14 17 17 18 19 18 20 21 20 21 19 17 17 18 18 15 15 12 10 8 7 6
38 37 32 33 25 28 32 33 33 23 36 36 31 26 20 15 12 12 14 15 16 16 15 19 18 22 22 23 21 20 18 17 17 17 17 16 15 13 9 6 6 5 5
38 37 32 32 28 30 30 33 38 22 35 30 30 26 21 15 12 12 14 16 16 19 16 20 20 20 22 23 22 19 17 17 19 19 18 15 11 9 6 5 5 5 5
36 35 32 31 25 29 31 35 34 36 26 31 28 25 20 17 14 13 14 15 16 16 17 20 22 21 22 23 22 18 18 19 19 17 17 13 8 6 7 5 6 6 5
31 23 23 23 23 25 33 34 35 33 27 34 28 25 23 15 14 14 14 16 15 16 18 21 22 23 23 22 22 21 20 18 18 17 15 12 9 7 7 5 5 4 4
28 26 24 26 24 26 33 29 37 33 35 39 29 29 19 18 18 16 16 16 15 16 19 22 24 26 25 21 20 20 20 18 18 16 13 10 9 8 7 6 5 5 5
26 30 29 27 26 27 19 26 39 37 36 38 38 26 21 17 18 20 18 14 13 17 19 19 22 21 22 22 20 20 19 18 17 15 13 11 10 9 7 6 6 6 7
28 28 33 33 32 33 33 24 24 37 36 37 31 24 24 21 22 20 18 15 16 19 22 24 23 23 22 23 21 21 21 17 17 15 12 12 11 8 7 7 8 8 8
23 24 30 29 30 31 32 28 32 28 34 37 38 28 26 23 23 20 18 18 18 22 22 22 23 23 22 23 22 22 19 17 16 15 14 13 11 9 7 7 10 8 7
28 27 20 21 22 29 32 29 21 32 30 36 35 29 28 25 24 20 19 21 21 24 24 23 21 24 21 23 25 21 19 19 17 17 14 12 11 10 8 9 8 7 7
23 23 20 23 25 23 21 14 13 34 31 30 36 31 30 28 25 21 21 23 24 23 26 21 21 17 22 24 27 25 21 20 19 17 14 13 12 11 10 11 9 8 8
11 14 14 15 18 14 13 11 12 36 31 30 37 33 35 31 27 22 22 24 25 24 23 24 23 20 20 22 22 22 22 20 20 17 15 13 13 12 12 12 10 9 9
9 9 9 9 13 19 19 23 23 29 31 36 35 32 36 33 28 21 23 28 24 27 27 23 24 21 22 23 26 22 23 21 20 15 14 14 14 14 13 13 13 11 10
8 6 5 5 7 11 15 26 23 28 41 41 35 34 37 31 22 20 24 25 27 28 26 24 23 23 22 23 22 23 24 22 17 15 14 15 15 15 13 14 14 14 11
8 6 6 4 8 9 13 12 29 29 32 38 25 29 31 30 20 23 25 24 24 25 27 23 24 22 23 24 25 25 22 19 15 13 16 16 16 16 16 18 18 18 18
9 8 7 7 16 18 15 19 29 30 30 26 24 25 23 27 23 23 24 28 23 28 28 23 21 23 27 28 28 25 21 15 14 18 16 16 17 21 22 24 25 26 29
11 11 10 9 14 17 18 16 21 24 30 31 30 27 28 29 25 22 23 28 26 29 29 28 21 27 34 31 28 23 25 21 21 19 16 21 24 24 26 28 30 31 31
15 14 13 10 11 10 12 17 17 19 26 34 33 29 25 26 24 22 25 29 31 28 29 26 20 30 32 27 27 29 23 24 18 22 24 24 26 28 29 30 32 31 31
4 16 23 16 13 15 16 21 20 21 29 28 23 31 26 23 27 25 28 33 31 29 26 21 27 30 27 28 27 24 25 21 23 22 25 27 29 31 32 33 33 33 32
8 14 24 23 21 14 18 19 18 22 27 23 26 27 26 28 28 29 29 28 27 26 23 25 27 30 29 28 25 26 26 24 24 27 25 28 31 33 33 35 35 36 35
6 6 8 17 24 28 26 25 25 24 24 23 26 25 29 30 30 26 26 23 22 22 23 23 23 27 29 28 30 29 26 26 27 30 29 32 35 35 35 37 37 38 40
1 2 4 6 5 13 22 30 30 28 29 30 26 30 32 30 29 25 21 21 21 21 23 23 26 29 30 32 31 30 28 28 31 32 34 37 36 32 31 32 35 36 37
4 3 4 5 6 9 13 11 12 17 20 19 16 15 16 19 21 22 23 24 23 23 23 26 28 29 31 31 30 30 29 31 34 38 38 37 37 35 35 36 35 36 37
3 4 6 6 7 8 11 12 14 15 16 16 13 12 13 14 17 18 18 20 22 25 26 27 29 28 29 31 31 32 33 35 34 32 31 31 32 33 34 36 38 38 40
5 5 5 6 7 6 6 8 10 12 12 10 9 10 11 15 16 18 20 23 22 23 25 25 28 30 33 34 34 34 36 34 32 35 31 32 34 36 36 38 38 39 43
9 8 7 5 5 4 4 6 7 8 10 11 13 13 14 14 15 18 19 21 26 24 27 28 31 32 32 35 37 39 39 38 35 34 34 35 36 35 37 37 39 42 46

GFSSE_500_spd_051.txt.gz
Wind_Speed
38 37 38 36 30 23 35 30 36 36 28 27 24 29 30 26 22 18 12 10 8 8 8 9 12 12 12 14 16 19 20 21 22 19 19 18 20 19 18 15 11 10 9
35 40 41 37 37 28 34 29 23 35 28 26 29 33 29 25 21 16 13 9 7 6 8 10 11 12 13 16 15 18 18 20 19 17 18 18 18 17 16 12 9 8 7
29 31 39 44 29 34 27 17 25 30 27 25 35 30 31 25 24 19 11 8 6 5 9 10 11 12 14 15 17 19 17 16 16 17 18 17 16 15 12 9 8 7 6
24 31 31 38 36 36 30 19 21 21 29 22 36 36 29 26 21 16 13 9 8 8 8 8 11 13 15 16 16 16 17 16 17 17 15 14 14 10 9 9 8 8 8
27 29 31 28 35 36 35 22 22 21 23 22 38 31 28 27 22 17 14 12 10 7 7 10 11 14 16 16 18 18 18 17 19 16 14 13 12 10 10 9 9 7 8
25 29 28 27 27 21 18 20 23 24 25 27 32 34 33 28 21 21 17 11 10 9 9 10 11 14 18 18 19 18 18 19 17 15 14 12 10 10 11 10 9 7 7
25 28 23 25 24 15 16 17 27 32 27 30 33 39 36 29 25 20 17 14 11 10 10 12 12 14 15 16 18 18 19 19 17 15 14 12 12 12 10 10 8 8 8
30 28 28 27 26 27 24 22 22 21 24 29 31 39 37 30 27 22 19 13 12 14 13 13 16 18 18 20 20 19 20 21 18 16 15 14 13 13 11 10 9 8 8
29 28 29 33 31 25 27 25 29 31 20 23 36 41 37 31 26 24 18 14 15 15 14 15 15 15 15 18 20 20 20 21 18 17 15 14 13 11 11 10 9 9 7
19 26 26 36 18 18 25 25 28 25 28 27 31 46 38 33 25 24 18 17 15 15 16 18 17 19 20 18 17 20 22 19 17 17 15 15 13 12 12 10 10 8 7
20 24 29 22 13 17 21 22 28 26 23 27 35 44 38 27 27 24 18 17 16 16 17 19 21 17 18 17 19 20 20 22 19 17 16 15 14 14 12 11 10 9 8
9 15 24 24 21 25 26 30 30 25 26 31 38 41 37 29 30 25 19 17 17 17 22 21 20 19 22 20 22 23 25 24 18 19 16 16 15 15 13 12 12 10 10
7 11 16 18 18 20 25 28 27 27 35 39 34 44 40 30 31 26 20 22 21 21 19 25 22 23 25 21 19 21 22 20 20 20 21 17 16 16 14 14 14 13 14
7 6 9 7 7 15 24 26 22 19 37 40 33 38 38 29 37 27 25 23 22 23 23 25 28 28 24 20 22 26 26 25 22 22 20 19 16 15 15 15 15 16 15
8 7 7 7 7 13 17 29 24 22 37 37 33 34 43 37 38 31 25 25 20 19 21 26 28 28 24 22 25 31 27 22 23 21 20 20 17 15 16 17 17 17 18
9 8 10 6 10 1 18 20 25 34 27 35 36 32 42 33 34 34 26 26 22 20 23 25 26 27 23 24 24 26 27 24 25 21 18 17 18 20 20 18 18 22 25
11 13 13 7 15 14 13 23 26 28 31 36 33 30 24 29 34 28 27 25 23 22 24 25 27 27 24 26 28 30 23 25 22 20 21 23 22 20 20 23 25 26 27
9 13 14 13 11 8 10 15 24 25 25 33 34 24 26 28 31 32 28 23 21 24 29 28 26 29 29 29 29 29 28 26 24 23 24 25 25 22 24 25 27 28 30
10 10 13 12 7 14 8 9 11 19 30 28 33 28 26 28 31 31 28 22 23 28 30 29 28 30 30 32 35 30 29 27 27 28 28 26 24 26 29 30 29 30 32
13 6 17 20 12 9 9 13 17 14 17 29 29 28 27 27 27 28 28 28 29 28 31 30 30 30 32 32 32 29 31 35 30 28 27 26 26 29 32 33 35 37 36
7 8 9 18 16 20 11 11 10 13 15 20 27 26 25 23 24 27 29 29 28 30 29 28 28 31 33 31 32 37 36 30 29 29 30 29 31 33 34 38 36 32 31
3 4 1 4 16 21 17 20 18 16 18 19 27 23 26 27 27 28 30 28 27 28 27 27 27 29 33 31 31 33 29 27 31 32 33 35 36 37 39 40 37 36 38
4 1 4 2 1 9 18 23 23 23 24 24 28 26 27 32 28 30 32 26 26 24 24 25 26 29 29 29 33 30 31 33 34 36 36 37 38 40 40 36 34 35 37
3 1 2 2 2 2 6 8 9 9 11 20 23 20 21 24 24 25 21 20 23 20 21 24 27 29 27 28 29 33 37 37 38 38 38 39 38 35 36 34 36 38 39
3 3 2 2 3 4 6 7 8 9 11 14 14 13 15 14 14 15 17 19 19 19 22 25 28 29 29 31 32 36 36 37 39 41 39 39 38 39 36 36 37 40 41
7 7 8 7 6 7 8 10 9 9 11 13 16 17 17 16 17 19 21 21 21 23 25 28 31 31 28 32 32 33 37 40 39 40 42 41 43 37 38 37 38 40 42

GFSSE_500_spd_054.txt.gz
Wind_Speed
26 29 33 36 39 38 38 32 36 29 34 30 27 28 25 28 39 36 27 23 17 11 8 6 5 4 5 7 9 9 10 12 13 13 12 13 13 15 15 14 13 11 11
20 24 29 35 38 38 35 31 48 36 34 34 31 27 29 28 38 29 25 22 20 16 12 6 3 4 6 8 10 10 12 13 12 12 12 12 14 13 11 11 10 8 9
17 15 21 29 38 38 35 36 20 43 34 31 33 24 27 30 30 32 24 20 17 14 8 7 6 6 6 9 11 12 13 12 12 13 14 14 11 11 10 8 8 8 8
22 19 20 24 27 36 34 38 28 23 22 24 33 26 33 37 37 32 26 19 16 12 11 11 9 5 7 10 11 11 12 13 13 14 14 11 9 9 8 9 8 8 9
27 28 26 25 27 25 35 36 33 22 20 17 28 26 41 38 36 29 26 24 17 15 14 11 7 7 9 8 10 12 14 15 14 16 13 11 9 9 9 10 10 10 9
28 27 29 26 23 27 30 29 25 19 21 18 24 35 38 37 33 28 25 20 21 18 14 11 9 9 9 9 10 12 14 15 15 15 14 11 10 11 11 11 9 8 9
30 28 28 26 28 25 23 25 20 22 24 26 22 29 39 36 31 28 27 25 21 16 14 13 9 10 9 10 12 13 14 16 14 14 13 12 11 12 13 11 10 10 9
28 31 26 27 28 23 27 24 20 21 21 24 23 27 27 34 32 33 29 23 19 18 18 13 9 11 12 11 16 14 14 15 14 15 13 13 13 14 13 12 12 10 9
31 31 31 32 29 27 29 26 26 25 23 22 27 29 31 40 35 34 27 23 22 20 20 12 11 11 10 12 15 14 14 13 14 15 15 16 16 15 14 14 13 11 10
25 28 34 34 34 32 34 34 26 24 26 22 23 27 31 43 37 34 28 25 24 21 17 13 12 13 12 16 17 13 12 14 17 17 16 17 17 16 16 15 15 12 10
20 21 23 31 39 26 35 31 28 26 26 22 26 27 39 47 41 38 27 27 24 21 17 14 13 13 13 14 16 15 14 17 18 19 20 20 18 18 18 16 14 12 11
15 16 18 20 19 17 22 29 25 29 35 26 27 32 36 48 40 38 31 28 24 22 17 15 15 13 15 18 19 18 16 16 21 24 24 20 19 19 18 17 14 13 13
9 12 12 21 23 27 30 31 28 35 32 28 31 32 46 50 43 36 30 28 24 22 19 15 16 18 20 21 20 18 18 19 21 25 20 21 18 18 17 17 15 15 15
8 9 9 14 16 20 17 27 27 32 35 33 31 34 39 50 40 37 34 28 26 26 22 19 17 20 24 22 20 21 19 21 21 21 22 21 22 20 18 17 16 16 16
9 9 11 11 15 15 21 28 33 34 32 32 31 43 43 42 47 37 37 29 26 29 24 21 23 23 25 26 26 24 22 24 22 22 22 21 22 19 17 15 17 15 18
9 10 13 14 14 12 22 29 31 33 22 28 42 37 45 42 46 39 42 30 30 28 24 25 23 22 21 23 24 25 25 28 29 27 24 23 21 20 20 18 18 19 19
8 14 15 17 14 8 15 28 40 38 30 33 45 37 33 34 47 48 41 32 31 29 27 26 24 23 21 25 28 27 30 32 25 26 25 27 24 23 18 20 18 19 22
11 14 16 14 15 8 3 26 30 32 31 36 39 34 38 34 41 48 37 35 34 32 28 29 28 26 25 27 29 27 28 28 30 28 28 27 25 23 23 23 23 23 26
14 10 13 13 11 9 5 14 26 28 31 32 36 31 30 33 35 35 36 36 35 31 29 29 27 26 28 29 29 29 32 34 30 31 30 29 27 27 25 27 26 28 28
14 11 9 12 10 6 6 8 16 24 27 27 29 31 25 26 30 30 33 34 26 26 27 28 24 27 30 31 30 32 33 32 32 32 30 34 29 28 28 29 29 31 33
13 10 8 10 23 10 10 9 10 13 20 29 25 31 24 19 19 23 29 29 29 29 28 27 28 30 31 31 32 36 36 37 32 32 33 31 30 30 30 32 34 36 36
11 10 7 7 7 9 10 17 10 7 9 11 19 23 22 20 19 20 20 26 28 29 28 30 30 29 30 29 31 31 34 33 33 37 36 33 32 33 34 36 38 40 43
7 10 5 6 8 7 17 16 17 14 14 10 15 19 21 18 19 24 24 25 26 27 29 29 30 30 28 27 29 27 29 32 36 32 31 33 35 37 38 41 42 40 40
5 5 5 3 4 4 2 8 15 15 14 16 17 19 21 20 21 25 28 27 26 28 27 25 26 26 24 24 24 28 30 31 32 32 35 37 39 40 43 44 43 41 42
5 3 5 5 2 3 2 4 5 6 8 8 18 24 21 24 22 24 26 26 20 19 19 18 19 21 21 21 23 27 28 31 33 36 39 43 42 44 45 44 46 47 46
7 4 6 8 7 4 3 6 5 5 8 10 11 14 16 17 16 18 19 18 18 20 20 19 23 24 26 26 29 32 32 35 38 40 42 43 44 47 45 49 48 47 49

GFSSE_500_spd_057.txt.gz
Wind_Speed
33 30 32 34 34 35 39 40 38 37 38 34 37 36 40 35 31 36 31 32 29 25 18 15 14 10 8 7 5 6 7 7 9 10 10 9 10 11 12 11 10 9 9
23 22 27 29 31 33 37 42 43 38 34 36 38 38 34 41 34 35 32 31 30 24 23 19 14 11 6 7 6 6 7 10 9 8 8 9 10 11 11 9 9 8 9
21 20 17 19 22 30 34 36 40 35 36 41 38 34 32 30 31 38 35 31 28 24 22 19 14 9 11 7 6 7 9 9 9 9 9 10 9 9 8 8 8 7 7
23 23 19 18 17 19 26 34 36 41 23 34 33 37 35 30 34 39 36 33 30 23 19 18 13 11 8 7 8 9 8 8 9 11 10 10 9 9 9 8 8 8 8
27 26 26 25 23 22 23 26 36 39 38 25 28 27 31 31 34 43 34 30 26 24 22 16 13 13 10 9 12 11 10 11 11 11 10 10 9 8 9 10 9 8 7
27 28 28 29 27 25 25 27 32 42 40 31 24 21 30 33 36 40 40 36 29 23 20 19 17 15 12 12 12 10 10 10 11 10 10 10 9 9 10 10 10 9 8
30 30 29 30 30 28 28 34 38 36 32 29 24 26 33 33 42 38 42 34 27 24 24 21 18 16 13 12 10 9 10 11 11 11 10 11 11 10 10 11 10 10 9
28 30 28 32 30 31 31 32 31 31 31 22 25 29 28 44 45 44 42 28 28 27 24 22 20 15 13 13 12 10 12 13 15 12 12 13 13 12 12 12 12 11 11
29 29 28 29 30 32 30 28 24 31 29 24 26 27 31 41 46 37 35 31 31 27 27 23 19 16 15 13 12 10 12 14 14 13 13 16 13 13 13 15 13 12 13
25 20 21 25 30 31 32 33 22 36 23 24 22 26 21 24 29 37 34 33 32 31 27 23 19 18 15 14 12 11 12 10 10 12 14 15 14 15 14 15 14 13 11
18 17 15 20 26 31 32 33 33 33 24 21 19 22 24 25 26 38 35 36 34 29 26 23 21 17 16 16 12 11 13 11 12 13 14 16 16 16 16 15 16 13 12
18 15 14 17 16 24 33 34 31 30 32 24 23 24 24 29 33 45 41 38 32 28 27 23 21 19 19 17 16 15 14 13 13 12 14 17 18 16 17 17 17 15 13
17 15 12 9 15 24 23 30 32 24 31 29 29 23 28 29 37 44 41 40 30 28 26 25 23 21 21 18 16 16 17 14 15 16 18 20 22 20 19 18 17 16 15
17 18 13 6 16 25 26 26 36 36 31 34 32 30 32 36 37 53 42 40 34 31 28 27 24 23 21 18 19 18 19 18 20 20 20 23 21 20 18 17 17 18 16
16 16 16 10 9 23 25 23 29 35 32 41 32 31 32 30 34 46 38 39 38 33 30 29 25 25 22 19 19 19 22 22 24 24 21 22 22 20 18 19 14 17 13
16 16 17 16 13 15 23 25 34 31 32 29 32 35 35 37 37 46 42 40 39 33 32 30 30 27 22 19 18 19 21 22 26 25 23 24 23 21 20 15 16 14 17
15 16 17 19 16 18 20 24 30 29 30 27 33 37 37 41 45 50 45 44 41 35 33 31 30 26 20 19 17 20 21 25 26 27 26 28 26 20 20 15 17 20 20
16 18 21 19 18 16 16 15 30 38 36 29 33 37 35 38 37 53 48 44 42 39 35 30 29 25 23 21 22 22 25 26 28 32 33 28 25 25 22 19 20 19 23
15 18 15 8 19 13 14 12 23 35 32 33 39 35 38 39 37 42 48 49 43 43 34 31 28 27 24 24 24 25 27 29 32 32 30 29 27 23 21 21 24 27 26
14 15 12 6 15 6 10 13 14 28 33 28 31 35 39 31 25 39 35 48 47 40 35 31 29 26 25 25 25 27 29 30 33 32 35 34 28 26 29 28 27 27 30
13 12 8 10 8 19 15 9 4 25 27 25 26 27 30 32 34 31 32 42 43 38 32 28 26 26 26 28 27 29 29 32 34 36 35 29 28 29 32 28 27 30 33
13 11 8 7 10 9 10 6 8 7 16 22 26 29 24 20 15 18 20 31 36 32 27 27 27 26 26 27 28 30 31 33 32 35 33 33 32 33 29 30 31 32 34
13 10 8 7 7 9 7 10 9 8 5 5 17 17 22 21 16 15 14 18 22 24 25 24 25 26 28 27 27 26 26 27 31 31 31 30 30 33 34 33 34 35 38
12 8 5 5 5 5 4 1 8 16 8 10 7 12 11 15 17 17 20 19 22 21 22 21 24 25 25 23 22 19 20 24 21 24 28 28 30 31 33 36 37 38 41
8 9 5 5 5 4 4 3 3 4 6 9 10 15 15 18 21 17 19 24 24 22 20 21 17 18 18 19 15 17 17 20 22 25 24 24 31 35 37 40 41 41 42
8 7 7 5 5 5 4 3 2 3 3 5 5 5 15 18 18 18 18 20 20 16 17 15 15 16 15 14 15 20 21 22 24 25 29 34 38 37 38 44 44 45 48

GFSSE_500_spd_063.txt.gz
Wind_Speed
34 32 30 31 33 35 36 37 40 42 42 41 39 38 37 34 33 32 31 30 30 29 25 24 24 26 25 23 21 19 15 14 11 10 8 7 8 8 8 7 6 6 6
23 23 25 28 27 29 32 34 38 41 43 43 43 41 39 38 34 33 32 31 33 30 26 26 27 27 27 24 22 18 17 14 13 10 10 9 9 8 7 7 6 6 5
21 23 22 23 25 25 23 26 32 37 40 42 43 42 41 39 39 36 36 32 34 32 28 28 30 29 26 25 21 18 16 15 13 12 10 10 9 9 7 6 5 4 5
20 24 22 24 22 19 20 22 22 28 35 39 41 40 39 39 41 38 38 36 34 36 31 30 31 29 26 23 21 18 16 14 16 12 11 10 9 8 6 5 3 2 3
21 20 25 25 25 22 23 22 24 24 27 35 39 41 43 40 38 37 36 34 37 35 32 32 31 29 26 23 21 19 16 16 15 13 11 11 8 7 6 4 3 3 3
23 18 19 25 26 27 25 25 25 27 28 29 35 37 37 40 40 40 39 35 34 39 39 33 31 30 24 20 21 15 18 19 14 13 13 12 11 9 6 5 4 4 3
23 21 18 23 24 26 28 28 28 28 29 31 33 34 33 26 28 36 36 33 34 40 41 32 30 27 25 29 19 22 22 15 12 14 14 14 12 10 6 7 5 5 3
21 22 19 23 23 25 27 28 31 31 35 37 38 34 36 37 32 33 34 37 37 43 41 38 36 33 35 29 22 23 15 15 15 15 15 14 13 10 9 7 6 5 5
22 23 21 22 24 26 27 30 33 33 35 31 43 31 30 39 23 36 36 40 42 48 45 44 41 40 33 23 26 19 16 17 17 16 16 16 13 11 11 9 8 6 5
24 23 22 22 22 24 26 31 30 33 37 27 28 36 28 27 36 31 34 41 49 45 41 40 38 34 23 25 21 17 17 16 15 15 14 13 11 12 11 10 8 6 5
25 22 21 21 19 19 24 27 32 32 37 36 39 31 34 34 29 30 25 38 36 38 40 38 34 28 27 25 21 19 16 20 16 13 12 11 12 12 11 11 9 7 5
20 21 22 21 18 20 23 31 27 31 30 33 29 42 34 37 29 17 25 23 35 37 39 40 35 27 24 24 21 14 21 20 17 15 13 13 12 11 12 11 10 9 8
17 18 21 20 19 19 22 21 17 21 24 23 26 43 23 18 26 23 25 25 33 41 40 40 34 28 26 25 21 16 20 20 16 16 13 14 12 10 12 12 12 11 11
17 17 19 18 19 17 15 17 16 16 21 19 38 36 25 21 22 23 20 21 34 43 40 34 28 27 28 23 24 18 20 22 19 17 18 15 14 13 12 14 14 14 14
16 18 18 20 19 18 15 15 15 13 16 8 31 29 23 19 19 23 19 20 26 37 35 32 31 29 27 27 25 16 24 20 19 17 18 18 16 14 13 15 14 15 15
14 18 18 22 23 16 13 14 9 11 8 16 29 27 23 25 26 24 23 21 27 30 35 35 37 32 29 30 24 20 20 21 19 16 19 18 15 17 15 16 17 18 17
14 17 20 21 24 17 11 12 9 18 15 15 34 33 26 29 24 25 20 22 23 30 34 39 39 32 30 31 24 21 20 20 17 14 16 17 17 20 18 19 20 20 21
15 16 18 20 21 14 6 11 13 15 15 14 27 26 30 25 29 28 22 23 24 27 36 41 43 37 33 32 27 23 20 22 18 16 16 17 19 19 20 22 21 22 25
14 13 14 18 19 12 17 10 12 14 15 20 23 28 32 31 31 31 29 31 28 29 34 46 45 31 34 33 27 25 20 20 19 17 17 19 19 24 23 25 23 25 25
11 11 12 15 15 15 12 11 8 15 18 24 24 26 31 27 22 26 30 27 28 29 29 43 42 37 38 36 28 26 22 19 19 19 21 20 24 23 26 27 27 30 28
8 9 10 12 12 14 12 13 5 12 14 22 29 31 33 29 27 28 33 31 26 26 37 41 40 42 39 38 31 28 24 24 21 21 23 25 25 25 27 28 31 31 31
6 6 8 9 10 12 11 9 5 11 9 12 15 29 33 29 30 27 27 27 25 22 27 38 42 39 45 42 37 30 27 22 24 25 25 22 25 26 29 27 29 33 31
5 6 7 7 8 8 10 6 4 9 6 8 9 20 27 28 29 28 25 21 20 24 27 35 37 29 36 42 32 27 23 23 27 27 25 24 22 21 24 27 30 34 35
7 4 6 5 7 6 7 9 9 4 4 2 7 19 26 22 22 21 20 20 20 26 29 32 35 17 27 25 24 23 26 27 26 25 19 13 14 18 20 20 20 27 32
7 4 5 3 5 5 3 5 6 8 9 2 5 4 20 27 26 24 22 17 16 15 15 20 19 21 22 24 24 25 25 21 21 21 20 17 13 15 14 14 16 20 25
9 8 5 6 5 5 2 1 3 4 6 8 8 3 5 7 15 19 17 18 20 14 13 14 19 22 18 22 22 18 15 15 16 16 16 15 14 14 17 19 21 25 27

GFSSE_500_spd_066.txt.gz
Wind_Speed
26 24 22 22 25 32 37 36 37 39 39 40 42 41 40 38 35 33 30 30 29 29 28 27 25 24 24 24 26 25 23 21 19 19 15 13 12 12 11 10 10 10 9
19 21 21 21 22 20 20 28 34 35 38 40 42 43 42 41 38 36 33 31 30 30 29 28 27 26 25 25 26 26 24 22 20 17 15 14 12 11 11 12 10 7 5
22 23 25 25 24 24 24 22 23 29 33 37 40 41 42 40 38 37 34 32 30 27 30 29 29 27 27 26 27 25 24 21 17 16 16 13 13 12 11 9 7 6 3
24 24 24 25 27 26 25 24 20 21 24 30 36 39 40 40 40 39 37 34 30 28 29 31 29 27 28 28 28 25 22 17 16 15 16 16 14 12 10 10 7 4 3
21 21 23 26 27 28 28 27 24 22 25 28 31 36 39 40 38 34 36 36 32 30 31 32 33 30 29 31 28 23 18 16 17 18 18 16 14 11 11 9 7 6 5
22 20 21 27 27 25 26 29 29 29 28 29 30 30 36 38 38 36 33 33 34 32 32 31 33 34 32 30 26 20 18 19 17 18 20 16 13 13 12 10 8 8 4
24 19 19 23 24 23 25 27 29 32 31 31 30 32 32 34 35 34 37 35 33 34 34 33 35 32 31 29 24 23 22 24 23 20 17 15 14 14 13 12 10 6 4
24 22 20 21 23 22 22 22 27 33 36 34 33 34 34 33 30 28 30 38 37 34 34 35 37 38 38 30 28 26 30 16 19 19 16 13 15 15 15 12 11 7 6
25 29 26 23 23 22 22 21 25 38 38 34 27 36 42 34 33 31 26 29 33 35 38 38 37 37 36 34 29 28 24 16 19 17 15 17 17 17 16 15 11 9 8
29 30 27 22 22 20 19 19 24 23 27 32 27 31 39 31 28 34 31 29 32 36 38 42 40 40 38 37 30 30 19 19 20 18 17 18 17 18 16 16 12 10 9
29 27 24 21 20 19 19 17 22 26 28 26 34 36 34 26 27 27 22 33 34 38 42 42 43 42 41 34 35 20 19 22 19 17 14 12 15 16 16 15 13 12 11
26 21 17 17 17 18 19 19 22 24 26 26 30 33 26 39 30 37 30 28 34 39 43 45 44 39 36 33 20 23 23 20 19 17 16 13 13 16 14 15 13 13 13
21 17 17 16 16 16 19 20 18 20 24 28 28 28 34 29 32 28 29 28 18 33 37 38 35 34 30 29 20 23 20 19 18 15 16 14 14 14 14 14 14 14 15
18 18 17 17 16 16 19 18 14 16 18 23 24 25 27 43 31 30 31 22 20 25 25 30 34 34 33 27 22 27 20 17 17 17 18 17 15 15 15 15 15 17 18
17 19 16 16 18 20 17 18 14 16 16 22 28 27 31 36 28 25 29 27 25 28 25 32 34 33 33 24 23 27 21 17 15 18 16 18 16 17 18 18 18 19 19
17 16 16 17 19 20 14 16 13 15 15 15 18 28 43 28 27 22 27 23 21 28 28 32 37 32 30 25 25 27 21 17 18 18 16 18 17 18 18 18 20 19 21
17 17 17 15 17 18 5 9 9 14 14 11 4 38 36 29 23 19 25 20 18 19 24 30 35 32 33 30 25 29 24 21 17 18 17 19 17 17 20 22 21 20 23
20 19 17 14 16 13 8 9 10 11 16 9 11 27 33 22 23 23 24 20 21 20 25 30 29 33 33 33 28 29 27 21 20 20 19 18 19 20 21 21 24 26 26
18 16 14 12 14 12 13 10 12 14 14 13 16 30 33 27 24 26 25 23 25 25 24 28 30 31 39 38 34 28 30 24 22 21 21 21 22 22 22 25 25 28 28
13 14 12 12 14 14 9 10 9 13 16 17 19 24 32 27 28 27 31 29 32 27 27 25 28 32 42 42 37 31 30 26 24 24 24 23 22 24 24 26 30 28 31
11 12 9 10 12 13 11 10 8 12 12 15 20 25 28 31 32 32 27 26 30 25 25 27 28 32 36 42 31 30 32 31 28 27 25 25 26 26 26 28 29 30 35
10 9 8 7 10 12 11 11 8 7 12 18 23 27 32 32 36 34 28 25 29 29 27 27 27 33 29 41 40 36 35 35 33 31 28 29 28 27 27 29 31 33 33
10 9 8 6 7 10 10 10 3 7 6 6 11 18 26 31 36 34 29 26 26 30 27 29 24 28 38 41 41 39 40 39 36 33 28 28 30 28 30 30 32 31 29
12 10 8 6 5 7 8 7 8 9 5 6 7 10 23 25 27 29 30 28 27 27 27 25 28 27 27 37 35 26 34 36 31 31 31 29 30 28 29 32 30 29 28
12 10 9 7 5 6 6 5 4 4 8 6 4 5 20 28 29 32 32 29 29 28 25 24 28 27 28 27 19 24 26 28 31 33 32 30 25 24 22 27 31 28 27
13 11 10 9 8 7 5 5 4 4 3 5 7 4 8 23 30 24 24 23 25 22 23 25 33 27 19 23 24 24 25 31 32 32 29 25 25 25 24 22 21 23 25

GFSSE_500_spd_069.txt.gz
Wind_Speed
26 26 25 22 22 23 22 25 30 33 37 40 40 38 38 35 35 34 33 32 30 28 26 25 23 22 21 21 21 21 23 24 23 20 20 18 15 13 13 12 14 13 12
26 26 25 25 26 26 26 24 24 23 24 31 37 39 39 37 36 35 34 32 30 29 27 25 24 22 22 21 22 21 24 24 24 21 20 16 14 14 11 14 16 12 9
28 25 25 27 28 28 28 29 29 26 24 23 28 33 35 37 36 35 34 33 31 30 29 27 27 24 24 23 23 24 24 22 21 21 18 16 14 15 13 16 14 10 9
23 25 27 27 29 30 30 31 30 28 26 23 24 24 28 34 37 36 34 33 33 32 29 28 25 25 25 24 25 25 24 22 21 19 17 16 14 14 14 13 13 8 8
24 25 24 28 28 29 32 31 29 31 30 29 26 26 26 28 33 34 33 33 31 33 30 27 25 25 26 24 26 25 24 23 21 19 18 15 14 15 12 13 10 9 9
26 24 25 27 28 27 29 28 28 30 35 34 31 28 29 25 26 30 32 33 32 32 32 29 27 25 28 27 27 26 27 23 22 20 15 14 19 15 13 11 10 10 10
27 24 24 25 28 27 27 27 30 33 35 37 34 32 31 29 25 24 27 29 30 33 33 31 29 28 25 26 28 27 25 26 23 18 19 14 17 15 13 12 10 12 11
28 28 25 25 28 27 28 27 28 31 36 39 35 36 36 35 29 27 25 28 32 33 33 31 28 27 27 31 36 28 28 26 22 23 16 18 16 14 13 14 13 13 13
32 29 23 26 31 28 28 27 26 31 34 46 32 28 34 40 30 24 23 24 30 34 35 31 30 26 27 32 27 31 30 27 22 14 17 16 15 14 14 15 15 15 16
31 30 26 28 27 26 26 26 26 28 28 44 30 34 16 36 25 32 26 23 25 27 36 33 30 26 28 31 36 34 34 29 20 13 16 16 15 15 16 17 16 17 16
29 29 27 23 22 22 23 24 22 23 23 23 27 28 27 24 42 37 29 23 27 24 27 31 29 29 32 35 38 36 32 27 14 18 16 16 15 15 15 16 17 18 18
25 24 21 16 18 18 19 22 20 23 23 26 27 30 33 24 35 34 23 22 27 24 28 25 30 33 39 39 41 37 35 21 18 17 18 15 12 14 14 14 18 19 18
24 19 16 14 17 19 18 20 21 22 26 27 27 27 26 27 39 31 27 25 22 24 30 28 24 40 37 40 38 36 25 18 17 17 18 14 14 14 16 15 16 17 20
20 15 13 16 16 16 20 21 22 22 24 23 26 32 30 26 28 30 35 29 27 21 33 37 28 31 38 37 32 27 20 18 15 17 17 13 15 16 17 18 17 19 20
18 13 12 16 15 16 21 23 22 21 21 22 24 28 30 31 32 35 32 30 23 28 25 18 24 26 29 32 32 29 22 19 18 15 17 17 18 18 19 19 19 19 21
16 15 14 16 17 17 20 23 23 21 21 24 21 25 30 30 30 31 35 30 27 31 25 18 20 28 29 30 31 28 24 22 19 16 17 18 19 20 21 20 21 21 22
13 15 18 18 18 16 18 11 16 18 17 24 23 27 33 28 32 33 30 29 25 25 27 25 24 27 27 27 27 31 27 23 21 19 18 21 21 22 21 22 23 24 23
16 14 17 19 15 16 14 16 21 18 15 16 17 22 31 32 31 29 27 26 25 21 22 25 24 25 29 32 29 31 28 25 22 22 20 24 23 23 23 24 25 26 28
17 13 14 14 14 15 13 14 18 17 18 18 7 19 25 34 27 22 24 22 21 22 17 17 21 23 30 35 34 33 31 31 27 25 23 25 24 24 25 26 26 28 30
14 11 12 13 14 14 12 13 18 12 17 20 18 28 35 30 28 24 22 29 24 21 22 20 21 26 30 34 34 35 34 33 31 29 26 25 25 26 25 26 29 31 31
12 9 11 12 12 11 9 12 16 12 14 19 24 36 34 35 31 26 29 30 28 22 25 24 24 26 27 30 32 32 35 36 34 31 29 27 27 27 27 29 31 32 31
10 8 10 11 11 7 8 11 12 8 13 15 20 27 39 41 40 33 31 29 29 30 33 31 28 29 30 28 30 32 36 39 34 34 32 32 31 31 31 31 31 32 32
10 10 11 11 11 7 7 7 2 9 14 15 20 26 31 35 41 41 35 39 30 32 30 29 27 26 27 27 29 31 31 42 41 38 37 39 37 34 33 33 34 35 36
11 11 13 11 10 7 6 5 5 7 9 13 16 23 28 35 40 37 34 39 35 31 30 31 32 28 28 27 24 25 31 35 45 31 36 44 41 34 35 36 37 39 40
12 12 13 11 10 7 8 5 5 5 4 5 12 12 17 22 26 40 34 33 35 31 30 32 31 28 28 29 25 26 20 28 31 29 31 34 35 34 38 38 34 32 34
11 12 12 11 10 10 9 8 3 5 5 4 3 10 13 23 22 31 32 33 33 33 32 33 26 31 30 30 28 28 28 30 29 30 33 36 36 36 35 31 27 27 26

GFSSE_500_spd_072.txt.gz
Wind_Speed
26 24 24 25 26 23 23 25 26 26 23 22 24 27 31 33 32 30 30 29 27 27 27 27 25 24 21 18 18 16 16 18 18 18 19 18 17 15 12 12 12 15 15
27 25 25 25 22 23 24 25 27 28 28 25 22 24 24 29 33 33 30 29 28 28 29 28 26 24 20 18 18 16 17 17 18 18 18 18 16 14 12 12 15 16 14
29 28 27 24 24 26 24 24 26 28 28 29 27 22 22 25 29 31 30 27 28 28 29 28 25 23 21 18 18 17 17 18 20 19 19 18 16 13 11 13 16 14 11
29 30 27 25 25 25 24 25 28 31 31 29 29 26 23 23 25 27 27 26 28 27 28 28 26 23 21 18 18 18 18 20 22 19 19 17 15 13 12 15 13 12 10
28 29 25 28 28 26 25 25 27 30 30 29 29 30 28 25 23 21 21 24 26 28 29 28 25 21 19 19 19 20 20 22 22 19 19 18 17 11 11 16 12 10 9
28 28 26 29 29 29 26 25 29 29 30 29 29 30 33 31 27 21 18 19 23 28 29 29 24 19 19 17 22 21 22 21 21 22 20 18 11 15 13 15 12 10 10
29 28 26 31 30 28 27 27 29 31 30 32 32 33 32 33 30 24 20 17 19 24 28 27 22 19 21 22 25 24 23 23 21 22 19 17 19 10 17 14 11 10 10
30 30 26 30 29 30 30 34 31 32 28 32 35 38 33 31 33 28 23 20 21 23 24 25 25 24 25 26 24 29 22 22 22 20 19 19 21 13 16 13 12 12 11
30 30 27 28 29 30 33 37 31 28 28 30 36 34 37 36 33 31 25 22 22 23 26 25 25 27 26 27 24 21 25 25 25 27 24 21 13 15 14 13 13 13 12
26 28 28 31 30 31 33 32 27 25 28 29 25 26 45 39 27 24 30 21 20 20 24 30 27 28 26 25 26 23 30 27 27 28 23 12 16 13 15 15 15 15 13
22 23 28 29 25 25 22 25 24 24 26 27 25 27 33 38 24 18 21 29 27 19 20 27 31 28 28 25 23 26 26 28 34 32 15 12 17 15 16 16 16 16 15
22 21 22 20 17 18 19 21 22 22 24 25 26 24 24 26 34 24 26 22 22 20 19 20 32 29 25 26 27 26 30 34 35 28 15 17 15 15 15 16 15 17 16
21 19 21 17 15 17 18 21 20 21 23 25 28 26 29 26 29 30 31 32 27 19 20 18 22 26 28 29 29 32 34 35 31 18 18 19 17 14 14 13 15 16 16
17 19 18 17 16 16 17 20 21 22 23 27 28 27 28 25 22 28 26 31 35 22 17 20 23 22 34 32 35 37 40 27 23 18 17 18 17 17 15 14 16 17 16
17 19 15 17 16 16 17 20 23 25 26 25 23 23 28 31 25 23 23 41 39 26 17 20 25 26 27 25 33 27 26 26 21 19 18 20 17 17 16 16 17 19 18
17 17 15 18 15 16 17 21 25 20 19 24 25 24 26 30 33 31 25 35 39 28 26 20 24 29 29 25 23 25 28 28 24 20 19 21 21 20 20 19 20 21 20
17 14 17 17 16 16 17 20 23 21 24 23 24 24 26 28 32 34 36 36 38 29 18 23 22 25 24 24 22 21 28 29 26 24 23 21 22 22 22 21 22 23 24
18 14 16 17 15 15 17 20 22 24 24 23 20 23 27 27 31 28 32 35 35 30 19 29 27 24 23 23 25 26 26 30 29 26 24 22 23 24 23 24 25 26 25
18 12 13 12 11 12 17 19 22 22 21 23 22 18 23 27 30 28 37 36 31 24 22 21 30 27 27 28 28 28 25 32 32 28 27 25 24 26 25 26 27 27 28
15 10 11 9 11 12 15 17 18 21 19 20 24 22 18 29 33 30 40 35 29 23 20 19 19 21 28 29 27 28 28 33 32 31 31 27 26 26 27 28 27 28 29
15 8 9 9 10 11 13 13 15 21 15 14 19 19 18 34 28 35 32 31 27 25 24 24 21 22 24 23 24 25 29 32 33 33 32 32 31 30 29 29 29 29 31
12 8 9 9 10 11 11 11 14 13 8 10 15 17 19 33 37 36 31 28 27 29 22 24 26 21 23 25 27 31 34 30 31 35 35 37 35 32 32 33 32 33 33
10 9 8 10 10 10 9 8 8 7 8 10 10 16 20 29 30 33 32 30 27 27 32 27 26 24 26 27 27 30 30 29 34 35 38 38 37 38 37 36 36 36 37
11 9 9 11 11 10 7 8 5 5 7 8 12 13 21 25 33 35 34 31 28 28 28 27 28 31 29 26 26 26 28 26 28 29 30 39 41 42 37 45 42 41 41
13 10 11 12 11 11 8 7 6 5 4 5 9 12 14 25 33 35 40 36 35 33 36 33 30 29 30 28 27 26 26 22 25 24 24 29 34 36 37 37 43 41 41
13 9 12 13 12 12 10 7 6 5 4 4 6 6 12 17 29 36 39 37 37 34 38 35 33 33 34 31 30 27 27 20 19 21 25 31 38 38 34 36 39 37 36

GFSSE_500_spd_075.txt.gz
Wind_Speed
27 26 24 24 24 23 23 23 22 22 21 23 24 22 19 20 26 28 27 26 26 24 23 23 22 22 21 20 18 17 15 13 13 16 15 16 16 15 13 11 10 10 17
28 26 28 27 26 25 22 19 21 22 23 24 25 26 25 24 22 23 26 28 26 24 24 24 24 22 20 19 15 15 14 14 14 15 16 16 16 14 13 10 8 16 14
29 27 28 27 27 24 21 20 20 22 23 24 26 26 26 25 25 23 23 26 27 26 25 25 25 23 20 17 15 15 13 14 15 16 16 16 15 14 13 9 8 15 11
31 31 28 27 25 24 22 22 23 23 24 25 26 25 25 27 25 22 20 20 24 24 25 25 24 23 21 18 17 14 15 15 15 16 16 15 15 14 13 10 8 14 11
33 35 31 28 25 25 25 24 26 25 24 24 24 23 23 25 25 24 21 18 23 25 24 23 23 22 22 20 18 19 16 16 17 17 17 17 16 15 12 9 15 13 9
34 37 36 31 28 24 27 28 28 25 25 25 26 26 27 26 26 26 24 21 22 24 23 22 21 20 22 22 22 20 19 19 18 18 17 17 17 17 13 15 15 12 10
35 39 36 31 29 25 26 29 29 28 29 29 28 27 27 28 29 28 26 24 22 23 21 22 20 21 20 23 24 19 20 19 19 18 18 17 15 17 16 13 13 11 11
34 39 38 29 30 28 25 29 28 32 32 28 24 25 28 29 30 30 26 22 21 20 20 21 25 24 25 24 23 22 23 21 21 20 21 17 19 16 17 15 14 13 12
36 39 35 28 28 30 26 27 32 33 31 27 23 21 30 28 29 33 25 21 21 19 21 24 28 29 30 27 23 24 18 24 23 20 21 20 21 17 14 16 14 14 13
39 36 31 27 26 29 27 30 32 29 22 22 25 23 27 27 28 38 30 29 19 19 18 24 28 32 30 29 26 24 18 18 21 24 22 26 26 17 15 14 15 15 15
36 35 28 24 24 28 27 27 24 22 21 22 23 23 20 26 30 35 32 29 25 24 15 22 26 30 29 30 26 24 21 22 24 27 28 24 24 17 15 16 16 17 17
39 36 26 22 24 24 22 22 20 20 20 21 22 24 25 23 27 26 34 23 31 29 17 14 21 30 29 28 26 25 25 28 29 25 29 22 16 15 17 17 16 18 18
38 36 27 22 24 21 20 19 20 19 18 21 24 26 26 26 26 21 35 25 26 27 18 15 13 24 31 30 30 29 28 23 28 33 30 32 16 18 16 16 17 19 18
36 34 26 23 22 21 21 20 20 20 20 22 22 25 28 25 25 24 29 27 25 28 20 18 18 20 32 30 30 27 26 28 34 37 29 20 19 19 18 17 17 19 18
34 32 26 23 21 22 22 22 21 23 22 25 23 23 23 24 25 24 30 31 29 33 26 18 20 20 27 30 29 29 30 31 36 27 29 22 21 21 21 20 19 20 20
37 34 25 23 21 23 21 22 23 23 23 22 18 19 21 24 23 28 25 29 30 38 34 24 21 24 25 29 34 34 33 30 27 23 24 22 23 21 22 22 22 22 23
35 33 22 23 21 23 23 24 24 23 24 23 24 23 20 23 23 30 26 25 31 40 35 28 23 23 28 31 31 30 30 24 24 30 26 25 24 24 24 23 23 24 24
30 30 21 22 22 23 23 23 22 22 23 22 26 22 20 22 27 30 33 30 28 37 36 33 26 28 24 30 34 33 29 27 27 34 29 28 25 26 27 25 24 25 26
30 28 22 20 21 19 18 18 20 22 22 22 22 22 18 22 25 27 33 38 35 36 36 35 25 28 27 30 29 27 26 24 25 30 31 29 27 27 29 28 26 27 28
29 27 22 20 16 14 14 16 19 22 22 22 23 19 22 19 23 28 30 34 37 39 41 31 28 35 33 30 28 25 26 24 26 29 33 31 29 29 30 28 28 29 30
25 27 25 18 12 10 13 14 18 20 20 19 18 14 20 25 24 33 33 29 34 36 27 29 27 31 33 31 30 26 26 23 24 28 35 35 33 32 31 31 29 29 32
26 29 21 17 10 9 13 14 16 15 10 7 8 7 17 19 30 31 33 34 39 35 22 25 23 22 21 23 23 28 26 24 25 29 33 37 36 35 36 35 34 34 36
26 28 19 14 10 10 13 14 13 12 12 10 7 6 8 11 27 32 25 33 33 26 26 27 27 22 20 21 22 25 25 24 28 29 32 36 37 36 41 41 39 39 39
27 28 19 15 11 11 13 12 11 9 8 4 3 6 8 8 18 24 33 31 31 27 29 30 26 22 25 22 24 26 28 27 29 31 32 32 29 38 40 40 42 42 44
30 27 18 16 13 12 13 12 10 8 7 4 4 2 6 8 14 20 30 33 32 30 28 25 27 28 26 27 31 29 29 29 29 29 29 31 31 30 38 39 36 35 40
28 24 19 17 15 14 13 12 10 9 7 7 3 2 2 6 11 18 22 28 34 31 31 30 25 30 30 26 26 31 29 29 26 27 25 23 30 33 36 35 35 36 40

GFSSE_500_spd_078.txt.gz
Wind_Speed
26 25 23 22 22 23 24 25 25 24 21 21 21 22 22 23 22 21 24 28 27 27 27 26 24 22 22 21 18 17 16 14 15 14 15 13 14 13 12 12 9 10 12
25 24 25 25 24 23 24 25 24 22 21 22 24 23 24 24 26 25 23 22 26 27 26 26 25 23 22 21 19 16 15 16 15 14 14 15 14 13 12 11 9 8 12
24 25 25 25 23 24 23 23 22 21 21 23 24 27 27 25 25 27 24 20 19 23 25 26 25 24 22 21 19 16 15 16 15 15 15 14 14 13 12 11 9 9 11
27 26 26 28 23 24 25 23 22 20 22 24 24 26 26 26 23 24 24 22 18 19 23 25 25 24 22 21 19 18 17 16 16 16 16 15 14 14 13 12 11 8 13
29 28 28 31 29 28 27 28 25 23 22 24 24 24 24 23 24 22 23 22 18 18 21 26 27 23 23 23 22 20 18 16 16 17 16 15 16 15 14 13 10 11 12
31 31 29 31 34 32 29 29 29 24 24 23 25 25 25 25 25 25 23 24 20 20 23 26 25 24 24 23 24 21 18 17 17 17 17 17 16 15 15 15 12 13 12
34 34 30 32 36 33 31 32 30 27 25 24 24 28 29 27 27 26 26 25 24 20 23 28 26 27 26 25 25 25 23 20 19 18 19 18 17 15 17 15 14 13 12
36 36 31 35 39 37 33 32 30 29 25 26 26 29 29 30 32 31 29 29 24 20 22 27 29 28 26 27 27 27 25 22 23 21 22 19 18 18 18 16 15 15 14
39 36 30 36 40 38 34 34 28 29 26 27 25 26 25 23 28 28 25 27 21 18 19 25 30 30 30 28 30 28 25 22 22 23 23 21 21 21 19 15 17 16 16
38 36 34 35 34 36 35 34 28 28 27 25 20 21 23 22 16 38 33 19 12 16 20 26 31 33 34 32 31 29 28 25 28 27 24 21 22 23 20 17 16 17 17
38 36 36 37 30 34 34 32 30 27 27 21 18 21 22 21 20 30 28 23 31 24 20 26 31 35 35 35 33 29 30 26 22 27 24 23 24 25 22 19 18 18 18
39 39 37 33 30 32 32 31 28 26 23 19 19 19 21 20 21 26 22 27 29 28 30 24 26 29 32 36 33 32 24 25 25 24 23 25 25 26 23 20 18 20 20
39 39 30 30 30 32 31 29 27 24 24 19 19 20 21 22 23 24 26 32 35 25 31 32 21 23 29 34 35 31 30 28 28 28 27 28 28 22 20 19 21 21 20
40 36 29 27 32 32 31 28 27 24 26 20 20 22 23 23 23 26 26 25 32 29 30 32 24 21 26 32 34 33 31 32 30 31 30 31 28 32 24 20 20 20 20
38 35 32 32 32 32 31 29 27 29 26 22 22 25 25 22 23 26 26 26 33 23 25 33 25 22 20 33 32 33 34 33 31 30 30 31 36 30 22 22 21 20 22
36 32 31 33 32 32 31 30 28 31 27 23 23 25 21 17 22 24 24 26 27 29 27 32 26 20 19 28 34 32 33 35 34 32 33 32 28 24 24 24 24 25 24
32 30 27 32 33 32 31 30 30 31 27 25 24 23 23 22 22 26 25 29 29 31 30 34 27 21 21 23 30 33 33 36 36 34 30 31 27 29 26 26 26 27 25
32 28 29 35 31 31 31 29 30 31 27 24 23 23 24 24 24 27 27 30 27 33 39 41 33 23 25 26 29 32 33 39 32 28 29 27 31 30 27 28 27 28 28
31 29 32 33 28 28 31 25 28 27 22 21 22 24 23 24 23 24 24 28 29 30 38 44 38 30 27 27 31 36 37 33 33 32 31 31 34 31 29 27 28 30 29
31 31 31 29 25 27 25 22 23 20 20 21 23 25 26 26 24 24 30 29 32 30 41 47 43 35 34 30 33 34 33 34 33 32 29 29 33 33 29 28 28 30 30
30 30 29 25 22 29 21 22 20 18 18 20 24 27 24 25 19 27 23 28 27 33 37 44 42 40 33 28 29 23 24 26 26 25 28 27 34 34 33 31 30 30 29
28 31 26 23 22 25 22 20 16 15 16 15 17 18 16 19 24 26 30 26 27 33 35 40 39 38 30 28 30 26 24 24 25 25 28 31 32 34 38 36 35 33 34
27 31 25 21 23 23 23 17 14 13 12 13 15 13 8 14 22 27 32 29 30 32 32 37 37 23 24 22 20 19 22 24 29 28 30 28 32 36 41 40 39 40 41
30 28 25 20 23 23 23 15 12 11 10 7 9 13 9 9 15 20 30 32 32 31 30 32 23 25 21 19 20 18 19 23 28 29 30 30 30 34 40 40 41 41 38
30 28 27 20 24 25 22 15 12 10 8 5 7 6 9 6 10 22 27 29 31 32 33 32 25 24 24 23 21 22 22 24 29 30 31 33 31 32 35 37 43 47 48
31 29 23 22 25 26 20 16 12 10 7 2 3 4 4 4 9 10 19 27 31 29 28 26 28 28 30 28 25 23 26 30 29 31 32 32 31 34 34 36 40 45 45

GFSSE_500_spd_084.txt.gz
Wind_Speed
23 19 17 14 13 15 17 19 20 22 23 24 24 24 25 26 25 24 25 26 27 24 25 28 28 28 27 27 28 30 29 27 24 22 19 17 14 13 12 11 8 7 6
24 21 17 13 15 14 16 18 20 22 23 23 25 26 25 25 24 24 24 25 27 27 26 24 28 28 27 28 29 29 29 29 26 22 19 18 16 16 13 11 7 7 6
25 21 17 15 14 15 16 17 18 20 23 24 25 26 27 26 26 26 27 27 28 27 26 24 24 26 27 27 28 28 28 27 24 21 21 20 17 17 13 11 7 7 7
24 22 17 14 15 17 18 20 21 21 23 25 26 27 28 30 29 29 27 25 24 26 25 23 23 26 26 29 29 29 28 26 23 22 21 20 18 17 13 11 9 9 9
25 23 18 15 16 19 21 21 22 23 24 26 27 29 30 31 32 29 28 28 28 23 24 24 23 23 27 29 29 28 27 23 21 22 22 20 19 17 14 13 12 10 9
25 24 20 15 19 21 25 26 25 25 27 27 30 32 32 33 34 32 30 31 28 25 23 24 24 23 27 28 29 28 26 25 24 24 21 22 19 18 15 12 11 10 9
26 24 21 18 21 23 25 29 30 30 31 30 31 32 35 34 34 34 34 36 34 27 27 27 25 24 26 28 28 28 27 27 26 25 22 21 19 18 14 14 13 12 11
27 26 21 20 22 23 24 27 29 29 33 34 35 34 34 33 34 31 28 40 37 34 31 27 27 26 24 26 28 30 30 28 27 25 25 21 19 17 17 16 14 14 12
28 26 22 20 22 24 26 29 30 31 34 36 38 34 33 32 31 33 32 30 31 35 32 27 29 28 26 26 30 31 31 30 30 26 24 20 21 18 18 16 17 15 14
31 28 24 21 23 25 29 31 30 32 37 36 36 34 33 32 31 28 22 27 27 25 37 30 28 26 28 29 32 31 30 28 28 26 24 24 24 22 20 18 18 17 16
33 28 27 23 24 26 31 33 32 34 37 35 33 32 32 30 29 27 23 27 28 29 31 27 27 22 24 28 29 28 32 32 30 29 26 28 26 25 22 20 20 19 18
34 31 30 26 24 29 31 33 34 34 34 31 31 29 28 26 25 24 22 25 25 23 33 24 25 19 20 27 29 28 34 37 33 32 29 33 28 27 25 22 22 23 22
35 35 30 28 26 31 32 31 33 32 30 30 28 28 26 24 23 23 21 22 23 24 21 28 28 24 22 27 31 32 35 37 33 31 32 29 28 26 26 25 24 22 23
37 35 28 30 29 31 31 31 35 30 29 29 27 28 25 22 22 20 20 17 18 21 23 29 20 31 29 29 34 35 37 40 32 31 35 30 30 30 28 25 22 22 22
39 36 31 30 31 32 32 31 35 32 31 29 26 28 24 24 24 21 22 19 19 23 25 28 22 27 32 29 32 29 36 39 33 25 34 32 28 28 27 27 22 22 19
37 37 32 31 30 32 31 30 30 32 33 28 26 27 24 25 26 24 24 21 17 22 25 27 28 28 32 32 28 30 31 34 29 32 31 31 31 31 29 27 26 24 25
35 38 34 31 31 31 30 27 27 30 32 27 27 28 27 27 28 26 25 24 22 21 24 25 26 27 34 35 32 31 29 28 32 33 36 32 31 31 30 31 28 27 29
35 37 34 30 26 31 29 27 28 29 30 26 29 28 28 29 27 25 24 22 22 21 25 26 30 31 33 38 33 30 28 30 30 31 34 31 32 31 29 27 27 27 24
37 36 35 28 26 31 28 27 27 28 28 25 28 28 28 29 27 27 24 23 25 25 25 26 30 35 40 34 34 29 26 32 28 27 31 31 26 29 29 29 27 28 27
39 38 32 29 29 31 27 26 26 27 25 26 25 23 24 25 25 26 27 25 27 26 25 26 29 34 36 38 32 25 22 28 24 23 25 31 28 27 26 25 27 29 27
40 37 28 27 30 28 23 27 24 25 22 26 20 19 23 25 26 27 27 27 28 25 26 28 32 31 37 41 34 20 21 22 23 24 25 29 29 26 23 25 26 28 28
39 29 24 27 27 25 24 26 24 21 18 20 19 21 23 24 25 27 27 29 31 26 28 32 31 30 35 38 34 24 23 21 22 24 27 30 30 30 27 30 29 30 32
29 26 24 26 24 23 26 24 22 16 17 17 19 20 21 23 25 26 27 29 31 29 34 36 32 31 36 40 37 32 28 22 27 25 27 26 26 29 28 28 29 27 33
24 27 26 26 24 23 26 23 19 13 16 18 19 18 20 21 18 20 23 29 30 32 37 36 29 28 35 38 38 38 33 29 25 23 22 21 22 22 24 27 30 32 29
26 27 27 25 24 24 26 22 18 13 17 18 17 18 19 19 17 21 25 29 30 35 33 32 32 30 32 38 39 34 38 33 24 26 24 23 22 24 27 27 30 29 30
27 28 30 27 25 25 26 21 16 14 18 16 16 18 17 16 16 18 21 27 29 32 25 32 32 25 25 31 32 30 26 20 22 23 20 19 19 21 22 25 27 30 31

GFSSE_500_spd_087.txt.gz
Wind_Speed
23 20 18 19 15 17 17 16 18 19 19 19 21 22 23 23 25 25 24 25 27 27 27 28 26 28 30 28 25 26 27 27 25 25 25 21 15 13 13 13 9 6 8
25 23 20 18 17 18 16 18 18 20 20 21 21 22 24 25 25 25 24 25 26 26 26 27 27 26 28 30 29 27 28 29 29 28 26 23 18 17 16 14 10 8 8
28 25 22 18 18 17 18 18 21 21 24 23 22 22 23 25 26 27 26 26 27 27 26 28 28 27 26 29 30 30 29 30 29 29 27 23 19 19 17 14 11 9 7
32 28 22 21 18 18 19 20 20 22 25 26 25 23 24 26 27 28 29 29 29 29 28 24 28 28 26 27 29 31 31 28 28 27 24 21 20 20 19 15 12 10 9
34 29 26 23 19 19 19 20 21 23 25 24 25 26 25 26 29 30 29 30 30 31 28 25 26 28 27 27 29 29 28 27 26 25 23 22 21 21 19 16 13 10 8
34 34 28 24 20 21 20 22 23 22 26 28 28 30 29 31 31 30 29 30 31 33 31 29 29 28 27 28 29 27 28 27 26 26 23 23 22 21 18 16 13 11 9
40 35 30 28 21 22 23 24 23 22 23 26 27 30 33 37 37 31 28 30 31 32 35 34 34 31 27 29 27 28 28 27 28 26 24 24 22 22 19 16 15 12 11
40 38 33 30 24 23 25 25 24 24 24 27 29 29 31 37 38 34 28 29 27 29 37 37 35 32 27 29 24 26 27 27 27 25 23 22 22 19 18 18 16 13 12
40 40 37 32 27 23 25 26 27 26 25 27 28 31 33 37 37 33 29 30 31 28 37 36 35 30 27 28 23 24 27 28 27 26 24 23 22 20 21 19 17 15 12
37 42 40 34 28 26 27 28 30 30 27 28 30 33 35 35 36 30 30 32 26 24 26 25 32 32 26 25 24 24 27 27 27 27 25 26 24 25 22 19 17 17 15
37 40 39 37 31 29 29 29 33 32 30 29 32 35 33 32 34 27 30 30 25 23 26 28 30 30 23 21 21 24 26 27 27 30 27 26 27 25 23 21 20 19 17
34 39 39 36 33 31 31 31 35 33 33 32 33 34 30 30 30 27 29 27 24 25 24 30 30 28 22 20 22 25 26 28 28 29 28 29 27 26 26 23 22 20 19
39 37 39 38 36 32 32 32 37 36 34 33 34 32 29 30 26 26 25 23 21 20 21 23 30 32 23 21 24 26 27 27 31 29 29 31 28 27 25 24 22 21 18
41 37 36 36 35 36 34 34 37 37 33 35 34 32 30 28 25 24 23 20 19 19 17 16 26 27 26 21 23 26 27 29 26 29 30 31 29 28 27 24 22 21 19
41 37 35 36 36 37 34 36 38 35 32 31 34 34 29 25 23 24 22 20 18 18 19 18 16 23 30 30 27 29 26 27 28 26 31 30 29 27 26 26 24 22 19
40 39 37 34 36 38 35 37 38 32 33 32 31 35 29 23 22 25 22 22 20 18 20 20 18 25 27 25 31 30 29 26 28 27 33 30 29 28 27 25 24 24 24
41 40 38 38 35 38 36 38 37 32 34 30 33 30 28 24 21 25 24 23 21 21 21 18 21 25 29 27 33 32 29 23 24 26 33 31 27 29 30 26 25 25 25
39 38 41 40 34 34 36 35 30 33 33 28 32 29 27 24 22 22 24 24 23 23 25 20 20 22 26 31 35 36 28 24 25 26 27 30 31 28 27 26 25 25 30
38 38 40 37 31 32 36 32 29 31 30 27 29 28 27 22 21 20 24 23 22 23 23 23 21 23 27 33 35 38 33 29 27 25 27 28 31 30 28 26 25 28 27
38 38 39 35 30 32 34 31 30 26 24 25 28 26 25 20 19 20 22 22 22 22 24 22 24 25 27 33 36 36 32 30 26 25 28 24 26 27 28 25 26 28 24
38 38 37 29 24 28 32 28 27 25 23 24 26 24 20 18 17 20 20 22 24 24 25 24 22 25 28 38 43 36 34 33 22 24 29 24 26 29 28 27 25 24 24
36 40 30 26 22 28 29 27 27 25 22 25 24 21 18 20 22 22 22 23 26 26 27 24 24 27 30 37 41 33 30 31 22 24 29 28 27 28 29 28 26 26 26
35 31 31 19 24 26 27 30 25 22 23 23 22 19 18 22 22 19 21 25 26 27 27 28 27 28 34 31 38 38 35 28 26 27 29 29 29 28 31 31 31 29 29
29 30 30 22 30 28 27 28 22 21 22 21 19 18 21 22 18 19 18 21 24 26 27 28 28 24 33 34 33 35 40 32 30 29 29 27 27 29 28 31 30 28 28
34 35 26 28 33 31 29 26 24 23 20 19 17 18 21 20 16 18 21 23 26 24 26 28 30 29 36 36 35 32 37 39 29 25 28 26 23 25 26 25 24 24 25
41 35 28 34 32 29 30 27 24 22 17 17 16 18 20 17 13 17 20 22 22 28 30 27 32 36 35 30 35 32 33 35 33 34 35 27 26 25 24 24 25 25 25

GFSSE_500_spd_090.txt.gz
Wind_Speed
29 28 24 20 20 19 19 19 18 19 21 22 22 23 22 22 23 24 23 24 24 25 24 24 24 24 25 27 30 31 29 26 24 24 24 25 23 15 15 17 14 11 11
31 30 27 23 21 20 20 19 20 20 22 23 24 24 24 24 24 25 25 25 24 24 24 25 26 26 26 27 28 31 31 29 25 25 25 26 24 20 17 16 16 12 12
34 35 32 26 25 22 21 21 21 22 23 23 24 25 25 26 25 24 25 27 27 25 25 26 27 25 27 29 29 30 30 29 28 27 27 28 25 23 21 20 17 14 12
35 35 36 29 25 23 22 23 22 22 23 22 24 24 25 26 25 24 24 25 26 27 28 28 28 28 29 29 28 28 29 29 28 27 28 29 24 22 22 20 16 13 12
34 34 35 33 30 27 24 25 24 23 24 25 26 26 27 27 30 29 27 27 26 28 30 29 31 29 30 28 28 26 26 29 29 29 29 24 22 22 20 18 16 14 12
36 33 34 34 35 30 26 26 25 26 26 25 25 25 27 30 30 31 31 29 27 27 31 31 33 31 34 30 26 27 26 28 29 28 26 23 22 22 20 18 16 14 11
34 34 36 38 36 31 27 28 28 30 28 27 26 26 26 27 30 31 32 31 29 28 28 30 35 36 39 31 25 28 27 27 28 28 26 24 23 22 19 19 17 15 13
38 33 35 38 38 34 29 29 30 33 31 29 29 28 26 27 30 33 34 31 28 28 28 26 27 33 41 36 26 27 27 28 27 26 25 23 23 21 20 20 19 16 14
37 36 36 36 38 37 32 31 31 34 34 31 30 29 29 27 31 32 35 31 26 28 32 28 29 33 44 29 25 26 27 27 27 26 24 22 22 22 22 21 20 17 15
38 36 36 38 40 41 35 34 34 34 36 34 32 30 32 31 30 32 31 29 26 32 31 27 23 31 37 33 17 24 26 27 28 25 24 24 23 23 24 22 20 18 17
40 30 34 39 40 41 38 37 35 34 36 37 34 33 34 32 30 29 29 29 27 32 26 29 23 24 36 27 18 19 25 25 24 24 25 25 25 24 24 23 21 19 18
43 34 29 38 40 42 41 39 36 34 36 39 37 36 35 33 30 27 28 28 29 30 28 29 25 34 32 28 29 20 21 22 20 23 25 27 24 24 25 24 22 20 18
47 39 34 38 38 42 41 39 36 35 35 39 39 38 37 33 28 27 27 26 28 25 26 26 23 27 31 28 29 25 21 21 20 23 25 28 27 25 26 24 22 21 20
51 44 37 36 41 41 41 40 38 36 36 42 40 40 38 30 27 27 28 26 25 24 25 23 24 21 39 32 31 26 22 27 24 26 25 27 25 25 24 23 23 21 20
51 47 36 32 39 43 42 40 39 34 37 41 40 42 37 28 26 28 28 26 22 23 23 21 20 14 22 30 30 28 23 27 28 23 25 29 27 27 27 25 25 23 21
53 50 37 37 37 44 40 39 40 36 38 40 40 41 34 28 27 27 27 25 23 24 23 22 19 16 18 28 31 29 24 26 26 26 26 29 27 27 26 25 23 23 22
56 52 41 37 35 42 41 38 41 37 37 40 40 38 32 28 26 27 26 27 25 23 25 24 19 19 20 29 26 30 29 28 27 27 30 30 27 26 26 25 25 23 22
55 52 39 39 36 38 38 39 41 37 37 39 40 37 32 27 25 25 26 28 29 26 26 25 25 20 22 25 29 29 29 31 29 28 32 29 28 28 28 26 27 26 25
54 47 39 40 36 36 35 37 42 35 35 36 38 34 32 27 25 25 27 28 27 25 25 26 26 23 22 24 26 29 34 30 27 25 29 27 29 30 29 26 24 24 26
44 41 40 42 37 36 37 42 38 31 32 36 35 32 31 26 25 25 25 26 25 25 26 25 25 26 24 25 27 31 37 35 33 30 30 26 27 29 30 30 28 28 28
40 39 44 43 37 35 33 37 32 30 34 36 32 31 28 25 25 23 20 21 23 25 26 24 25 22 25 25 28 33 46 38 37 36 31 27 27 30 28 29 29 27 27
36 38 40 33 36 30 35 38 32 34 34 34 29 27 26 27 25 21 21 21 25 27 28 27 25 26 26 25 30 37 42 39 40 36 32 30 29 31 30 30 28 29 29
39 40 42 35 33 30 36 39 35 37 34 29 24 26 27 27 24 22 21 22 26 28 27 29 27 28 27 27 30 39 42 36 38 35 30 32 30 32 31 30 31 32 32
35 39 33 34 32 32 35 35 34 34 29 27 26 26 28 25 23 21 20 21 20 21 27 30 30 29 30 27 25 44 39 32 31 35 37 35 34 33 33 31 34 35 34
38 31 31 33 32 33 35 35 35 32 29 28 24 25 27 24 21 19 21 20 19 21 23 29 30 29 31 26 27 33 31 38 36 36 33 32 33 34 34 31 33 34 34
38 36 35 31 24 34 36 38 36 32 31 27 24 25 26 22 18 19 19 18 19 21 25 30 33 30 30 27 30 30 34 31 34 36 38 35 34 33 32 32 31 32 30

GFSSE_500_spd_093.txt.gz
Wind_Speed
23 25 25 25 23 24 25 24 23 23 21 21 22 22 22 21 22 23 22 23 23 23 22 21 21 21 21 23 24 25 26 25 24 22 22 22 23 22 19 14 13 13 12
28 29 28 27 25 23 26 26 24 23 23 23 23 22 23 23 23 22 22 23 21 21 22 23 24 24 24 23 24 25 25 26 26 25 24 23 22 21 17 15 16 16 14
30 31 31 30 31 24 26 28 26 25 25 24 23 23 23 24 24 22 21 23 22 20 21 22 25 27 27 25 23 24 25 25 26 27 26 23 23 22 21 19 17 16 15
32 33 33 33 30 26 25 27 28 27 28 26 24 24 25 26 26 26 27 28 26 24 24 24 27 29 28 28 25 23 25 25 26 28 27 26 24 24 22 20 19 17 16
32 33 34 34 34 31 27 28 29 30 30 29 27 26 25 27 27 27 27 26 27 25 25 25 27 30 30 30 29 25 24 25 26 26 27 26 24 21 20 19 20 17 15
35 34 34 35 35 34 32 31 30 30 31 31 30 29 28 28 28 29 28 28 29 28 26 24 28 29 28 32 35 27 25 26 25 25 27 26 24 22 19 19 19 18 16
40 36 33 34 36 36 33 33 31 30 32 33 33 31 30 30 30 31 31 30 29 28 25 26 28 29 26 25 31 35 28 25 26 24 26 26 23 21 19 19 18 18 16
40 39 36 35 37 37 35 33 32 32 32 32 35 33 31 31 31 31 32 34 33 31 28 27 27 28 30 28 29 39 30 22 23 22 25 24 21 21 20 19 19 18 16
40 39 37 37 38 40 37 35 36 35 33 34 36 35 33 33 32 33 34 36 34 32 28 27 27 30 29 25 30 39 31 22 21 23 23 22 22 22 20 19 19 19 16
43 41 38 38 40 40 39 37 37 37 36 35 36 37 37 36 33 34 35 34 36 31 26 28 27 26 31 26 27 36 25 20 21 22 22 21 21 20 20 20 21 20 17
51 46 41 34 37 38 39 38 39 41 39 37 37 38 39 37 34 35 35 34 33 29 27 29 29 27 28 25 24 27 23 18 18 19 22 23 21 20 20 21 22 20 18
53 53 48 36 33 35 38 39 40 42 41 37 38 39 42 38 34 37 35 33 30 29 28 29 28 29 25 28 24 31 24 15 17 19 21 22 24 22 22 22 22 20 18
53 49 51 48 37 34 39 39 40 41 42 38 38 38 42 38 35 36 36 32 28 29 29 28 28 28 24 27 26 33 28 17 18 19 21 24 23 22 22 23 22 20 18
50 49 51 51 41 40 40 40 39 42 41 37 37 38 42 39 38 36 36 31 26 27 29 28 28 25 25 28 29 33 30 22 20 21 22 23 23 22 22 22 22 21 20
56 53 53 53 49 38 37 45 43 42 40 38 34 38 41 38 39 36 35 29 24 26 29 26 26 25 23 22 29 32 29 23 24 25 26 26 25 23 21 21 21 21 20
59 60 57 55 52 40 41 48 48 44 43 37 33 38 39 39 39 36 33 26 25 26 28 26 25 24 23 19 26 31 32 26 26 27 27 28 26 25 23 23 23 22 23
66 63 59 56 58 44 43 46 48 44 41 36 34 37 38 39 39 35 31 25 27 27 28 27 25 24 21 22 15 32 30 27 25 28 28 32 26 26 27 25 25 24 24
70 70 64 59 54 42 40 44 45 43 41 38 35 36 36 38 37 33 29 25 27 27 28 28 26 24 23 22 20 22 30 30 25 27 29 35 29 27 27 27 25 25 24
72 69 66 63 54 46 41 42 43 45 43 38 35 34 35 36 35 31 29 27 28 29 29 31 29 27 26 26 24 30 27 26 30 29 30 35 29 29 29 28 27 27 26
68 73 70 65 52 42 44 43 46 50 39 37 36 32 34 34 31 29 28 28 29 31 30 31 29 27 28 29 27 29 32 34 29 31 31 35 31 28 28 29 28 26 25
57 62 66 63 54 47 46 42 46 46 32 32 31 33 35 31 31 28 27 30 28 30 30 31 30 28 29 31 28 28 28 30 36 35 36 33 29 28 27 30 31 31 28
49 52 53 46 50 45 44 39 43 39 37 41 36 37 35 33 31 26 29 28 28 27 28 29 29 28 29 31 31 29 29 28 35 37 36 34 33 30 27 31 34 34 33
45 50 49 43 43 46 41 40 44 41 38 39 35 36 29 32 29 27 29 27 28 27 27 27 28 28 31 34 32 31 30 31 29 36 37 38 37 33 28 31 35 37 35
47 41 44 42 40 41 37 43 46 37 34 40 30 28 32 28 29 29 27 27 26 25 23 24 28 28 33 34 32 33 31 35 39 40 40 40 40 35 32 32 35 36 36
38 38 41 44 36 34 37 45 40 41 39 39 33 32 29 28 30 28 26 25 23 23 22 22 22 29 34 35 34 34 31 34 36 41 42 38 38 32 33 34 37 37 37
38 40 37 42 41 40 39 39 40 40 35 37 30 28 26 30 31 26 25 24 22 23 22 21 23 29 34 34 35 35 30 29 32 34 31 36 35 36 38 44 36 37 39

GFSSE_500_spd_096.txt.gz
Wind_Speed
23 22 19 20 19 18 17 21 25 26 24 22 19 18 18 20 22 22 22 22 19 18 16 15 16 19 20 21 21 20 20 20 20 21 20 19 17 17 17 14 15 17 14
27 26 24 23 22 22 20 21 25 26 26 24 22 20 18 18 21 23 23 23 21 20 16 17 17 19 22 23 22 22 21 21 21 21 19 20 19 17 16 15 15 15 15
30 30 29 28 27 26 25 21 24 26 28 26 24 22 21 20 20 22 25 26 26 26 20 18 18 19 23 23 22 21 22 24 23 20 21 20 20 18 18 17 16 15 16
31 31 31 31 30 30 28 27 25 27 26 27 28 25 23 22 22 23 24 26 27 23 23 21 22 21 22 23 22 23 23 24 24 22 22 23 21 20 20 19 17 17 17
33 34 34 33 32 32 31 29 29 29 28 28 30 29 26 24 25 25 25 27 27 28 27 23 23 21 23 24 21 22 27 28 25 24 22 23 23 21 21 20 19 17 16
38 37 37 34 34 33 33 31 29 30 31 29 31 32 29 26 26 25 26 27 29 31 29 27 25 25 27 28 23 21 21 29 28 23 23 23 22 22 20 16 16 16 16
40 39 39 36 33 32 34 34 31 30 31 30 31 32 32 28 27 26 27 28 29 32 34 31 29 30 26 25 24 24 23 26 34 24 23 22 21 20 19 16 15 16 17
42 42 38 36 36 36 36 36 35 33 32 31 31 33 34 32 28 28 28 29 30 33 36 34 32 30 23 24 24 24 26 28 33 21 22 21 21 20 20 16 17 18 18
45 43 41 39 38 37 37 38 37 36 36 34 34 34 35 35 33 30 30 30 31 33 35 36 33 26 23 24 23 22 26 26 27 17 20 20 18 21 19 18 19 19 18
45 45 44 42 39 38 39 40 40 37 35 36 34 34 37 36 36 34 32 31 31 32 36 35 30 24 24 23 26 23 29 28 26 14 17 17 21 21 17 17 19 19 17
46 48 48 46 40 37 36 38 39 38 35 36 37 36 38 37 37 38 34 34 32 33 37 35 29 26 26 25 26 27 26 23 23 15 16 18 20 19 18 19 20 19 18
49 50 52 52 49 40 34 34 36 39 37 38 39 36 39 39 36 39 37 34 32 34 38 36 31 26 26 26 25 28 27 22 24 16 16 20 22 20 20 20 19 19 19
50 50 50 49 47 48 34 33 36 33 39 39 40 36 39 41 36 38 39 36 31 35 38 36 30 28 26 28 25 27 27 27 23 18 20 21 21 21 21 20 20 20 19
51 52 50 51 50 50 44 36 34 38 39 39 35 35 35 40 37 37 39 37 31 36 37 34 31 28 26 24 27 26 25 22 26 21 21 22 22 23 22 23 22 21 21
52 55 52 51 50 50 49 45 37 39 44 41 38 35 36 38 38 37 38 36 31 35 36 33 28 27 25 24 26 26 27 27 31 27 27 23 24 23 24 23 23 21 19
54 55 55 54 54 55 54 51 45 44 47 46 46 40 39 37 38 38 37 34 32 35 35 31 27 26 25 25 26 29 27 29 33 30 29 26 25 23 22 22 23 21 21
57 58 59 60 60 61 60 58 47 46 49 49 46 40 40 38 39 38 37 33 32 33 32 29 26 25 26 25 25 26 22 35 33 31 29 31 29 27 25 24 24 23 23
62 63 63 61 62 64 65 61 52 47 51 49 42 40 39 38 40 37 36 32 31 31 30 28 26 26 27 26 27 20 21 31 33 33 30 30 27 25 26 27 25 25 25
64 67 69 69 62 63 67 66 53 48 46 49 41 41 40 38 39 38 34 30 30 30 29 28 27 28 28 26 27 21 29 31 31 29 31 29 27 30 28 26 26 25 27
61 64 70 74 69 64 68 67 58 53 45 46 42 38 40 39 38 37 33 29 28 29 29 29 29 29 29 28 29 25 24 24 33 32 29 33 33 36 31 30 31 29 29
62 65 64 64 63 64 69 68 60 48 45 43 41 36 40 40 36 36 31 28 27 27 28 31 31 31 30 29 30 26 27 27 28 29 29 31 36 34 29 31 32 31 31
51 58 55 56 59 61 62 66 66 51 49 42 45 44 41 40 37 36 29 27 27 28 30 32 30 30 30 32 29 27 31 30 32 33 38 31 37 32 28 30 31 32 32
47 52 54 55 58 54 57 52 57 51 47 47 49 48 44 44 43 36 29 27 29 31 30 31 28 29 29 32 30 30 31 32 30 32 36 35 37 37 34 31 31 31 31
45 48 55 57 55 47 49 48 47 40 46 40 47 44 50 47 39 28 27 27 29 29 30 29 29 30 30 30 30 32 32 31 33 33 36 33 36 37 35 33 34 33 30
40 39 47 48 44 45 46 46 42 45 44 42 45 43 36 40 39 26 24 28 27 28 28 28 28 27 28 30 29 33 35 34 33 32 37 32 33 36 36 38 38 37 31
35 39 43 42 41 45 42 39 41 43 42 41 45 41 37 31 29 24 29 27 26 26 27 28 27 26 25 26 29 33 36 37 33 34 37 38 40 41 40 41 40 40 33

GFSSE_500_spd_099.txt.gz
Wind_Speed
21 21 20 19 18 15 14 17 21 24 23 20 19 19 19 17 15 17 18 19 21 19 18 16 16 15 12 15 15 16 17 16 16 17 15 15 16 15 14 12 11 12 14
25 24 22 23 23 20 19 18 22 26 26 25 23 20 19 18 17 17 18 19 21 22 22 19 16 16 16 16 17 17 16 16 18 17 16 16 19 17 16 14 13 14 14
30 29 28 27 26 24 24 22 22 24 27 27 27 24 21 19 19 19 19 20 21 22 22 21 19 18 19 18 18 17 17 18 19 18 17 18 19 19 17 15 14 12 12
31 31 30 29 29 28 27 28 25 25 26 27 28 28 25 21 21 21 21 21 21 22 24 25 22 18 20 21 22 20 18 18 20 21 18 16 20 20 19 17 15 15 13
33 34 34 34 33 30 29 29 27 26 27 25 26 29 29 26 23 22 22 23 23 22 23 25 24 23 23 26 27 25 19 19 18 22 20 18 20 22 20 18 15 14 14
34 33 34 35 35 34 32 31 29 28 27 26 27 29 31 30 26 24 24 24 24 24 24 25 27 25 25 28 28 26 21 20 20 20 24 17 22 23 22 18 15 16 14
35 35 34 35 36 35 34 35 34 31 30 28 26 28 31 31 28 27 25 25 25 25 26 26 28 26 26 27 23 22 21 21 21 18 24 23 26 23 21 18 16 15 15
36 36 37 37 36 36 36 36 35 35 33 32 30 30 31 33 30 28 29 26 27 27 28 28 28 28 26 24 21 20 19 18 20 24 26 22 24 24 20 19 16 16 15
37 37 38 37 37 38 38 39 38 36 34 32 30 32 33 34 35 31 30 29 29 28 29 29 29 29 28 24 21 22 18 18 22 26 26 25 23 22 21 20 18 17 16
38 38 39 40 39 40 40 40 39 38 36 35 32 32 34 33 36 35 31 32 32 30 30 30 31 30 29 26 22 21 20 23 26 23 23 25 21 23 22 20 19 18 19
41 41 41 42 43 43 40 38 35 36 35 32 32 31 33 34 36 39 32 33 35 32 30 30 32 29 30 28 23 23 23 28 26 21 22 23 22 22 23 20 20 19 19
43 44 44 44 45 44 43 36 33 33 30 31 31 32 32 35 36 39 35 33 34 35 31 32 33 29 31 30 24 26 26 30 25 24 23 23 23 22 23 22 20 19 20
46 46 46 45 46 46 45 39 34 32 28 31 30 35 34 34 37 39 36 33 34 37 33 32 33 30 30 28 27 25 27 26 25 23 24 22 24 25 23 23 21 20 21
48 50 48 48 47 49 48 45 40 36 33 34 33 34 37 34 36 39 36 34 34 36 34 33 33 29 28 28 24 25 25 25 25 23 26 24 23 25 25 24 23 22 22
52 52 52 51 50 52 48 45 46 45 39 36 39 39 36 37 36 41 40 35 33 36 34 32 30 29 29 27 24 25 27 26 25 24 30 25 24 24 25 27 26 23 22
54 55 54 54 52 53 50 50 49 52 49 40 40 44 44 38 39 40 42 40 34 36 33 32 28 27 29 26 25 26 26 28 24 28 31 27 26 27 27 28 27 25 25
54 53 56 57 55 54 56 54 54 56 54 48 46 47 50 44 40 43 45 45 35 36 33 32 26 26 28 27 27 28 27 27 27 26 36 29 27 28 30 30 28 26 25
50 51 52 53 55 57 58 60 60 58 57 54 50 47 51 49 41 46 44 45 39 35 32 30 26 26 27 28 28 28 28 29 24 30 37 33 32 32 31 25 25 27 27
49 50 52 54 54 55 60 63 62 65 62 58 50 50 50 51 44 43 43 42 41 35 32 30 25 26 27 29 31 28 28 26 31 32 39 35 33 32 29 31 29 26 26
48 50 53 57 58 63 68 68 67 65 65 62 50 49 47 48 44 41 43 41 43 35 31 26 24 25 28 30 31 29 29 25 26 30 32 40 34 32 31 33 31 30 28
50 54 56 57 62 67 70 74 74 68 68 59 52 51 47 49 42 41 42 42 43 36 30 26 24 27 30 31 33 28 29 26 25 23 35 34 32 29 29 31 30 28 29
53 57 55 56 57 63 68 67 68 67 68 66 59 49 48 47 38 39 41 42 41 37 29 25 25 29 30 32 32 28 31 27 24 25 25 33 35 38 36 36 32 31 31
57 57 55 52 50 49 49 54 59 63 66 64 62 53 48 46 42 45 43 42 40 36 27 26 27 31 31 31 28 29 31 27 25 29 29 31 32 40 40 41 34 33 31
56 52 49 48 48 49 47 47 52 56 55 52 46 41 39 45 48 46 48 45 42 34 26 28 31 32 30 29 28 28 30 28 26 31 29 29 31 33 33 38 38 33 32
48 46 44 43 44 44 46 45 51 47 41 43 38 34 38 46 47 49 56 50 39 29 27 31 32 31 29 29 29 29 31 30 30 32 33 34 35 38 36 42 38 39 36
35 37 32 37 41 39 39 37 43 39 39 45 40 39 43 42 45 48 37 50 27 24 28 31 29 28 27 29 28 26 30 31 31 34 33 37 36 38 38 36 38 39 37

GFSSE_500_spd_102.txt.gz
Wind_Speed
21 19 19 17 16 17 16 17 17 18 20 22 20 19 21 18 15 14 12 12 13 14 14 14 13 10 9 13 14 15 14 14 15 16 16 14 14 14 14 12 10 9 10
28 26 24 22 22 22 21 19 21 23 23 24 24 21 21 22 19 16 16 15 15 15 15 15 13 12 12 14 16 17 16 16 15 16 15 17 16 17 16 15 14 13 14
31 29 28 27 26 25 25 24 24 24 25 27 27 25 22 22 23 19 18 17 18 18 18 17 17 16 13 15 18 19 19 20 19 18 17 17 17 17 17 17 14 14 13
30 31 31 31 30 29 28 27 27 27 26 27 28 28 25 23 23 23 20 19 19 20 20 19 18 17 18 19 20 21 22 22 19 19 18 16 15 16 19 18 16 16 14
28 29 31 31 32 32 31 29 28 28 28 28 28 28 27 25 24 24 24 21 21 22 21 20 19 20 20 20 22 23 23 22 20 18 11 14 18 21 22 20 18 16 15
29 30 29 31 31 31 31 30 30 29 29 29 29 28 28 27 26 25 25 24 23 23 22 22 21 21 21 21 23 24 19 20 20 20 17 15 20 22 21 22 19 17 16
31 31 32 32 32 32 32 32 32 31 30 30 30 28 28 27 26 27 26 26 25 24 23 24 23 23 22 22 23 22 17 20 19 20 19 17 21 25 25 23 21 18 16
33 32 32 32 32 32 32 32 32 33 32 31 31 30 29 30 29 27 27 26 26 26 25 25 24 23 23 23 23 21 19 19 21 18 16 20 24 21 27 25 22 19 17
36 35 34 34 34 34 33 33 34 34 32 33 33 32 31 32 31 31 29 28 27 27 27 27 26 26 25 25 23 22 21 20 20 21 19 19 27 22 27 25 23 21 19
37 39 38 37 36 35 36 36 36 35 33 33 33 35 34 32 33 33 32 28 28 28 30 29 27 26 26 27 22 22 23 21 21 24 26 21 31 24 28 26 24 22 21
38 38 39 40 40 38 38 38 39 37 34 33 29 30 32 29 31 32 34 33 29 28 30 32 31 27 28 28 24 24 26 23 23 25 27 24 27 26 30 29 27 24 22
40 40 41 42 43 42 42 42 42 37 35 31 28 29 30 31 30 32 34 36 34 29 32 33 33 28 28 28 26 24 25 26 24 25 26 24 25 28 32 30 28 25 23
40 41 43 44 44 44 44 45 43 39 34 33 30 32 31 33 33 34 32 33 34 31 32 34 35 31 29 29 26 25 25 26 26 27 24 23 25 28 30 34 27 26 24
43 45 45 47 47 46 46 46 45 42 38 38 35 34 34 33 34 36 36 33 35 32 32 34 36 32 30 29 27 26 27 28 27 24 22 23 25 29 30 23 26 27 27
44 46 48 49 50 50 49 49 48 45 43 43 38 37 36 36 34 36 36 39 36 37 32 35 36 34 31 29 28 27 28 27 27 23 22 24 29 31 32 37 28 29 28
46 47 49 51 52 53 52 51 49 49 45 39 39 38 39 39 39 38 38 39 41 40 35 35 37 36 31 29 27 27 27 28 26 24 23 25 30 28 31 28 30 31 29
47 49 49 51 53 54 53 54 52 50 50 54 51 46 42 42 43 44 42 41 45 46 41 38 38 38 33 28 27 26 28 30 27 26 24 26 29 31 39 41 32 32 30
46 48 50 50 52 53 53 54 54 54 54 54 55 53 51 46 45 48 46 45 45 48 46 41 38 40 33 28 28 27 29 30 29 28 26 27 28 35 31 50 33 33 31
44 43 44 47 48 48 50 52 54 56 57 59 59 58 55 54 47 50 50 49 47 47 48 42 38 39 33 28 27 28 30 31 30 30 28 31 30 34 41 32 29 32 30
41 41 44 46 47 50 51 52 53 56 58 63 65 62 55 48 48 48 49 49 48 47 47 43 37 38 31 29 27 29 30 32 30 30 27 34 39 35 42 38 32 28 30
41 42 44 46 49 50 52 55 59 62 64 68 67 67 62 59 55 52 49 48 47 48 47 45 36 35 31 30 29 29 30 31 32 29 24 24 45 32 39 36 36 33 33
41 42 45 49 50 53 55 58 61 62 66 69 69 68 63 59 53 53 50 47 45 48 44 45 39 33 32 31 30 30 31 30 30 28 25 27 44 35 40 36 29 29 37
42 45 46 52 57 58 61 61 61 59 60 62 68 63 58 55 54 51 48 46 45 48 45 45 41 34 31 32 30 31 30 26 29 28 27 28 44 41 41 37 34 33 35
44 49 51 55 57 60 60 55 48 47 45 46 55 51 51 54 55 55 54 47 45 49 47 47 42 35 33 32 31 30 30 25 28 28 27 28 23 33 38 34 35 37 39
46 49 52 51 54 49 48 49 47 45 43 47 47 48 49 48 51 49 50 59 42 52 47 45 46 38 34 34 30 30 31 27 28 28 26 31 28 26 25 40 42 42 40
48 49 51 46 40 44 46 47 46 43 41 43 40 39 42 45 43 39 43 44 42 48 53 48 49 40 37 32 31 30 30 27 28 28 29 32 32 32 33 32 35 41 43

GFSSE_500_spd_105.txt.gz
Wind_Speed
24 23 23 23 21 19 18 17 16 17 17 18 20 20 19 17 17 16 15 14 12 12 12 11 9 7 8 11 14 14 15 14 14 17 16 16 16 17 17 16 11 10 10
28 27 27 27 25 24 23 23 22 23 23 22 21 22 22 21 19 18 18 17 15 14 15 15 13 11 10 11 14 17 18 17 16 17 19 19 18 18 19 17 16 14 12
31 30 30 29 29 29 28 25 24 25 27 27 26 24 25 24 23 20 20 19 18 16 16 16 16 15 12 12 14 16 19 19 19 18 18 19 19 19 19 20 19 15 12
29 29 30 29 30 30 29 27 26 26 27 27 27 27 28 27 26 25 22 22 21 19 18 17 18 17 16 15 16 17 19 21 19 18 18 18 15 17 20 19 20 16 13
27 28 29 29 29 29 30 30 29 27 27 28 28 27 26 25 24 24 25 24 24 23 21 18 18 19 18 18 18 19 21 20 16 18 16 15 17 16 21 22 22 17 15
29 28 28 30 31 31 31 32 32 32 30 28 28 27 27 25 23 24 25 25 24 24 23 20 19 19 20 19 20 20 20 19 18 19 18 19 18 17 19 27 16 18 17
30 30 29 30 31 32 33 32 33 33 32 30 28 27 27 26 24 24 25 25 24 24 24 23 22 21 22 21 21 21 22 17 20 21 20 18 18 21 19 27 28 22 19
31 31 31 32 33 33 33 34 32 32 33 30 28 27 28 28 27 26 27 27 25 23 25 25 24 24 23 22 23 22 22 21 20 22 22 20 18 19 22 24 19 20 22
30 29 32 33 34 34 34 34 33 33 32 31 30 29 29 30 30 30 31 28 27 24 24 25 25 24 25 23 23 24 23 22 20 21 22 24 25 22 23 24 29 22 23
34 32 31 33 34 34 34 35 35 35 35 33 32 30 31 32 33 34 35 31 30 26 24 26 26 25 26 26 24 25 24 23 22 23 23 25 30 27 25 26 31 27 26
36 36 36 36 35 36 36 37 37 37 37 36 33 30 31 35 35 34 35 34 32 28 26 24 27 27 29 26 25 25 24 25 23 24 25 24 28 28 26 30 31 28 27
37 37 38 38 38 39 39 39 39 40 40 37 34 32 33 34 36 35 36 35 35 31 29 27 26 26 29 28 27 27 24 26 24 24 26 26 29 27 27 32 32 31 30
40 41 41 41 42 42 42 41 42 43 42 39 36 34 33 34 34 37 36 36 36 32 30 30 26 25 28 29 27 26 24 25 27 27 27 26 29 29 27 32 28 33 30
43 42 42 42 43 44 44 43 43 43 44 41 37 39 37 36 36 36 35 36 37 36 33 31 30 26 27 29 29 28 25 26 29 27 27 26 26 28 28 30 28 32 33
43 43 43 43 44 45 46 46 45 45 44 44 41 41 41 39 39 40 40 39 40 40 34 34 32 31 28 29 29 29 27 28 28 26 28 25 27 27 27 32 31 36 37
44 46 46 47 47 48 48 48 47 47 46 46 44 40 41 44 42 40 41 41 43 41 39 35 35 33 33 30 30 30 31 30 29 28 28 23 27 25 27 32 32 40 34
44 45 46 48 49 49 49 49 50 49 49 49 48 44 42 38 39 41 41 44 45 46 41 41 39 37 35 36 31 32 31 32 30 30 28 25 26 25 26 34 34 45 35
44 44 44 46 47 48 49 50 51 51 50 51 52 49 47 45 47 47 46 43 47 50 44 44 43 45 40 38 36 32 32 33 32 32 29 28 28 26 29 35 34 40 32
41 42 43 44 46 47 47 47 48 49 50 51 51 52 49 50 51 51 48 47 49 51 49 49 45 46 47 40 38 35 31 34 34 33 31 30 30 33 33 36 43 35 39
39 40 42 43 44 45 43 43 44 46 49 50 52 51 51 53 54 54 52 47 49 48 50 49 49 48 49 44 40 36 32 34 36 32 31 32 33 34 34 38 41 39 49
41 39 37 37 40 42 44 45 45 45 47 50 51 54 55 58 59 59 57 49 48 44 46 50 53 51 51 47 43 37 35 36 36 33 30 31 33 34 36 40 41 36 36
41 39 38 39 41 45 45 45 46 48 51 54 56 59 62 64 66 66 59 51 52 50 51 48 51 51 51 48 45 39 36 36 35 32 31 32 33 31 38 40 34 38 34
41 39 40 41 43 46 49 48 50 54 57 61 63 64 68 67 66 60 68 52 53 50 44 46 50 53 52 48 44 40 37 37 36 33 32 31 31 28 30 36 34 30 34
39 40 41 43 46 48 49 52 53 57 60 64 67 69 62 60 62 62 58 60 54 52 48 47 50 51 51 48 44 39 38 38 36 31 31 29 30 29 31 42 38 34 30
39 40 42 44 47 51 49 52 57 60 61 55 53 55 52 53 54 52 51 56 55 54 56 54 57 51 51 46 43 39 40 39 36 31 29 30 30 28 27 40 40 39 37
42 42 43 45 47 49 48 51 55 53 47 48 51 51 48 48 46 45 50 55 54 62 57 57 60 56 52 46 44 40 41 42 36 32 30 30 31 30 30 25 40 43 42

GFSSE_500_spd_108.txt.gz
Wind_Speed
18 23 23 23 24 23 22 21 19 19 19 18 19 19 19 17 17 15 16 16 16 15 13 13 13 12 10 9 9 12 13 14 15 16 15 15 17 18 18 19 18 13 13
22 26 26 26 26 26 26 27 25 24 24 23 21 21 20 19 20 19 16 17 17 17 16 15 15 14 13 11 10 13 14 15 17 18 19 17 18 19 18 20 18 15 19
23 28 28 28 29 29 29 29 29 27 26 27 25 25 23 23 23 20 18 17 17 18 18 17 16 15 15 15 13 14 15 18 17 19 19 20 19 18 18 20 19 18 16
25 28 27 30 30 30 29 29 29 29 30 30 30 28 27 27 26 24 22 19 17 18 19 18 17 16 15 15 16 16 17 18 18 17 18 22 20 13 14 18 19 20 18
27 26 27 28 29 30 31 30 30 30 30 31 30 30 30 29 27 25 23 22 19 18 19 20 19 18 17 16 17 18 18 18 19 15 19 19 26 6 13 18 18 19 18
28 28 27 28 28 30 31 32 32 32 32 31 31 31 30 28 26 24 23 22 22 21 20 20 21 20 18 18 16 17 19 18 20 18 20 18 17 12 14 16 21 23 23
29 27 28 29 29 31 32 32 32 33 33 33 32 30 28 27 26 24 22 22 22 23 24 23 21 21 19 18 17 17 19 19 19 19 22 17 19 20 16 18 23 21 19
29 28 28 30 30 31 32 32 33 34 32 33 31 29 27 26 26 25 24 23 23 25 25 25 24 23 22 20 18 18 19 19 20 19 22 22 22 20 16 19 22 20 27
32 31 28 29 30 31 32 33 33 33 32 33 31 30 28 26 26 29 28 27 28 26 25 26 24 24 24 23 21 19 20 20 21 18 21 20 27 17 26 27 24 19 25
33 36 34 32 32 32 33 34 34 34 35 34 32 31 30 29 29 30 32 30 30 29 26 27 25 23 24 24 23 22 21 20 20 18 23 25 28 25 27 21 25 30 26
34 37 37 37 35 34 35 35 36 36 37 35 34 33 30 31 33 33 34 33 33 31 29 26 26 26 23 23 23 24 23 22 21 20 24 23 26 28 28 26 28 32 29
40 36 39 39 37 37 37 37 38 38 38 38 37 34 32 32 35 36 35 35 35 33 32 30 26 25 26 25 24 23 23 23 22 22 22 24 24 25 28 31 27 29 32
42 38 40 41 41 41 40 40 40 40 40 40 39 36 34 33 34 35 34 35 36 35 35 33 29 26 25 25 25 23 22 22 23 24 23 26 25 27 29 29 27 26 29
43 41 39 41 42 43 44 42 41 41 42 41 41 39 36 34 35 34 36 34 37 37 36 35 35 32 27 26 25 25 22 22 24 25 26 25 27 26 29 30 25 23 24
45 42 43 41 41 43 44 42 42 42 43 42 44 41 39 37 37 38 37 39 37 40 38 39 36 36 33 29 25 27 25 23 24 25 26 27 28 29 28 32 27 23 33
44 44 45 45 45 46 45 47 45 44 44 43 44 43 40 39 38 37 40 40 43 39 39 39 40 38 37 32 29 28 27 27 26 27 27 29 28 31 30 31 27 21 32
49 46 43 47 47 46 46 48 48 46 46 44 45 46 43 42 39 37 39 40 40 38 38 40 41 42 42 38 34 33 30 29 30 29 30 31 28 32 31 30 28 25 29
47 45 43 42 44 45 45 46 47 47 47 47 46 45 45 44 44 41 42 41 44 44 41 39 41 43 44 42 41 38 36 32 31 31 32 32 30 31 33 32 27 28 31
49 43 42 41 40 41 44 45 46 46 47 46 46 47 48 44 46 44 43 41 45 48 45 43 44 45 47 45 46 43 41 37 34 34 34 33 31 34 32 34 30 28 30
45 41 40 41 40 40 43 44 45 46 46 45 45 45 46 46 46 48 47 45 46 46 47 47 44 46 48 49 48 47 49 43 38 35 36 34 33 35 34 34 34 35 32
44 40 39 39 40 41 42 42 43 42 42 42 43 45 47 48 47 49 48 49 46 52 54 48 47 47 49 50 51 49 50 45 44 38 36 38 36 37 36 34 35 35 36
44 42 41 40 41 40 41 41 40 40 40 41 44 45 48 50 49 50 51 53 55 64 64 53 50 45 48 49 48 49 52 44 42 39 37 39 38 38 38 35 35 39 41
46 43 42 41 40 41 41 41 40 41 40 44 47 50 51 53 56 57 59 60 58 69 63 50 55 51 50 54 53 50 53 45 41 40 39 39 39 38 38 37 33 41 37
45 44 42 41 41 41 41 42 42 43 44 48 51 53 55 57 59 63 65 68 66 66 67 64 48 47 43 44 48 47 54 43 38 40 39 40 39 37 37 35 31 33 28
43 42 43 44 42 40 40 41 42 43 43 46 50 54 60 64 66 70 69 72 72 69 71 69 67 55 54 47 48 49 51 43 37 40 39 39 36 37 37 35 29 36 29
41 42 43 42 40 40 41 42 43 41 44 47 53 60 61 59 58 60 54 57 64 64 67 65 69 68 50 49 47 57 46 47 40 42 40 34 35 35 36 34 27 27 28

GFSSE_500_spd_111.txt.gz
Wind_Speed
17 21 20 21 21 22 23 23 22 21 20 20 20 21 20 20 19 17 18 17 17 18 16 15 13 12 11 11 11 11 13 15 16 16 18 19 18 16 18 18 17 16 14
20 24 24 24 25 25 26 26 25 26 25 25 23 23 23 23 22 22 21 20 17 19 17 16 15 15 13 12 12 11 12 14 16 18 20 21 18 16 17 17 16 14 13
18 21 26 26 27 28 28 29 29 29 28 26 24 24 25 25 24 24 23 20 17 17 18 18 17 16 15 14 13 12 12 14 16 18 22 20 17 19 18 16 15 12 15
24 23 25 27 30 31 31 31 32 32 31 30 29 27 25 26 26 26 25 21 18 16 17 18 17 17 17 15 15 14 14 15 17 19 22 18 16 18 19 13 11 14 17
24 24 26 26 27 28 30 32 32 32 32 31 32 31 27 27 27 27 25 22 20 17 16 18 18 18 18 17 16 15 15 16 17 18 20 18 15 17 22 8 9 14 18
25 23 27 27 28 28 29 30 31 31 31 31 31 29 27 27 26 26 24 22 21 19 17 16 17 19 19 18 17 17 16 16 18 20 22 20 17 26 5 8 13 18 15
27 23 26 28 28 29 29 30 30 31 31 31 30 30 28 26 26 25 24 22 20 21 20 19 19 18 18 19 19 18 18 17 18 22 25 19 20 19 21 15 12 12 13
29 26 26 28 29 30 30 30 30 30 31 31 30 29 28 26 26 25 24 22 22 22 22 23 22 20 19 17 18 19 19 19 21 22 25 23 19 14 26 16 19 19 17
34 31 30 30 30 30 31 31 32 31 32 32 32 30 28 27 27 26 27 25 23 25 22 23 23 21 20 19 18 19 20 21 22 23 23 22 21 24 20 21 22 23 19
31 35 32 32 33 32 33 34 34 33 33 33 33 32 30 29 29 28 29 29 25 26 26 24 23 21 20 19 19 21 20 20 22 22 24 21 22 23 14 24 22 22 20
37 35 37 35 35 36 35 35 35 35 35 34 35 34 33 32 31 29 29 31 30 27 27 25 24 23 22 21 19 21 23 22 21 22 23 22 22 21 21 23 25 22 25
44 38 38 38 37 38 36 36 37 37 37 37 37 36 35 34 33 32 30 30 31 31 31 29 26 24 23 22 22 20 22 23 23 21 23 23 23 23 21 24 26 28 25
46 45 38 41 42 39 40 37 37 39 38 39 39 38 37 35 34 33 31 31 33 33 33 33 30 26 25 24 23 22 22 22 22 24 22 23 24 24 23 23 27 28 26
48 49 42 39 43 43 42 39 39 40 40 41 40 40 38 36 35 35 34 33 33 35 35 36 36 33 30 27 24 24 25 25 24 24 25 23 22 25 22 25 28 28 27
47 48 47 43 40 43 42 41 39 40 41 41 40 40 39 39 35 36 34 34 35 36 37 38 39 37 34 32 28 23 26 27 27 27 24 26 22 25 24 25 29 31 26
48 49 50 45 42 44 45 45 44 44 43 43 42 42 41 42 39 39 36 36 37 37 37 40 40 40 38 35 33 29 28 27 28 28 27 26 27 26 26 23 29 30 27
48 47 48 47 47 46 47 46 46 47 45 43 42 41 42 43 44 38 39 39 37 38 38 40 42 42 41 40 37 33 32 31 31 29 29 29 28 29 30 23 27 30 27
50 47 43 43 44 45 46 45 45 46 46 44 43 42 41 43 44 45 43 41 40 40 40 41 42 42 41 43 41 36 35 34 34 33 30 30 31 30 32 29 26 29 29
49 48 45 43 42 45 47 46 44 44 45 44 44 42 43 43 45 48 44 41 42 42 43 43 45 46 46 44 44 43 40 38 37 38 36 35 33 32 34 32 28 27 31
48 49 50 50 46 44 44 44 43 43 43 44 44 44 44 44 44 44 46 44 42 42 43 44 46 50 49 46 47 46 44 43 38 39 41 40 37 33 35 35 31 28 31
50 48 48 49 47 44 42 42 42 42 43 43 43 43 44 43 43 40 40 44 47 46 46 47 49 54 53 47 47 45 45 44 39 42 42 41 40 38 36 34 36 32 31
52 47 48 47 47 46 43 41 40 41 41 41 41 40 40 41 42 42 43 45 47 48 49 51 53 59 59 55 52 47 45 43 43 46 47 44 41 38 36 35 35 33 32
44 43 46 47 47 46 44 42 41 40 40 40 40 39 38 40 43 45 47 50 49 53 55 57 60 67 82 75 58 52 45 43 44 48 47 42 40 39 37 36 36 34 32
42 44 43 45 46 45 43 42 41 41 41 42 40 40 40 43 46 49 51 54 58 57 62 62 64 62 70 56 60 54 47 51 50 49 51 43 42 41 39 37 37 35 33
41 42 42 44 45 44 43 42 42 42 42 41 41 42 44 47 49 50 51 55 61 64 65 66 71 72 66 61 66 47 49 51 47 52 45 42 45 47 40 38 37 34 32
40 41 43 43 43 42 42 41 42 43 43 42 42 42 42 45 48 52 57 62 65 66 64 63 73 72 72 71 71 61 54 49 46 48 49 41 41 46 44 38 35 32 30

GFSSE_500_spd_114.txt.gz
Wind_Speed
23 21 20 23 22 21 22 22 22 22 21 20 20 20 21 21 22 21 21 20 20 18 16 17 17 16 14 13 13 12 13 13 15 17 18 18 18 19 20 17 15 15 14
22 20 21 23 25 25 25 25 25 25 26 26 24 24 23 22 23 22 22 22 22 20 17 16 16 16 15 15 14 15 14 14 15 18 20 20 19 18 20 21 17 13 13
22 23 22 23 25 27 28 29 29 29 30 29 28 26 26 25 24 24 24 23 21 19 16 16 16 16 16 16 16 16 16 16 17 19 20 19 17 18 16 22 15 12 11
26 24 24 25 25 26 29 30 32 32 33 32 31 29 27 27 25 24 23 22 20 18 14 15 16 17 17 17 17 18 18 19 20 21 21 19 17 17 14 24 17 14 13
28 27 25 24 26 27 28 29 30 31 31 30 29 27 26 25 24 24 22 21 19 17 16 15 15 16 17 19 19 19 20 21 20 21 22 19 18 17 22 17 9 14 20
25 26 27 25 27 29 29 30 30 31 30 29 28 27 24 24 24 23 21 20 19 18 17 16 16 16 16 18 19 19 21 21 21 22 22 18 14 17 10 13 7 11 19
25 24 26 27 27 28 29 30 31 31 31 30 28 27 27 25 24 23 21 21 20 19 16 16 17 17 17 19 19 20 20 21 21 22 23 20 17 16 13 9 9 11 17
28 28 27 29 28 28 29 30 31 31 31 31 31 30 28 27 26 25 23 22 22 20 19 17 18 19 19 19 20 20 21 23 22 22 23 22 16 17 20 16 15 16 17
29 30 30 30 33 32 32 31 31 32 32 32 32 31 29 28 28 27 26 24 24 23 22 20 19 19 20 19 21 21 22 23 23 24 23 24 20 15 18 18 17 17 20
30 30 31 32 33 33 33 35 35 34 33 33 33 32 31 29 29 30 29 27 27 26 24 24 22 20 20 20 21 20 22 23 23 22 25 24 23 15 17 15 16 18 23
37 36 33 35 33 33 33 34 35 36 35 34 34 34 33 32 31 32 32 30 29 28 27 25 24 22 21 22 20 21 21 23 24 22 23 26 25 19 18 17 19 22 21
40 41 40 37 36 35 36 35 36 36 36 36 36 36 35 35 34 33 33 31 31 31 29 28 27 24 23 22 21 23 23 22 23 23 23 24 25 23 19 17 17 23 24
43 42 40 42 39 37 37 37 37 38 38 39 40 39 38 37 36 34 34 32 32 33 33 32 30 30 26 23 23 24 25 25 23 24 25 25 26 25 20 19 18 20 23
44 46 42 41 40 39 37 39 38 39 41 40 41 42 41 40 39 36 35 33 33 34 35 34 33 32 33 30 26 26 26 27 27 26 25 26 26 25 21 20 20 20 20
41 47 46 40 39 36 41 39 41 40 40 41 41 43 44 42 41 39 36 34 35 35 36 36 36 36 35 36 32 29 28 29 29 29 28 28 28 24 25 22 23 23 22
39 41 45 43 40 40 42 45 43 43 43 44 44 43 43 43 42 41 41 40 39 37 37 38 37 38 38 38 37 33 32 34 31 29 29 29 28 28 27 27 25 26 26
50 44 43 43 44 41 44 46 46 46 46 45 44 46 46 46 45 44 44 44 43 39 40 39 38 39 42 41 40 39 36 35 35 34 31 30 28 30 29 29 28 28 29
57 51 49 48 48 47 45 46 46 45 45 46 45 45 46 46 43 45 43 48 46 37 40 40 41 41 44 44 42 42 40 38 38 38 35 32 29 29 30 31 29 31 30
63 60 56 51 50 51 48 44 43 43 45 46 46 45 44 43 43 43 42 43 48 39 40 41 42 44 47 48 47 46 46 44 43 40 37 35 34 30 30 29 31 32 33
68 65 60 53 52 52 50 48 46 44 45 45 46 46 45 45 44 43 42 42 42 45 49 48 44 44 46 49 51 51 52 51 46 43 41 38 37 36 31 31 33 31 36
70 68 61 54 54 52 52 52 52 50 46 45 46 46 46 45 45 44 43 42 42 46 43 47 50 48 51 53 55 57 55 52 50 47 46 41 37 40 34 33 35 35 37
59 62 60 55 55 54 51 51 51 50 47 45 45 45 45 45 44 44 43 42 42 42 44 45 44 48 49 52 57 60 64 58 51 50 48 46 41 38 38 37 38 34 34
44 44 50 49 55 56 54 51 50 49 47 46 44 44 45 43 43 43 43 42 42 44 46 48 49 52 54 56 57 59 74 67 53 52 50 47 44 39 41 40 40 38 35
50 49 52 48 59 55 53 49 49 48 46 45 44 44 43 42 42 43 44 44 45 47 48 51 53 57 60 59 61 61 47 54 41 50 47 48 45 42 43 42 39 40 39
46 48 50 52 43 49 52 47 46 47 45 44 44 43 43 43 43 45 46 47 49 50 51 53 56 60 63 62 60 64 62 65 60 51 44 55 49 48 49 46 42 42 42
42 41 40 43 45 49 50 45 46 45 44 44 43 44 45 44 45 48 49 50 52 52 53 54 57 63 67 72 71 71 71 74 65 57 43 53 52 52 49 43 42 42 41

GFSSE_500_spd_117.txt.gz
Wind_Speed
29 28 22 20 22 26 25 23 21 20 20 21 21 21 21 21 22 22 21 21 21 21 19 19 18 17 17 17 16 16 16 18 17 17 18 20 21 21 21 19 19 19 17
32 30 25 22 22 23 26 27 25 25 24 25 25 24 24 23 24 24 23 23 23 21 19 17 17 18 17 17 17 17 17 17 18 19 20 21 21 20 17 14 17 14 13
31 31 27 26 26 24 25 28 28 28 28 28 28 28 28 27 26 26 25 24 23 20 18 16 16 17 17 17 18 18 18 17 18 18 20 20 20 21 21 18 17 14 12
31 30 27 26 27 27 25 26 28 29 29 29 28 26 26 26 25 24 24 23 21 19 18 15 15 16 16 16 17 18 18 18 19 19 21 21 21 21 21 20 13 9 11
32 31 30 28 27 27 27 28 28 29 29 28 26 23 22 22 22 22 21 21 20 20 17 15 15 16 16 16 17 18 18 18 20 20 20 21 20 17 19 20 15 16 12
30 28 28 29 28 27 29 29 29 29 30 30 28 26 23 23 22 22 21 20 21 20 19 18 16 15 16 17 17 18 19 19 21 22 21 21 22 17 18 15 13 11 15
25 26 27 28 27 28 28 28 29 29 30 30 30 29 26 24 24 23 22 22 22 22 20 20 19 16 16 17 18 18 19 19 21 23 23 22 20 16 16 16 14 13 16
27 26 27 28 29 28 27 27 28 29 30 31 30 30 29 27 25 24 24 23 23 22 21 21 21 21 19 19 20 19 18 19 21 23 23 22 23 17 15 15 16 14 16
27 30 30 31 31 32 30 29 30 31 32 32 31 31 30 28 26 25 26 25 24 23 24 24 23 23 22 21 22 20 19 19 21 22 23 21 22 19 17 18 10 14 12
30 32 33 32 34 34 34 33 31 31 32 33 33 34 33 32 30 28 29 28 27 25 25 25 25 26 25 24 23 22 21 20 20 21 23 22 21 19 17 18 16 18 17
31 34 37 37 34 36 35 34 33 32 31 31 32 34 35 34 34 32 32 32 30 27 26 26 27 27 27 25 24 23 22 21 21 22 22 23 23 21 18 18 19 18 18
31 33 36 38 36 36 38 37 36 35 34 33 32 33 35 36 36 35 34 34 32 30 28 27 28 28 27 27 24 24 24 23 24 23 23 23 23 22 20 20 20 18 18
33 35 35 36 36 37 36 37 37 37 36 35 35 35 36 37 37 37 37 36 35 34 30 29 29 29 30 29 27 25 25 26 26 25 24 24 24 22 21 21 21 20 21
33 36 36 39 36 35 37 38 39 38 38 37 37 38 38 38 39 39 38 38 39 37 34 32 30 31 31 32 32 31 28 28 28 28 28 27 25 25 22 22 20 20 22
41 40 40 40 40 38 35 37 41 42 44 39 39 39 39 39 40 40 40 41 41 39 37 36 34 35 34 34 35 35 34 32 29 28 29 30 29 28 25 23 22 22 23
53 49 46 44 43 44 42 38 41 40 42 43 42 41 41 41 42 42 41 43 43 42 42 39 39 39 37 36 36 37 37 36 35 32 31 32 32 32 29 26 26 24 25
61 59 56 54 48 48 46 44 43 48 49 48 48 46 46 45 44 44 45 45 46 51 48 48 45 45 41 39 38 40 40 40 41 39 34 35 36 35 33 31 30 27 26
67 62 60 57 57 53 51 49 50 52 51 52 52 50 50 47 46 47 48 48 49 48 55 56 54 44 43 42 41 42 42 45 45 45 41 40 39 38 38 35 32 30 26
62 65 61 62 61 60 56 52 52 53 53 52 52 51 50 49 46 45 45 45 43 48 53 58 35 40 49 43 44 45 46 47 48 50 47 43 41 41 40 40 36 31 27
70 70 70 66 65 65 61 58 54 54 53 53 52 51 51 50 48 45 45 43 43 44 48 40 46 44 45 42 39 50 47 47 51 52 52 50 42 40 42 43 40 36 29
75 73 70 68 64 65 64 59 58 55 53 54 53 52 52 50 50 48 46 44 44 43 42 42 44 41 45 41 47 50 44 54 52 55 56 52 45 42 44 44 42 40 31
61 57 51 57 61 62 62 55 54 56 55 54 54 53 55 53 51 50 48 46 44 44 43 43 44 44 45 46 47 48 50 55 53 51 63 57 43 45 45 45 43 40 37
53 55 51 55 53 48 48 51 57 57 56 56 54 53 53 53 52 50 49 47 45 45 45 45 45 46 48 47 48 51 52 52 56 55 54 55 53 46 48 46 41 42 36
55 58 50 50 41 47 48 52 52 54 56 54 54 52 50 50 51 50 49 47 45 45 46 47 48 48 49 50 51 53 55 55 55 56 51 54 54 51 45 43 45 43 39
48 46 52 46 42 46 47 51 53 51 55 55 54 50 50 50 50 50 49 48 47 46 47 49 51 52 52 54 55 56 58 59 58 56 52 48 47 32 37 53 47 48 42
54 51 51 59 53 46 44 42 42 49 49 56 48 47 47 48 49 50 49 48 47 48 51 52 54 55 55 56 59 61 62 62 63 62 61 60 61 68 58 43 53 57 44

GFSSE_500_spd_120.txt.gz
Wind_Speed
21 24 27 26 24 21 20 20 21 20 18 18 19 19 21 22 22 22 22 23 21 22 22 21 19 17 16 15 16 16 16 15 16 17 19 19 19 19 19 22 22 19 14
24 26 28 27 27 25 22 21 22 23 22 22 22 22 23 24 24 25 24 24 23 23 22 20 16 16 15 16 16 16 16 16 16 17 18 20 20 20 21 21 20 18 14
27 28 29 29 25 25 25 23 23 22 24 25 24 24 24 24 24 24 24 23 22 21 19 18 16 15 15 15 16 15 16 16 17 17 18 18 19 18 17 17 20 9 11
29 30 29 27 27 27 26 25 25 25 23 22 22 22 21 21 21 21 20 20 19 18 16 16 15 14 15 15 16 15 16 16 17 18 19 19 17 15 16 18 17 7 13
31 31 31 31 29 27 26 25 26 26 26 24 23 22 21 21 21 20 19 20 19 18 17 16 15 14 15 15 15 14 15 16 17 19 19 19 18 13 12 14 16 13 10
32 34 34 31 28 27 27 26 26 26 26 25 25 24 22 22 22 21 20 20 20 19 19 18 16 14 14 16 15 15 15 16 19 18 20 20 19 16 14 13 14 14 13
31 33 32 28 27 27 26 26 26 25 25 25 26 26 25 23 23 23 23 22 22 21 20 19 18 16 16 17 17 17 15 17 19 18 18 20 21 17 14 13 13 15 13
33 34 32 28 28 28 27 26 26 25 25 25 25 27 27 26 24 23 24 24 24 23 22 21 21 19 19 20 20 19 17 17 20 19 18 19 21 20 16 13 13 12 13
28 30 33 32 30 29 29 29 28 28 28 28 28 28 28 27 27 27 25 26 26 24 23 24 23 22 23 24 23 22 21 19 20 20 20 18 19 19 18 17 16 14 14
26 28 31 32 33 32 32 32 32 31 32 32 31 29 28 27 28 29 29 28 28 28 26 26 27 26 25 26 25 25 24 22 20 21 20 20 20 18 18 18 17 18 15
26 27 29 32 33 33 32 34 35 34 33 33 33 32 31 29 30 30 30 31 30 29 28 27 28 28 28 27 26 25 24 24 22 22 22 21 22 19 17 18 18 20 19
29 29 27 31 32 30 30 31 35 37 37 36 36 36 34 32 33 32 33 33 32 32 30 29 29 30 30 31 29 25 25 23 23 23 24 24 24 21 18 17 18 20 19
27 28 31 33 32 31 29 30 31 33 37 39 39 39 38 36 36 36 36 35 35 36 35 33 31 31 32 33 33 31 28 24 23 23 25 26 25 23 22 19 18 20 20
33 34 35 32 35 36 37 34 34 35 35 37 41 40 40 40 39 39 38 37 38 39 39 37 35 32 33 34 35 35 32 29 26 24 25 27 28 27 25 23 21 20 21
45 44 44 42 41 39 38 42 40 40 39 39 39 42 45 40 40 41 39 40 41 41 41 42 40 36 36 36 37 38 35 33 31 28 26 27 29 30 29 26 25 23 22
53 55 52 49 47 46 46 46 45 44 45 44 43 43 43 46 43 43 41 40 41 41 43 45 44 42 41 40 40 42 39 37 37 32 30 29 29 32 32 31 29 26 25
57 56 59 59 56 54 52 49 48 48 49 48 48 48 45 45 46 46 46 43 43 45 49 48 49 48 49 46 45 44 43 41 40 37 36 33 31 32 34 35 33 29 29
57 57 58 59 59 57 56 55 53 52 52 52 53 53 51 49 50 51 50 49 47 49 51 53 53 51 54 58 54 50 49 44 44 42 39 38 35 35 35 36 36 34 31
61 62 63 66 67 66 66 63 60 55 55 55 58 56 55 55 53 52 52 52 52 52 52 56 58 57 46 44 49 55 54 49 44 42 41 43 42 40 38 38 40 38 35
63 62 64 67 71 67 64 66 66 63 58 58 60 60 58 55 55 53 50 52 51 48 48 51 53 45 49 58 42 32 31 37 30 35 38 44 45 43 47 44 41 41 39
71 71 71 70 68 66 60 58 61 64 59 59 61 63 62 59 57 55 52 50 51 51 51 53 50 51 50 47 38 53 34 40 42 44 36 40 30 35 37 54 54 47 42
71 67 63 65 61 55 51 55 55 57 57 57 60 61 63 61 60 57 56 54 53 51 51 52 53 52 49 49 45 42 44 42 39 44 40 34 42 38 38 34 49 58 45
59 55 52 47 46 46 50 51 49 47 46 54 55 56 61 61 59 59 58 56 54 54 51 51 51 50 48 49 49 49 49 43 40 39 42 43 43 45 46 42 46 47 47
51 50 48 43 44 52 44 52 51 48 44 43 48 54 60 59 57 58 56 56 55 56 53 50 50 49 49 49 48 49 50 49 48 45 46 47 47 47 44 41 39 40 52
43 38 38 39 43 49 55 53 46 35 38 40 43 48 52 54 59 57 57 53 54 54 53 49 48 49 50 49 48 47 49 52 53 52 50 50 48 48 46 42 41 41 27
38 34 34 33 35 46 38 42 43 35 36 45 38 37 45 46 52 59 56 52 52 52 52 50 49 48 50 51 50 52 52 53 54 56 56 55 52 50 49 46 45 39 39

GFSSE_500_spd_123.txt.gz
Wind_Speed
17 18 18 19 20 19 19 15 15 14 16 16 17 17 17 19 20 21 21 21 20 20 19 19 19 16 13 11 11 12 12 14 14 15 15 15 16 17 18 17 18 19 13
20 23 23 22 22 22 22 20 18 16 15 17 18 19 19 20 21 22 22 20 19 20 19 18 17 15 14 11 11 11 13 14 15 16 15 16 16 16 14 18 19 11 8
24 23 27 27 25 24 22 22 22 19 17 16 16 17 18 19 20 19 19 19 18 17 16 16 14 14 14 13 12 12 13 14 15 15 15 15 17 15 14 16 16 12 10
25 24 25 27 27 26 26 25 23 22 20 18 16 16 17 18 19 19 19 18 17 16 15 15 14 14 14 14 13 13 13 14 15 16 16 16 16 16 14 15 14 13 13
29 29 27 26 28 30 28 25 24 23 22 19 18 17 17 17 19 20 20 19 17 17 17 17 16 15 14 14 14 14 15 16 15 16 16 16 16 16 14 12 13 13 12
29 31 31 31 30 30 28 26 24 23 22 20 19 18 18 17 18 20 20 19 19 18 18 18 18 17 15 14 14 14 16 17 16 17 17 16 15 15 12 13 13 14 15
30 32 35 35 34 29 29 27 25 23 21 20 20 20 19 18 17 19 20 20 19 19 19 18 18 18 17 16 15 15 17 18 18 17 17 17 16 14 13 12 14 14 12
30 32 36 32 32 29 29 27 26 26 24 22 23 23 22 22 20 19 19 20 20 19 19 18 19 19 19 19 18 17 18 20 19 19 19 18 18 15 13 12 11 14 13
28 28 31 31 31 30 29 28 27 27 27 26 26 27 27 26 24 24 22 21 21 22 21 20 21 22 21 20 20 20 21 21 21 20 20 20 21 17 15 12 12 12 13
27 29 33 34 33 32 32 30 29 29 28 28 28 28 29 28 26 26 26 25 24 24 24 23 23 24 23 23 23 21 22 23 22 21 21 21 22 20 17 16 12 13 13
28 30 31 32 33 33 30 31 31 32 33 32 31 30 31 31 30 30 29 29 29 29 26 25 26 26 27 26 26 24 22 22 23 23 22 23 23 21 19 17 15 13 14
29 25 26 27 28 30 30 29 31 33 34 35 36 36 35 34 34 33 33 33 32 33 31 30 30 30 29 29 28 28 25 22 24 24 23 24 23 22 20 18 16 15 14
24 25 25 24 25 26 29 27 29 33 34 34 35 36 37 38 38 36 36 36 36 36 34 35 35 33 33 33 32 31 29 27 26 25 25 24 25 24 22 20 19 18 17
31 33 34 35 35 32 31 33 34 33 34 35 39 39 39 39 40 39 40 40 39 38 38 38 39 38 35 36 35 34 33 31 31 27 27 26 26 26 26 25 22 21 19
40 41 41 42 43 44 42 36 38 39 41 41 39 39 42 43 41 42 41 40 38 40 40 41 42 40 39 38 38 37 37 36 36 33 30 29 29 28 27 27 26 24 24
48 48 50 50 50 49 47 45 45 44 44 47 46 44 44 44 46 45 46 47 43 43 42 43 43 42 42 42 40 40 40 41 40 41 36 33 32 30 29 29 28 27 27
53 54 55 55 54 54 53 50 50 50 52 51 51 51 49 48 48 48 49 48 49 46 45 45 46 45 45 46 45 44 46 46 45 45 44 39 36 34 33 31 31 30 30
56 57 56 57 58 58 59 59 55 53 52 53 54 55 53 51 51 51 50 49 51 47 46 48 49 50 50 50 50 48 49 50 49 54 49 45 41 37 36 33 33 31 32
54 56 58 60 62 63 64 64 65 63 60 58 58 57 59 60 57 56 55 52 53 50 50 51 53 55 54 55 54 53 51 46 42 39 51 54 46 39 35 37 32 29 37
56 59 60 62 63 64 64 67 68 68 65 63 61 64 61 62 63 62 62 58 55 53 51 53 54 53 51 47 58 57 59 49 46 35 33 41 46 28 26 37 30 24 26
59 63 66 69 70 71 69 67 69 69 63 63 61 61 64 66 68 65 65 65 61 57 54 53 53 54 53 52 47 60 49 26 46 45 36 29 37 32 32 36 30 24 23
64 67 69 70 71 70 70 63 60 62 63 61 61 59 61 65 67 67 64 65 64 61 57 56 55 54 54 54 55 48 48 42 42 40 30 33 30 36 32 23 32 34 33
63 63 61 60 60 59 58 55 54 58 57 55 49 54 59 57 63 65 66 63 63 61 59 57 57 56 55 54 56 56 53 49 48 43 41 39 37 36 35 34 30 33 32
63 60 55 55 49 46 46 48 49 51 51 51 48 43 44 44 47 55 61 62 61 62 60 59 58 57 57 55 55 55 54 52 50 47 43 42 41 40 40 38 35 35 37
54 54 52 47 41 37 38 38 46 49 45 48 50 49 37 37 37 41 48 58 60 61 58 59 59 59 56 56 54 54 54 53 52 49 44 42 43 45 43 42 40 39 38
51 47 40 33 31 29 26 32 34 34 43 46 45 28 36 33 31 32 39 47 52 63 60 57 58 56 56 56 54 53 52 52 51 51 47 44 45 45 46 45 45 42 39